GFSSW_prec_radar_000.txt.gz
Reflectivity
-20 -3 -14 -20 -20 -20 -20 -20 -20 -20 7 -19 9 -20 -20 -20 -12 10 -18 -20 -20 -20 -20 -20 -20 -20 -20 -20 -20 -20 -20 -20 -20 -20 -20 -20 -20 -20 -20 -20 -20 -20 -20 -20 -20
-20 -10 0 -6 2 -3 -20 -8 0 -5 -18 -20 14 -20 -20 -20 -4 -1 -20 -20 -20 -20 -20 -20 -20 -20 -20 -20 -20 -20 -20 -20 -20 -20 -20 -20 -20 -20 -20 -20 -20 -20 -20 -20 -20
-20 -20 -20 -1 5 -20 -8 -20 -20 -20 -20 -20 -20 -20 -5 -6 2 -20 -20 -20 -20 -20 -20 -20 -20 -20 -20 -20 -20 -20 -20 -20 -20 -20 -20 -20 -20 -20 -20 -20 -20 -20 -20 -20 -20
-20 -20 -20 -20 -16 -20 -20 -20 -17 -20 -10 8 -1 -20 -3 19 -20 -20 -20 -20 -20 -20 17 -20 -20 -20 -20 -20 -20 -20 -20 -20 -20 -20 -20 -20 -20 -20 -20 -20 -20 -20 -20 -20 -20
-20 -20 -20 -20 -20 -20 -20 -20 11 14 -10 -7 13 -8 16 7 -7 -20 -20 -20 -20 -16 4 -20 -20 -20 -20 -20 -20 -20 -20 -20 -20 -20 -20 -20 -20 -20 -20 -20 -20 -20 -20 -20 -20
-19 3 -20 -20 -20 -20 -20 -20 -19 -10 -20 -20 22 22 14 -5 -20 -20 -20 -20 -20 -14 -20 -20 -20 -20 -20 -20 -20 -20 -20 -20 -20 -20 -20 -20 -20 -20 -20 -20 -20 -20 -20 -20 -20
-20 -19 -20 -20 -20 -20 -20 -20 -20 -18 -11 -20 -1 24 23 -20 -20 -20 -20 -19 -20 -13 14 -20 -20 -20 -20 -20 -20 -20 -20 -20 -20 -20 -20 -20 -20 -20 -20 -20 -20 -20 -20 -20 -20
12 9 10 -20 -18 0 6 -0 -16 -0 -20 -20 -8 25 -16 -20 -20 -20 -20 -20 -20 -20 -20 -20 -20 23 -20 -20 -20 -20 -20 -20 -20 -20 -20 -20 -20 -20 -20 -20 -20 -20 -20 -20 -20
19 15 11 -17 8 -20 -7 8 -20 -20 -2 -17 25 19 -20 -20 -20 -20 -9 -20 -20 -17 -20 25 -14 -20 -17 -16 -20 -20 -20 -20 -20 -20 -20 -20 -20 -20 -20 -20 -20 -20 -20 -20 -20
-7 20 28 32 27 -12 -19 13 17 -16 26 31 28 20 -20 -20 -20 -20 -20 -20 -5 4 25 24 13 -12 -18 -20 -12 -20 -20 -20 -20 -20 -20 -20 -20 -20 -20 -20 -20 -20 -20 -20 -20
11 16 15 25 27 20 9 16 32 39 25 23 -4 4 -20 -20 -20 -17 -20 -20 -20 20 19 25 31 18 -3 -20 -20 -20 -20 -20 -20 -20 -20 -20 -20 -20 -20 -20 -20 -20 -20 -20 -20
14 12 14 18 25 24 10 28 17 4 10 -20 -20 -18 -20 -20 -20 -6 8 17 14 7 16 21 1 -7 -2 -20 -20 -20 -20 -20 -20 -20 -20 -20 -20 -20 -20 -20 -20 -20 -20 -20 -20
18 18 10 10 18 29 32 37 32 -3 -14 -20 -6 -20 -19 -20 -20 19 24 21 -15 9 14 26 10 20 -20 -20 -20 -20 -20 -20 -20 -20 -20 -20 -20 -20 -20 -20 -20 -20 -20 -20 -20
21 18 20 28 23 25 35 17 14 19 19 -4 -2 16 16 -20 28 -8 24 29 6 2 8 10 -2 -20 -12 -20 -20 -20 -20 -20 -20 -20 -20 -20 -20 -20 -20 -20 -20 -20 -20 -20 -20
21 22 31 32 26 29 29 27 30 30 18 -7 13 8 26 12 2 16 34 21 -11 -12 -20 -20 -20 -12 -10 -20 -20 -20 -20 -20 -20 -20 -20 -20 -20 -20 -20 -20 -20 -20 -20 -20 -20
18 29 33 38 37 37 35 35 32 25 8 35 32 34 33 28 -20 21 38 18 19 -12 -20 15 -20 -19 -20 -20 -20 -20 -20 -20 -20 -20 -20 -20 -20 -20 -20 -20 -20 -20 -20 -20 -20
-17 24 32 29 36 35 33 31 37 24 9 22 24 28 33 28 -13 30 36 21 19 4 14 -15 -20 -20 -20 -20 -20 -20 -20 -20 -20 -20 -20 -20 -20 -20 -20 -20 -20 -20 -20 -20 -20
-20 6 3 -0 33 36 29 29 22 21 12 19 18 26 20 -3 21 29 26 18 -5 -18 -20 -4 -20 3 -20 -20 -20 -20 -20 -20 -20 -20 -20 -20 -20 -20 -20 -20 -20 -20 -20 -20 -20
-20 -20 -20 -20 26 33 31 27 15 14 -11 5 -10 14 33 27 25 30 24 14 9 -20 -20 13 -11 -20 -20 -20 -20 -20 -20 -20 -20 -20 -20 -20 -20 -20 -20 -20 -20 -20 -20 -20 -20
-20 -20 -20 -20 -0 34 25 15 17 8 -14 4 -4 13 9 -2 -18 -3 29 -11 -19 3 18 -19 -20 -20 -20 -20 -20 -20 -20 -20 -20 -20 -20 -20 -20 -20 -20 -20 -20 -20 -20 -20 -20
-20 -20 -20 -20 -16 23 34 21 24 11 4 23 13 11 -20 -20 -20 -20 11 6 -15 7 -20 -20 -20 -20 -20 -20 -20 -20 -20 -20 -20 -20 -20 -20 -20 -20 -20 -20 -20 -20 -20 -20 -20
-20 -20 -20 -20 -20 18 34 31 28 28 28 11 -20 -20 -20 -17 -19 -20 -20 -20 -5 -20 -20 -20 -20 -20 -20 -20 -20 -20 -20 -20 -20 -20 -20 -20 -20 -20 -20 -20 -20 -20 -20 -20 -20
-20 -20 -17 -20 -20 -14 -4 35 35 37 21 14 12 7 -20 5 -9 -20 -20 -20 -20 -20 -20 -20 -20 -20 -20 -20 -20 -20 -20 -20 -20 -20 -20 -20 -20 -20 -20 -20 -20 -20 -20 -20 -20
-20 -20 -20 -20 -20 7 10 -16 29 35 13 23 30 26 28 10 1 2 -14 -14 -20 -20 -20 -20 -20 -20 -20 -17 -19 -20 -20 -20 -20 -20 -20 -20 -20 -20 -20 -20 -20 -20 -20 -20 -20
-20 -20 -20 -20 -20 -19 7 -18 6 4 26 24 16 8 4 8 9 13 3 -20 -20 -14 -20 -20 -20 -20 -19 -14 -20 -20 -20 -20 -20 -20 -20 -20 -20 -20 -20 -20 -20 -20 -20 -20 -20
-20 -20 -20 -20 -20 -20 -20 3 -20 -13 -11 18 8 -20 -20 -6 -7 -20 -20 -20 -20 -20 -15 -19 -20 -20 -20 -20 -20 -20 -20 -20 -20 -20 -20 -20 -20 -20 -20 -20 -20 -20 -20 -20 -20
-20 -20 -20 -20 -20 -20 -20 -20 -20 -20 -20 -20 -18 3 11 3 6 7 -14 -20 -20 -17 -12 -6 -14 -17 -10 2 -8 -20 -20 -20 -20 -20 -20 -20 -20 -20 -20 -20 -20 -20 -20 -20 -20

GFSSW_prec_radar_003.txt.gz
Reflectivity
-20 -20 -20 -20 -20 -20 -9 -20 -0 19 14 -10 4 -16 -20 -20 -20 -20 -20 -20 -20 -20 -20 -20 -20 -20 -20 -20 -20 -20 -20 -20 -20 -20 -20 -20 -20 -20 -20 -20 -20 -20 -20 -20 -20
-20 -20 -10 -1 -20 -20 -20 -20 -20 9 -19 11 -8 -7 -18 -19 4 1 -20 -20 -20 -20 -20 -20 -20 -20 -20 -20 -20 -20 -20 -20 -20 -20 -20 -20 -20 -20 -20 -20 -20 -20 -20 -20 -20
-6 -15 -4 3 -10 20 -13 -19 -3 -14 -13 1 -20 14 10 -20 -16 -20 -20 -20 -20 -20 -20 -20 -20 -20 -20 -20 -20 -20 -20 -20 -20 -20 -20 -20 -20 -20 -20 -20 -20 -20 -20 -20 -20
0 -20 -15 -7 -20 -20 -16 8 -12 -20 -20 18 -6 18 9 11 -20 -20 -20 -20 -20 -20 -20 16 -20 -20 -20 -20 -20 -20 -20 -20 -20 -20 -20 -20 -20 -20 -20 -20 -20 -20 -20 -20 -20
-20 -20 -20 -20 -20 -20 -20 -2 20 -20 -20 14 3 10 -10 14 -5 -20 -20 -20 -20 -20 15 2 -20 -20 -20 -20 -20 -20 -20 -20 -20 -20 -20 -20 -20 -20 -20 -20 -20 -20 -20 -20 -20
-20 -20 -20 -20 -20 -20 -20 -20 23 2 -20 -20 1 23 15 -20 -20 -20 -20 -20 -20 -20 -16 -16 -20 -20 -20 -20 -20 -20 -20 -20 -20 -20 -20 -20 -20 -20 -20 -20 -20 -20 -20 -20 -20
-20 -20 -20 -20 -17 -6 -2 -3 -20 -17 32 23 -20 23 13 -20 -20 -20 -20 -20 -20 -20 18 5 -20 -20 -20 -20 -20 -20 -20 -20 -20 -20 -20 -20 -20 -20 -20 -20 -20 -20 -20 -20 -20
-14 -18 -20 -20 -20 -20 20 -13 11 16 -12 22 -11 30 -13 -20 -20 -20 -20 -20 -20 -20 9 9 -20 -20 -20 -20 -20 -20 -20 -20 -20 -20 -20 -20 -20 -20 -20 -20 -20 -20 -20 -20 -20
12 -3 18 22 4 -20 -11 25 -4 1 3 30 26 25 9 -20 -20 -20 -20 -20 -20 -20 -20 10 -20 11 -17 -20 -20 -20 -20 -20 -20 -20 -20 -20 -20 -20 -20 -20 -20 -20 -20 -20 -20
13 14 15 23 29 8 5 -16 6 25 30 27 23 19 7 -20 -20 -20 -20 -20 -11 -20 18 27 -1 3 -20 -19 -8 -20 -20 -20 -20 -20 -20 -20 -20 -20 -20 -20 -20 -20 -20 -20 -20
16 16 16 14 28 28 20 18 -3 18 6 -1 10 6 -20 -20 -20 -20 0 -20 -5 2 12 32 28 14 -20 10 -20 -13 -20 -20 -20 -20 -20 -20 -20 -20 -20 -20 -20 -20 -20 -20 -20
14 15 23 13 21 26 15 -5 8 12 12 9 -3 -5 8 -10 -13 -20 -13 -16 6 -14 20 12 13 -19 -20 -20 -9 -17 -20 -20 -20 -20 -20 -20 -20 -20 -20 -20 -20 -20 -20 -20 -20
13 21 27 26 25 25 11 18 33 36 27 10 -7 -20 22 3 -20 -20 -20 -13 -20 9 13 -2 -9 9 -20 -20 5 -20 -20 -20 -20 -20 -20 -20 -20 -20 -20 -20 -20 -20 -20 -20 -20
21 28 30 27 31 23 26 33 34 17 33 27 13 -20 11 11 2 15 10 1 -20 -19 2 23 -14 -18 8 4 -20 -15 -20 -20 -20 -20 -20 -20 -20 -20 -20 -20 -20 -20 -20 -20 -20
17 31 33 40 36 29 25 -1 19 19 -16 -20 -20 -2 25 15 -19 19 -15 12 -20 -20 23 17 6 1 28 1 -20 -17 -20 -20 -20 -20 -20 -20 -20 -20 -20 -20 -20 -20 -20 -20 -20
13 16 34 33 37 29 25 25 27 40 15 5 0 -8 24 18 4 17 39 30 -14 -20 -14 -12 -20 3 -20 -20 -19 -8 -20 -20 -20 -20 -20 -20 -20 -20 -20 -20 -20 -20 -20 -20 -20
9 13 15 31 36 36 36 33 35 23 -16 19 -7 -7 19 19 26 29 21 24 28 5 14 16 -4 3 -7 15 -3 -20 -20 -20 -20 -20 -20 -20 -20 -20 -20 -20 -20 -20 -20 -20 -20
-20 5 10 20 37 35 37 29 26 -9 23 -15 17 12 -16 22 12 23 31 31 -2 -20 -16 12 15 -3 8 2 -20 -20 -20 -20 -20 -20 -20 -20 -20 -20 -20 -20 -20 -20 -20 -20 -20
-3 -20 -6 10 26 38 34 38 20 9 9 12 31 14 25 30 6 27 40 21 -12 -20 -11 -1 -20 -20 -20 -20 -20 -20 -20 -20 -20 -20 -20 -20 -20 -20 -20 -20 -20 -20 -20 -20 -20
-20 -20 -15 -20 21 32 33 33 4 -15 -3 -15 10 22 12 12 4 33 30 11 -20 -20 -20 -20 -20 -20 -20 -20 -20 -20 -20 -20 -20 -20 -20 -20 -20 -20 -20 -20 -20 -20 -20 -20 -20
-20 -20 -14 1 11 35 37 33 10 -3 -19 -2 -20 12 -15 -16 16 32 20 30 -10 5 -17 -20 -20 -20 -20 -20 -20 -20 -20 -20 -20 -20 -20 -20 -20 -20 -20 -20 -20 -20 -20 -20 -20
-20 -20 -10 -18 7 20 32 29 -15 -9 21 -1 -20 -9 -17 -20 -7 26 17 -20 -19 9 -20 -20 -20 -20 -20 -20 -20 -20 -20 -20 -20 -20 -20 -20 -20 -20 -20 -20 -20 -20 -20 -20 -20
-20 -20 -18 -16 16 23 32 5 18 24 17 2 -20 -18 -20 -20 -20 -12 -12 -20 -20 -20 -20 -20 -20 -20 -20 -20 -20 -20 -20 -20 -20 -20 -20 -20 -20 -20 -20 -20 -20 -20 -20 -20 -20
-20 -20 -20 -20 -17 16 4 32 24 14 -5 -20 -13 -20 -20 -20 -10 -20 -20 -20 -20 -20 10 -20 -20 -20 -20 -20 -20 -20 -20 -20 -20 -20 -20 -20 -20 -20 -20 -20 -20 -20 -20 -20 -20
-20 -20 -20 -20 -19 -11 -20 13 22 2 -9 18 -0 -13 -20 3 -20 -20 -20 -20 -20 -20 -18 -20 -20 -20 -20 -20 -20 -20 -20 -20 -20 -20 -20 -20 -20 -20 -20 -20 -20 -20 -20 -20 -20
-20 -20 -20 -20 -20 -18 -20 -20 -20 -20 -20 -20 -20 -2 -20 -6 -20 -20 -20 -20 -20 -19 -20 -20 -20 -20 -20 -20 -20 -20 -20 -20 -20 -20 -20 -20 -20 -20 -20 -20 -20 -20 -20 -20 -20
-20 -20 -20 -20 -20 -20 -19 15 -20 -20 8 9 23 10 12 1 11 13 3 -11 -2 -17 -20 -20 -20 -20 -20 -20 -20 -20 -20 -20 -20 -20 -20 -20 -20 -20 -20 -20 -20 -20 -20 -20 -20

GFSSW_prec_radar_006.txt.gz
Reflectivity
-20 -20 -20 -15 -6 -20 -20 -20 -19 -3 -17 20 -5 -13 8 12 12 -20 -20 -20 -20 -20 -20 -20 -20 -20 -20 -20 -20 -20 -20 -20 -20 -20 -20 -20 -20 -20 -20 -20 -20 -20 -20 -20 -20
-20 -20 -20 -20 -20 -7 -2 -20 -15 -16 -11 16 -2 -20 19 7 -20 -5 -20 -20 -20 -20 -20 -20 -20 -20 -20 -20 -20 -20 -20 -20 -20 -20 -20 -20 -20 -20 -20 -20 -20 -20 -20 -20 -20
-14 -20 -20 -18 -20 -20 -15 8 -5 -20 -12 21 2 -14 19 -20 -20 -20 -20 -20 -20 -20 -20 -20 -20 -20 -20 -20 -20 -20 -20 -20 -20 -20 -20 -20 -20 -20 -20 -20 -20 -20 -20 -20 -20
-19 8 1 -20 -20 -20 -20 4 6 -20 -20 -20 -8 22 22 6 -20 -20 -20 -20 -20 -20 7 -12 -8 -20 -20 -20 -20 -20 -20 -20 -20 -20 -20 -20 -20 -20 -20 -20 -20 -20 -20 -20 -20
-20 1 -17 -20 -20 -20 -20 -20 -20 -5 -6 -20 20 7 23 12 -15 -20 -20 -20 -20 -20 7 3 -20 -20 -20 -20 -20 -20 -20 -20 -20 -20 -20 -20 -20 -20 -20 -20 -20 -20 -20 -20 -20
-20 -20 -20 -20 -20 -20 -20 -20 -20 -20 -20 8 -10 18 4 -7 -20 -20 -20 -20 -20 -20 -20 18 -20 -20 -20 -20 -20 -20 -20 -20 -20 -20 -20 -20 -20 -20 -20 -20 -20 -20 -20 -20 -20
-6 -6 -20 -20 -20 -20 -20 -20 -20 -20 -20 -17 27 27 9 -20 -20 -20 -20 -20 -20 -20 -20 -7 -6 -20 -20 -20 -20 -20 -20 -20 -20 -20 -20 -20 -20 -20 -20 -20 -20 -20 -20 -20 -20
3 17 -20 -20 -20 -20 -20 -20 -20 -20 -20 17 -4 22 -18 -20 -20 -20 -20 -20 -20 -20 -20 11 13 -20 -20 -1 -20 -20 -20 -20 -20 -20 -20 -20 -20 -20 -20 -20 -20 -20 -20 -20 -20
6 -6 -18 8 13 8 -20 -20 -15 -12 -20 27 18 2 7 -20 -20 -20 -20 -20 -20 -20 -20 -7 27 -0 6 0 -13 -20 -20 -20 -20 -20 -20 -20 -20 -20 -20 -20 -20 -20 -20 -20 -20
7 2 4 -6 7 6 22 9 10 17 17 2 21 29 -16 -20 -20 -20 -20 -20 7 -20 0 20 25 18 -20 -9 15 -18 -20 -20 -20 -20 -20 -20 -20 -20 -20 -20 -20 -20 -20 -20 -20
-7 11 7 16 7 20 30 25 -2 -13 9 -20 -20 -20 -20 -20 -20 -20 -20 -20 8 -20 15 17 21 16 -20 -20 -20 -20 -20 -20 -20 -20 -20 -20 -20 -20 -20 -20 -20 -20 -20 -20 -20
8 22 26 26 19 21 23 0 9 -13 -2 -20 -20 -18 -20 10 6 -20 -20 -18 10 -20 3 22 9 -20 -3 -20 -20 -20 -20 -20 -20 -20 -20 -20 -20 -20 -20 -20 -20 -20 -20 -20 -20
16 14 29 28 25 25 24 6 20 -10 22 -20 -20 -20 -20 19 15 -20 -20 -4 8 -20 1 13 1 -20 -20 -20 -20 -13 -20 -20 -20 -20 -20 -20 -20 -20 -20 -20 -20 -20 -20 -20 -20
20 13 28 32 32 25 17 33 30 26 34 4 2 -20 -15 20 17 -20 -20 -13 5 -20 -7 21 6 21 -20 -20 -20 2 -20 -20 -20 -20 -20 -20 -20 -20 -20 -20 -20 -20 -20 -20 -20
-6 21 25 34 30 27 30 33 30 30 18 -7 4 -19 -20 16 23 21 11 15 -12 -20 6 6 -7 26 -12 -20 -20 -20 -20 -20 -18 -20 -20 -20 -20 -20 -20 -20 -20 -20 -20 -20 -20
-20 -1 22 31 32 32 23 28 21 32 10 4 14 -20 1 -20 17 -20 -20 8 1 -13 -11 18 4 19 -20 -15 -20 -20 -11 27 -12 -20 -20 -20 -20 -20 -20 -20 -20 -20 -20 -20 -20
-20 -20 8 32 37 38 33 29 33 16 30 9 -8 -7 4 -8 19 -13 -13 2 26 5 12 -18 -20 -20 -20 15 -7 29 8 23 -20 -20 -20 -20 -20 -20 -20 -20 -20 -20 -20 -20 -20
-20 3 11 4 34 35 35 26 5 34 12 -12 1 -20 -15 -20 18 12 29 27 24 -20 -20 1 9 17 13 -20 -20 17 -1 -20 -20 -20 -20 -20 -20 -20 -20 -20 -20 -20 -20 -20 -20
6 -19 13 9 28 33 35 31 32 -18 24 23 12 -20 -18 22 23 23 20 25 8 -20 -20 13 -1 -20 -20 -20 8 22 -2 -20 -20 -20 -20 -20 -20 -20 -20 -20 -20 -20 -20 -20 -20
-19 -7 -20 24 28 28 34 34 35 -12 -20 4 -6 -12 9 27 34 34 26 20 19 -15 -20 -20 -20 -20 -20 -20 0 -17 -12 -20 -20 -20 -20 -20 -20 -20 -20 -20 -20 -20 -20 -20 -20
-6 -20 -9 30 29 37 32 32 31 -19 -20 -4 7 -16 -8 -18 32 4 -4 10 -2 -12 -20 -20 -20 -20 -20 -19 -8 -17 -20 -20 -20 -20 -20 -20 -20 -20 -20 -20 -20 -20 -20 -20 -20
-20 -20 10 21 36 29 37 36 20 -16 12 -20 -20 -2 -6 -0 26 34 12 -18 -20 -20 -20 -20 -20 -20 -20 -20 -20 -20 -20 -20 -20 -20 -20 -20 -20 -20 -20 -20 -20 -20 -20 -20 -20
-20 -17 17 27 35 27 31 29 13 -17 10 15 -20 -20 -20 -20 -10 -4 25 -10 -20 -20 -20 -20 -20 -20 -12 -20 -20 -20 -20 -20 -20 -20 -20 -20 -20 -20 -20 -20 -20 -20 -20 -20 -20
-20 11 13 19 18 22 26 25 28 28 21 13 -20 -19 -19 -6 -15 -19 28 15 -20 -20 -20 -16 -20 -20 -16 -20 -20 -20 -20 -20 -20 -20 -20 -20 -20 -20 -20 -20 -20 -20 -20 -20 -20
-20 -17 -9 -16 15 7 16 26 28 32 12 -12 4 -20 -20 -20 -20 -20 -20 -20 11 -18 -20 -1 -20 -20 -20 -20 -20 -20 -20 -20 -20 -20 -20 -20 -20 -20 -20 -20 -20 -20 -20 -20 -20
-20 -20 -20 -20 -10 11 20 28 19 22 19 -20 -20 -20 -20 -20 -20 -20 -20 -20 -20 -0 -20 10 -20 -20 -20 -20 -20 -20 -20 -20 -20 -20 -20 -20 -20 -20 -20 -20 -20 -20 -20 -20 -20
-20 -20 -20 1 -20 -6 7 8 -16 -10 15 11 -20 -20 -20 -12 -20 -20 -20 -20 -20 -20 -16 7 -9 -20 -20 -20 -20 -20 -20 -20 -20 -20 -20 -20 -20 -20 -20 -20 -20 -20 -20 -20 -20

GFSSW_prec_radar_009.txt.gz
Reflectivity
-20 -20 -20 -20 -17 -14 -20 -20 -20 0 -9 8 21 19 22 14 -3 -20 -20 -20 -20 -20 -20 -20 -20 -20 -20 -20 -20 -20 -20 -20 -20 -20 -20 -20 -20 -20 -20 -20 -20 -20 -20 -20 -20
-10 -20 -20 -20 -19 -9 -20 -20 -20 -20 -20 -7 -20 -7 15 -2 -20 -20 -20 -20 -20 -20 -20 -16 -20 -20 -20 -20 -20 -20 -20 -20 -20 -20 -20 -20 -20 -20 -20 -20 -20 -20 -20 -20 -20
-20 -20 -20 -20 -20 -20 -18 -16 -20 -20 -20 -20 -20 3 13 -15 -19 -20 -20 -20 -20 -20 -20 1 -20 -13 -20 -20 -20 -20 -20 -20 -20 -20 -20 -20 -20 -20 -20 -20 -20 -20 -20 -20 -20
-20 -20 -20 -20 -17 -20 -20 -20 -20 -7 -20 -20 -20 -20 16 -19 -20 -20 -20 -20 -20 -20 -20 -20 2 17 -20 -20 -20 -20 -20 -20 -20 -20 -20 -20 -20 -20 -20 -20 -20 -20 -20 -20 -20
-20 -20 -20 -20 -1 -20 -20 -20 -20 -20 -19 -5 -18 -20 -18 15 -13 -20 -20 -20 -20 -0 -20 -2 19 -0 -0 -20 -20 -20 -20 -20 -20 -20 -20 -20 -20 -20 -20 -20 -20 -20 -20 -20 -20
-20 -20 -20 -20 -20 -7 -20 -20 -20 -17 -17 -20 -20 16 -20 -20 -20 -20 -20 -20 -20 -1 -20 -17 12 -20 -10 -20 -20 -20 -20 -20 -20 -20 -20 -20 -20 -20 -20 -20 -20 -20 -20 -20 -20
-20 9 -20 -20 -20 -20 -20 -4 -20 -20 -20 -20 22 -4 8 -20 -20 -20 -20 -20 -20 -20 -20 -20 3 5 -20 -20 -20 -20 -20 -20 -20 -20 -20 -20 -20 -20 -20 -20 -20 -20 -20 -20 -20
-20 -6 5 -6 10 -2 -20 -20 -6 -18 -20 -20 -14 5 -2 -20 -20 -18 -3 -20 -20 -20 -20 -20 22 18 -8 -20 -20 -20 -16 -20 -20 -20 -20 -20 -20 -20 -20 -20 -20 -20 -20 -20 -20
-20 -20 1 5 10 9 19 -20 -20 15 8 -18 -20 3 -18 -20 -19 -1 -3 -20 -20 -20 -20 -19 0 25 11 2 -4 -20 -20 -20 -20 -20 -20 -20 -20 -20 -20 -20 -20 -20 -20 -20 -20
-20 10 -20 6 0 -16 18 19 -18 -1 6 -20 -10 8 -20 -15 -19 -20 -20 -20 22 25 10 2 12 23 14 8 13 3 1 -20 -20 -20 -20 -20 -20 -20 -20 -20 -20 -20 -20 -20 -20
-20 -8 12 -6 12 14 18 36 20 14 6 9 -20 -20 -20 -20 -20 -20 -20 -20 -6 23 -17 -14 22 28 6 -10 -20 -20 -20 -20 -20 -20 -20 -20 -20 -20 -20 -20 -20 -20 -20 -20 -20
-20 -12 14 4 17 17 20 27 -2 6 -8 11 -20 -14 -20 -20 -13 -20 -20 -20 -18 33 -20 17 16 9 5 9 -19 -20 -20 -20 -20 -20 -20 -20 -20 -20 -20 -20 -20 -20 -20 -20 -20
-20 -13 -4 -19 23 16 22 19 23 24 23 -10 -2 -13 -20 -20 -19 -20 -20 -20 5 18 2 -17 11 4 19 12 13 -17 -20 -20 -20 -20 -20 -20 -20 -20 -20 -20 -20 -20 -20 -20 -20
-20 -20 -20 20 25 17 23 28 30 33 34 -10 -11 -19 -20 15 -8 -20 -20 -20 11 12 2 -5 35 -11 17 -14 -20 -20 -20 -20 -20 -20 -20 -20 -20 -20 -20 -20 -20 -20 -20 -20 -20
-9 -20 -20 8 17 30 26 32 36 32 13 -15 -8 3 -20 -20 -17 -11 -20 -15 14 15 14 25 28 -2 2 -20 -17 -18 -20 -20 -20 -20 -20 -20 -20 -20 -20 -20 -20 -20 -20 -20 -20
-20 -20 -13 -10 11 28 33 33 34 30 16 13 19 16 3 8 22 25 -20 9 22 21 3 28 23 16 -20 -19 -20 -20 -4 -19 -20 -19 -20 -20 -20 -20 -20 -20 -20 -20 -20 -20 -20
-5 -3 18 -20 3 26 32 33 31 19 10 25 15 12 -17 -20 28 -10 -14 9 38 28 27 38 7 6 8 -20 -1 14 -2 -11 3 12 -20 -20 -20 -20 -20 -20 -20 -20 -20 -20 -20
2 14 9 -18 -13 32 29 26 15 5 9 23 -12 -1 3 -2 32 14 -20 13 37 -13 -9 33 31 6 15 33 3 -4 -2 -19 -5 -20 -20 -20 -20 -20 -20 -20 -20 -20 -20 -20 -20
17 -20 13 -18 16 35 32 21 10 14 23 16 -7 -10 25 7 23 15 2 -4 23 -13 -0 2 -12 7 -20 11 -20 32 -2 -19 -20 -20 -20 -20 -20 -20 -20 -20 -20 -20 -20 -20 -20
-19 8 -6 -0 25 30 35 35 27 36 35 -20 -20 -20 -20 -9 34 -16 6 -8 20 -17 -20 -20 -20 -20 -20 -13 -20 -9 -20 20 -17 -20 -20 -20 -20 -20 -20 -20 -20 -20 -20 -20 -20
-7 -14 -16 25 28 29 34 32 28 32 26 -17 -15 -15 -17 -17 32 8 -7 12 14 -9 -20 -20 -20 -20 -18 -20 -3 -20 -14 -7 3 -20 -20 -20 -20 -20 -20 -20 -20 -20 -20 -20 -20
-20 -19 11 26 26 24 18 31 31 18 -6 -18 -20 2 -20 -20 -11 18 17 -1 -9 -17 -20 -20 -20 -20 -20 -20 -20 -20 -20 -19 -20 -20 -20 -20 -20 -20 -20 -20 -20 -20 -20 -20 -20
-20 1 23 24 20 30 30 34 22 -4 6 20 -20 -20 -20 -1 20 13 -20 -20 -20 -20 -20 -20 -20 -20 -20 -15 -20 -20 -20 -20 -20 -20 -20 -20 -20 -20 -20 -20 -20 -20 -20 -20 -20
-20 2 25 16 22 31 36 29 18 10 17 -7 -20 -20 -20 -20 -20 -20 -15 -20 -20 -20 -20 -20 -20 -20 -20 -20 -20 -20 -20 -20 -20 -20 -20 -20 -20 -20 -20 -20 -20 -20 -20 -20 -20
-20 -20 -17 16 12 29 35 30 23 31 26 25 -9 -20 -20 -20 -20 -20 11 -20 -16 -20 -15 -20 -20 -20 -20 -20 -20 -20 -20 -20 -20 -20 -20 -20 -20 -20 -20 -20 -20 -20 -20 -20 -20
-20 -20 -20 -20 -18 18 30 31 30 29 28 14 -9 -20 -6 1 -20 -20 -20 -20 -20 -19 -20 -20 -20 -20 -20 -20 -20 -20 -20 -20 -20 -20 -20 -20 -20 -20 -20 -20 -20 -20 -20 -20 -20
-20 -20 -20 -20 -10 -3 20 31 29 30 15 -3 -20 -8 9 11 -20 -14 -7 4 -3 -16 -20 -18 -20 -20 -19 -20 -20 -20 -20 -20 -20 -20 -20 -20 -20 -20 -20 -20 -20 -20 -20 -20 -20

GFSSW_prec_radar_012.txt.gz
Reflectivity
-20 -20 -20 -20 -20 -20 -20 -20 -20 14 -17 14 20 2 10 15 -2 2 -20 -20 -20 -20 -20 -20 -20 -20 -20 -20 -20 -20 -20 -20 -20 -20 -20 -20 -20 -20 -20 -20 -20 -20 -20 -20 -20
-20 -20 -20 -20 -20 -20 -20 -20 -20 -20 -20 -8 5 -20 -20 10 13 13 -20 -20 -20 -20 -20 -16 -20 -7 3 -20 -20 -20 -20 -20 -20 -20 -20 -20 -20 -20 -20 -20 -20 -20 -20 -20 -20
-20 -20 -20 -20 -20 -20 -3 -20 -20 -20 -20 -20 -20 -20 -20 4 15 -19 -20 -20 -20 -20 -20 -20 14 -14 14 -20 -20 -20 -20 -20 -20 -20 -20 -20 -20 -20 -20 -20 -20 -20 -20 -20 -20
-20 -20 -20 -20 -20 -20 -20 -20 -20 -5 -19 -20 -20 -18 11 3 9 -20 -20 -20 -20 -20 -18 -20 -1 15 14 7 -20 -20 -20 -20 -20 -20 -20 -20 -20 -20 -20 -20 -20 -20 -20 -20 -20
-20 -20 -20 -20 -20 -20 -20 -20 -20 -2 -20 -20 -20 7 13 15 -1 -20 -20 -20 -20 -20 -5 -20 14 11 10 4 -20 -20 -20 -20 -20 -20 -20 -20 -20 -20 -20 -20 -20 -20 -20 -20 -20
-8 -20 -20 -20 -20 -20 -20 -20 -20 -20 5 -0 4 -7 -1 -19 -20 -20 -20 -20 -20 -20 4 -20 4 -20 7 1 12 -20 -20 -20 -20 -20 -20 -20 -20 -20 -20 -20 -20 -20 -20 -20 -20
7 -20 -20 -20 -20 -20 -20 -20 -20 -20 -20 -20 18 -4 13 -20 -20 -20 -20 -20 -20 -20 -20 -20 -20 32 -18 12 -20 -20 -20 -20 -20 -20 -20 -20 -20 -20 -20 -20 -20 -20 -20 -20 -20
-3 8 -20 -20 -20 -20 -20 -20 -20 -8 -20 5 5 13 5 -20 -20 -20 -20 -20 -20 -20 -20 -20 -20 27 0 -16 2 12 12 9 -20 -20 -20 -20 -20 -20 -20 -20 -20 -20 -20 -20 -20
-10 11 -9 -20 -20 -20 -20 4 7 1 -8 -20 -16 -2 -11 -20 -20 -20 -20 -20 -20 -20 -20 -20 1 16 21 11 14 15 7 3 -20 -20 -20 -20 -20 -20 -20 -20 -20 -20 -20 -20 -20
-18 7 13 -19 -20 -20 -16 -10 24 8 15 7 -12 9 -20 -20 -20 -20 -20 -20 -20 -12 -0 15 4 20 24 1 -0 11 7 -20 -20 -20 -20 -20 -20 -20 -20 -20 -20 -20 -20 -20 -20
-20 5 -11 13 4 -11 -1 -2 25 20 9 -19 -20 -20 -20 -20 -20 -20 -20 -20 -20 15 19 9 16 18 18 29 -20 -20 -20 -20 -20 -20 -20 -20 -20 -20 -20 -20 -20 -20 -20 -20 -20
-20 7 -12 -1 13 1 14 7 5 6 21 -13 -17 -20 -19 -20 -16 -20 -20 -20 -20 6 20 16 16 -17 27 9 -20 -15 -20 -20 -20 -20 -20 -20 -20 -20 -20 -20 -20 -20 -20 -20 -20
-20 -7 -20 -20 -19 2 21 24 21 26 32 19 -1 14 17 -20 -20 21 -20 -20 -20 1 36 24 16 2 22 35 8 10 -20 -20 -20 -20 -20 -20 -20 -20 -20 -20 -20 -20 -20 -20 -20
-3 -20 -18 13 12 18 21 29 27 31 37 22 16 14 21 28 7 -20 -20 -20 1 -9 33 5 1 -13 32 11 8 8 -20 -20 -20 -12 9 -20 -20 -20 -20 -20 -20 -20 -20 -20 -20
-20 -20 -19 -18 2 2 12 29 30 35 20 5 -8 7 -19 -16 7 -20 -20 -20 -5 24 36 26 18 26 25 15 -20 8 -20 -19 -11 -7 -20 -20 -20 -20 -20 -20 -20 -20 -20 -20 -20
-20 -20 -20 3 9 -15 14 31 29 29 7 10 18 12 16 7 -20 26 -4 -18 12 18 34 12 7 19 30 12 4 -11 -20 -20 -17 -10 -14 -20 -20 -20 -20 -20 -20 -20 -20 -20 -20
15 -9 -16 -20 -15 -1 24 31 29 17 13 26 27 31 13 -9 8 20 10 -5 28 23 28 27 35 -2 10 23 18 6 -10 20 5 5 -15 -20 -20 -20 -20 -20 -20 -20 -20 -20 -20
17 18 8 -20 1 4 31 30 21 19 25 27 24 20 3 9 5 22 10 15 24 14 -19 35 36 36 3 33 11 21 -17 -16 4 -20 -20 -20 -20 -20 -20 -20 -20 -20 -20 -20 -20
25 12 2 -2 19 13 31 23 18 22 19 28 24 11 10 8 -7 20 0 1 24 5 15 33 26 31 6 -19 11 29 -6 -11 -20 -20 -20 -20 -20 -20 -20 -20 -20 -20 -20 -20 -20
14 -9 -20 -20 12 31 35 21 20 16 32 21 -17 -18 -10 9 31 7 -1 -10 -2 -10 26 28 34 30 26 -5 9 -3 -9 -20 -20 -20 -20 -20 -20 -20 -20 -20 -20 -20 -20 -20 -20
3 -17 -13 11 28 29 33 25 15 15 26 7 -20 -20 -20 -12 -1 7 -19 -14 -20 -20 22 27 24 8 -9 12 31 27 8 -20 -20 -20 -20 -20 -20 -20 -20 -20 -20 -20 -20 -20 -20
-20 5 17 17 29 26 27 29 17 24 19 -20 -7 -20 -20 -20 5 -4 -20 5 -20 -20 -19 -19 1 25 -17 4 15 -12 -15 13 -5 -20 -20 -20 -20 -20 -20 -20 -20 -20 -20 -20 -20
-20 2 27 20 17 11 21 30 29 24 -13 -20 -16 -18 -20 -15 -10 -10 -20 11 -20 -20 -20 -20 -20 -20 19 4 -20 -20 -20 -20 -20 -20 -20 -20 -20 -20 -20 -20 -20 -20 -20 -20 -20
-19 7 24 24 14 28 33 33 19 0 -20 8 6 -1 -20 -13 -20 -20 6 -13 -20 -20 -20 -20 -20 -20 -20 -20 -20 -20 -20 -20 -20 -20 -20 -20 -20 -20 -20 -20 -20 -20 -20 -20 -20
-20 -16 -16 15 5 25 34 32 25 14 15 21 -3 -20 -20 -20 -9 -10 1 -20 -20 -20 -1 -20 -20 -20 -20 -20 -20 -20 -20 -20 -20 -20 -20 -20 -20 -20 -20 -20 -20 -20 -20 -20 -20
-20 -20 -20 -20 -20 27 34 35 26 4 11 -2 4 -20 -20 -20 -20 -20 -19 -20 -20 -20 -20 -20 -20 -20 -20 -20 -20 -20 -20 -20 -20 -20 -20 -20 -20 -20 -20 -20 -20 -20 -20 -20 -20
-20 -20 -20 -20 -20 12 30 33 30 27 24 5 12 -9 -20 -20 -20 5 -2 -4 2 -6 -20 -20 -20 -20 -20 -20 -20 -20 -20 -20 -20 -20 -20 -20 -20 -20 -20 -20 -20 -20 -20 -20 -20

GFSSW_prec_radar_015.txt.gz
Reflectivity
-20 -20 -20 -20 -20 -20 -20 -20 -20 -20 9 5 -20 9 20 20 -8 -9 -20 -20 -20 -20 -20 -20 -20 -20 -20 -20 -20 -20 -20 -20 -20 -20 -20 -20 -20 -20 -20 -20 -20 -20 -20 -20 -20
-20 -20 -20 -20 -20 -20 -20 -20 -20 -20 -20 -20 -13 -7 9 8 11 14 -20 -20 -20 -20 -20 -20 -20 -20 8 -20 -20 -20 -20 -20 -20 -20 -20 -20 -20 -20 -20 -20 -20 -20 -20 -20 -20
-20 -20 -20 -20 -20 -20 -20 -20 -20 -20 -20 -20 -20 -19 14 6 12 -19 -20 -20 -20 -20 -20 -20 -20 11 10 -20 -20 -20 -20 -20 -20 -20 -20 -20 -20 -20 -20 -20 -20 -20 -20 -20 -20
-10 -20 -20 -20 -20 -20 -20 -20 -20 -20 -20 -20 -20 -17 -20 -1 -19 -20 -20 -20 -20 -20 -20 -20 -20 -20 4 5 -20 -20 -20 -20 -20 -20 -20 -20 -20 -20 -20 -20 -20 -20 -20 -20 -20
-20 -6 -20 -20 -14 -13 -20 -20 -20 -20 -20 -0 -20 -20 13 10 -9 -20 -20 -20 -20 -20 -20 -20 -20 -20 -12 -13 -6 -20 -20 -20 -20 -20 -20 -20 -20 -20 -20 -20 -20 -20 -20 -20 -20
-20 -1 -20 -20 -20 -20 -20 -20 -20 -20 -20 -20 -15 -14 4 8 -20 -20 -20 -20 -20 -20 -20 -20 -20 -20 -20 -20 -20 -20 -20 -20 -20 -20 -20 -20 -20 -20 -20 -20 -20 -20 -20 -20 -20
-20 -10 -20 -20 -20 -20 -20 -20 -20 -20 -20 -20 13 -6 -2 -20 -20 -20 -20 -20 -20 -20 -20 -20 -20 -20 -18 -12 -20 -20 -20 -20 -20 -20 -20 -20 -20 -20 -20 -20 -20 -20 -20 -20 -20
-20 -20 4 -20 -20 -17 3 -20 -20 -20 -20 -20 -20 15 13 -20 -20 -20 -20 -20 -20 -20 -20 -20 -20 -20 4 7 -20 -11 20 8 -20 -20 -20 -20 -20 -20 -20 -20 -20 -20 -20 -20 -20
-20 -20 -13 -19 -20 -20 -20 -3 12 -20 -12 -20 -20 4 5 -20 -20 -20 -20 -20 -20 -20 -20 -20 -12 9 11 14 11 15 11 6 -6 -20 -20 -20 -20 -20 -20 -20 -20 -20 -20 -20 -20
11 -20 -20 10 -20 -20 12 6 20 16 -14 9 0 14 -20 -20 -20 -20 -20 -20 -20 -20 -20 -15 18 7 11 22 19 6 8 -6 -14 -20 -20 -20 -20 -20 -20 -20 -20 -20 -20 -20 -20
8 -20 -20 -20 -20 -20 10 15 5 17 13 -20 -20 -20 -20 -20 -20 -20 -20 -20 -20 -7 14 -6 19 18 -20 6 16 -20 -15 -20 -20 -20 -20 -20 -20 -20 -20 -20 -20 -20 -20 -20 -20
12 -20 -20 -20 -20 15 17 19 -18 -13 10 -6 -19 -19 -20 -20 -20 -20 -20 -20 1 -1 -14 20 17 -14 -20 -18 23 -5 28 -20 -20 -20 -20 -20 -20 -20 -20 -20 -20 -20 -20 -20 -20
3 -20 -20 -20 6 -5 -3 5 2 14 28 16 -16 -16 18 10 -19 -13 -20 -13 -20 4 6 21 -20 -20 -20 6 21 23 -10 -20 -18 0 -20 -20 -20 -20 -20 -20 -20 -20 -20 -20 -20
-0 -20 -20 8 -18 -20 18 -20 24 24 32 18 4 2 12 23 28 -0 -20 -19 1 7 -20 20 11 26 18 10 22 21 -20 -20 -5 7 -15 -20 -20 -20 -20 -20 -20 -20 -20 -20 -20
12 -16 -20 -20 12 9 -19 -11 18 29 25 -19 5 -13 3 28 13 5 -20 3 12 12 22 20 -9 29 21 25 21 25 23 -12 -16 9 -20 -20 -19 -20 -20 -20 -20 -20 -20 -20 -20
15 9 9 12 -5 21 -20 18 25 27 15 9 3 3 19 17 11 2 -20 -7 -20 13 32 11 26 11 3 33 15 29 11 23 6 -2 -14 -20 -20 -20 -20 -20 -20 -20 -20 -20 -20
16 15 3 -10 -10 -13 -20 23 24 18 17 21 23 23 19 20 21 17 15 18 14 6 34 22 22 19 6 28 31 44 10 29 17 4 -20 -20 -20 -20 -20 -20 -20 -20 -20 -20 -20
14 11 20 -5 13 3 12 25 20 10 3 29 29 29 32 19 9 8 15 19 13 12 41 16 24 31 29 35 39 33 30 23 -17 -2 -20 -20 -20 -20 -20 -20 -20 -20 -20 -20 -20
18 2 27 11 16 -3 17 22 19 16 16 23 30 23 20 1 10 10 -16 9 6 3 43 1 15 22 17 37 36 23 26 8 -20 -20 -20 -20 -20 -20 -20 -20 -20 -20 -20 -20 -20
20 10 13 20 16 25 29 24 25 20 25 22 27 -12 3 0 -9 -1 12 -20 -5 10 8 25 3 24 33 35 17 22 -17 -12 -20 -20 -19 -20 -20 -20 -20 -20 -20 -20 -20 -20 -20
14 20 5 -20 20 28 30 28 25 20 21 30 16 4 8 -20 0 -4 -18 -20 -20 -6 27 39 35 29 27 33 20 32 -1 -20 -20 -20 -14 -20 -20 -20 -20 -20 -20 -20 -20 -20 -20
13 16 -3 0 27 25 26 28 17 18 21 33 6 -20 -20 -18 -6 -6 -10 -20 -20 9 33 38 43 40 26 -16 6 18 30 -19 -20 -20 -20 -20 -20 -20 -20 -20 -20 -20 -20 -20 -20
18 15 22 21 19 18 30 24 25 1 13 17 -20 -20 -20 -18 6 -20 -20 -20 -20 0 18 28 16 32 26 -9 -14 6 -16 -20 -20 -20 -20 -20 -20 -20 -20 -20 -20 -20 -20 -20 -20
21 18 23 21 1 27 28 22 23 -10 1 -20 -15 -20 -20 -20 -20 -20 -20 -20 7 -16 5 21 11 16 11 -16 -20 -20 -14 -20 -20 -20 -20 -20 -20 -20 -20 -20 -20 -20 -20 -20 -20
26 -1 6 17 7 23 31 24 28 16 -14 -20 -3 -20 -20 -20 -20 -7 -20 -1 -8 -12 -16 12 7 -20 -5 -20 -20 12 2 1 -20 -6 -20 -20 -20 -20 -20 -20 -20 -20 -20 -20 -20
22 3 12 7 -20 4 34 28 27 15 -20 18 11 2 -20 -20 -20 -20 -20 8 4 14 -20 -20 4 -20 -20 -20 -20 -20 -20 -20 -20 -20 -20 -20 -20 -20 -20 -20 -20 -20 -20 -20 -20
15 -6 -20 -19 8 7 31 32 11 12 14 -13 11 13 5 -20 -20 -20 -20 -10 -20 -20 -20 -9 -2 -19 5 -20 -20 -20 -20 -20 -20 -20 -20 -20 -20 -20 -20 -20 -20 -20 -20 -20 -20

GFSSW_prec_radar_018.txt.gz
Reflectivity
-20 -20 -3 1 -20 -20 -20 -20 -20 -20 -20 13 15 -7 3 -20 5 -16 -20 -20 -20 -20 -20 -20 -20 -20 -20 -20 -20 -20 -20 -20 -20 -20 -20 -20 -20 -20 -20 -20 -20 -20 -20 -20 -20
-20 -20 -5 -1 -4 -20 -20 -20 -20 -20 -20 -20 -10 5 -18 -20 -14 14 -20 -20 -20 -20 -20 -20 -20 -20 -20 -20 -14 -20 -20 -20 -20 -20 -20 -20 -20 -20 -20 -20 -20 -20 -20 -20 -20
-20 -20 -20 -18 -20 -20 -20 -20 -20 -20 -20 -20 -20 -20 -20 -15 -1 -20 -20 -20 -20 -20 -20 -20 -20 -20 -8 -13 -8 -17 -20 -20 -20 -20 -20 -20 -20 -20 -20 -20 -20 -20 -20 -20 -20
-20 -20 -20 -20 -20 -20 -20 -20 -20 -20 -20 -20 -20 -20 -20 -18 -2 -20 -20 -20 -20 -11 -20 -20 -20 -20 5 -18 -20 10 -20 -20 -20 -20 -20 -20 -20 -20 -20 -20 -20 -20 -20 -20 -20
-20 -20 -20 -20 -20 -20 -20 -20 -20 -20 -20 -20 -20 -20 -20 2 -12 -20 -20 -20 -20 -20 -20 -20 -20 -20 -20 -20 -20 4 6 -20 -20 -20 -20 -20 -20 -20 -20 -20 -20 -20 -20 -20 -20
-20 -20 -20 -20 -20 -20 -20 -20 -20 -20 -20 -20 -20 10 -16 -0 -20 -20 -20 -20 -20 -20 -20 -17 -16 -20 -20 -20 -20 -20 -20 -20 -20 -20 -20 -20 -20 -20 -20 -20 -20 -20 -20 -20 -20
-20 -20 -8 -20 -20 -20 -20 -20 -20 -20 -20 -20 -20 -20 6 -20 -20 -20 -20 -20 -20 -20 -20 -20 -14 -19 -20 -20 -20 -20 -17 7 -20 -20 -20 -20 -20 -20 -20 -20 -20 -20 -20 -20 -20
-20 -20 -20 13 -20 -20 -20 -20 -20 -20 13 -20 -5 3 0 -20 -20 -20 -20 -20 -20 -20 -20 -20 -20 -4 -18 1 -17 15 6 6 -20 -20 -20 -20 -20 -20 -20 -20 -20 -20 -20 -20 -20
-20 -20 -20 -3 -20 -20 -20 -20 -20 6 -19 -20 -20 -4 -19 -20 -20 -20 -20 -20 -20 -20 -20 -20 -20 -4 -6 14 7 11 -20 -20 -20 -20 -20 -20 -20 -20 -20 -20 -20 -20 -20 -20 -20
-20 -17 -11 -20 16 -20 -20 -20 -20 -20 9 5 -20 5 -20 -20 -20 -20 -20 -20 -20 -20 -20 -20 -14 9 -9 10 -17 -19 5 -20 -20 -20 -20 -20 -20 -20 -20 -20 -20 -20 -20 -20 -20
-20 -20 10 -20 -20 15 -20 -20 -20 -20 2 -20 -20 -20 -20 -20 -20 -20 -20 -20 -20 -14 4 -5 4 4 -20 -20 -20 -20 -18 11 -20 -20 -20 -20 -20 -20 -20 -20 -20 -20 -20 -20 -20
-11 -20 -20 -20 -15 17 16 -15 -20 -20 -7 10 -13 -14 -20 -20 -20 -20 -20 -17 -2 4 -15 9 -3 -20 -20 -20 -20 1 -5 -2 1 -20 -16 -20 -20 -20 -20 -20 -20 -20 -20 -20 -20
-5 -20 -20 -20 -5 13 4 -20 -20 -20 28 20 -15 -20 -20 -8 -13 -20 -20 -20 -20 -20 -10 2 -20 -20 -20 -20 6 -13 6 -19 16 -7 -17 -3 -20 -20 -20 -20 -20 -20 -20 -20 -20
-16 2 5 -20 1 -20 -2 -20 -20 3 28 3 4 -11 -20 13 8 -14 19 -13 -10 -19 -20 9 -20 -20 5 -3 -0 6 -20 -17 16 28 15 -8 -20 -20 -20 -20 -20 -20 -20 -20 -20
-10 14 7 -17 6 5 -19 -20 -17 22 10 -17 3 -10 -20 -7 -4 -14 9 32 16 -20 11 2 -20 -20 14 -20 1 -18 6 -20 -15 31 23 -20 -20 -20 -20 -20 -20 -20 -20 -20 -20
1 -5 18 9 -20 -20 -20 -20 4 18 -2 -9 -7 2 14 -3 -8 12 -19 13 17 24 19 -20 23 16 -20 -20 -20 -1 24 31 28 33 17 10 -20 -20 -20 -20 -20 -20 -20 -20 -20
16 1 15 -13 -15 -9 -20 -20 13 5 -9 9 5 8 -7 13 10 22 29 10 9 10 -17 -15 -6 -20 22 5 -3 12 26 40 34 13 12 -20 -20 -20 -20 -20 -20 -20 -20 -20 -20
5 18 23 -10 12 8 -16 11 10 -13 -15 18 14 18 21 7 9 14 33 12 1 -18 -19 9 -19 -13 22 17 19 -1 33 39 32 10 -16 -20 -20 -20 -20 -20 -20 -20 -20 -20 -20
14 20 29 12 18 28 8 2 -17 10 20 30 29 28 7 6 10 -2 15 4 -19 -13 14 9 5 -20 -20 -19 22 14 38 37 28 -20 -20 -20 -20 -20 -20 -20 -20 -20 -20 -20 -20
20 24 21 11 26 32 26 10 5 16 28 29 19 15 -9 -14 -7 13 -4 -20 -20 7 14 18 27 -11 10 10 17 33 25 36 15 -19 4 -20 -20 -20 -20 -20 -20 -20 -20 -20 -20
17 26 17 16 33 34 20 -0 10 24 26 29 13 14 -1 -20 -6 8 -1 -20 -6 -7 11 27 29 24 33 22 27 40 38 36 29 16 8 -20 -20 -20 -20 -20 -20 -20 -20 -20 -20
21 25 10 19 31 27 11 2 25 30 26 22 24 13 -12 5 -20 -3 -19 2 -20 -20 -3 14 32 33 26 7 18 32 31 9 -20 14 15 -19 -20 -20 -20 -20 -20 -20 -20 -20 -20
23 22 19 19 30 4 11 17 33 28 26 23 8 -20 -20 -17 9 -20 -8 -20 -15 12 16 32 31 30 28 37 19 34 12 -20 -20 -20 2 -20 -20 -20 -20 -20 -20 -20 -20 -20 -20
26 25 25 28 19 -3 7 29 33 27 23 19 -7 -13 -20 -20 -20 20 -20 -5 -5 -7 18 26 5 37 32 17 23 1 -6 -18 -20 -20 -20 -20 -20 -20 -20 -20 -20 -20 -20 -20 -20
25 12 11 15 6 -2 19 30 34 31 4 1 -3 -20 -19 -3 -15 -20 -10 4 -6 -9 14 25 34 38 30 -6 -15 18 14 9 -7 -8 -20 -20 -20 -20 -20 -20 -20 -20 -20 -20 -20
24 10 24 16 -20 2 8 28 33 29 20 -20 -20 2 -20 -20 -18 -20 -20 1 -15 -20 -20 -16 20 23 7 -20 -20 -20 -20 -20 -20 -20 -20 -20 -20 -20 -20 -20 -20 -20 -20 -20 -20
20 4 9 3 5 -3 -0 31 26 33 17 -16 -20 -20 8 -20 20 20 -3 5 33 4 -18 6 -18 5 -20 -20 -20 -20 -20 -20 -1 -20 -20 -13 -8 -20 -20 -20 -20 -20 -20 -20 -20

GFSSW_prec_radar_021.txt.gz
Reflectivity
-20 -20 -20 -20 -20 -20 -20 -20 -20 -20 -20 -20 3 5 6 5 6 -20 -20 -20 -20 -20 -20 -20 -20 -20 -20 -20 -20 -20 -20 -20 -20 -20 -20 -20 -20 -20 -20 -20 -20 -20 -20 -20 -20
-20 -20 -20 -20 -20 -20 -20 -20 -20 -20 -20 -20 3 -13 14 12 -16 -6 -20 -20 -20 -20 -20 -20 -20 -20 -20 -20 -20 -20 -20 -20 -20 -20 -20 -20 -20 -20 -20 -20 -20 -20 -20 -20 -20
-20 -20 -20 -20 -20 -20 -20 -20 -20 -20 -20 -20 -20 -20 -5 -16 -7 -20 -20 -20 -20 -15 -20 -20 -20 -20 -20 -20 -20 -20 -20 -20 -20 -20 -20 -20 -20 -20 -20 -20 -20 -20 -20 -20 -20
-20 -20 -15 -20 -20 -20 -20 -20 -20 -20 -20 -1 -20 -20 -20 10 -20 -20 -20 -20 -20 -14 -17 -20 -20 -20 -20 -7 -20 -9 -20 -20 -20 -20 -20 -20 -20 -20 -20 -20 -20 -20 -20 -20 -20
-20 -20 -11 -20 -20 -20 -20 -20 -20 -20 -20 -0 3 -20 -20 4 -10 -20 -20 -20 -20 -20 -2 -20 -20 -20 -20 -20 -20 -20 -20 -20 -20 -20 -20 -20 -20 -20 -20 -20 -20 -20 -20 -20 -20
-20 -20 -20 -16 -20 -20 -20 -20 -20 -20 -20 -20 -20 15 -4 -10 -20 -20 -20 -20 -20 -20 -20 -7 -20 -20 -20 -20 -20 -20 -20 -20 -20 -20 -20 -20 -20 -20 -20 -20 -20 -20 -20 -20 -20
9 -20 -20 -20 -20 -20 -20 -3 -20 -20 -20 -20 -20 -20 -16 -20 -20 -20 -20 -20 -20 -20 -20 -18 8 16 -18 -20 -20 -20 -20 -20 -20 -20 -20 -20 -20 -20 -20 -20 -20 -20 -20 -20 -20
-20 -20 -20 -20 -16 -20 -0 -20 -20 -20 -20 -20 -20 -13 -16 -20 -20 -20 -20 -20 -20 -20 -20 -20 -19 -20 -20 -20 -20 -20 1 -20 -20 -20 -20 -15 -19 -20 -20 -20 -20 -20 -20 -20 -20
0 -20 -20 -20 -17 -12 -20 -20 -20 -20 12 -20 -20 -20 -20 -20 -20 -20 -20 -20 -20 -20 -20 -20 -20 -20 -20 -8 -15 5 -10 -15 -20 -20 -20 -8 -20 -20 -20 -20 -20 -20 -20 -20 -20
17 -18 -20 -20 -20 1 -11 -20 -20 -20 10 10 -20 9 -20 -20 -20 -20 -20 -20 -20 -20 -20 -20 -20 -20 -20 13 -7 -19 -20 -20 -20 -20 -20 -20 -20 -20 -20 -20 -20 -20 -20 -20 -20
13 16 -12 2 -20 -11 -20 -20 -20 -20 13 -20 -20 -20 -20 -20 -20 -20 -20 -20 -20 -20 -20 -20 -20 -2 -20 -20 -20 -20 -20 -20 -20 -5 -20 -20 -20 -20 -20 -20 -20 -20 -20 -20 -20
-16 -15 -8 9 -20 -2 -20 -20 -20 -20 -20 -17 -20 -20 -20 -20 -20 -20 -20 -20 -14 -5 -16 -2 -11 -20 -20 -20 7 -19 -20 -20 -20 -20 18 -7 -13 -20 -20 -20 -20 -20 -20 -20 -20
21 23 11 10 -4 4 -15 -20 -20 -18 2 2 -20 -20 -20 -20 3 -20 -20 -20 -20 -1 -12 -20 -20 -20 -20 -20 -19 -10 -20 -20 -20 -20 -20 -11 -19 -20 -20 -20 -20 -20 -20 -20 -20
19 18 19 8 -19 -20 3 -20 -20 -6 16 1 -16 1 -17 -9 15 7 -4 -20 17 -8 -20 -1 -20 -20 -20 -20 -20 -4 -20 -20 -20 12 5 -0 9 -20 -20 -20 -20 -20 -20 -20 -20
-19 19 8 -2 -20 -20 -20 -20 -18 2 -20 -20 -5 -20 -1 3 3 -20 -19 22 18 -8 14 -8 -20 -20 -20 -20 -5 -17 -20 -20 -6 -12 9 5 23 6 -20 -20 -20 -20 -20 -20 -20
-14 21 15 0 -20 -20 -20 -20 -20 -6 -9 -11 -20 -10 -5 -2 4 -4 -12 10 21 31 33 4 -14 -10 -20 -20 -20 -20 -20 -20 7 15 20 -11 36 11 -20 -20 -20 -20 -20 -20 -20
28 26 11 -14 -9 -19 -20 -20 -20 -17 -20 -6 -4 -9 -9 6 7 10 16 27 30 24 23 16 -15 -20 -20 -17 4 18 9 10 13 12 -12 -19 12 28 -20 -20 -20 -20 -20 -20 -20
19 15 5 19 -3 -14 -19 -20 -18 -20 -20 -20 -12 -18 6 -18 11 2 16 29 13 33 11 10 -17 -20 -20 -20 -17 -16 -19 -7 -8 -20 -20 -20 28 26 -20 -20 -20 -20 -20 -20 -20
38 28 21 27 25 12 -3 7 -20 -20 -19 -6 1 20 3 9 5 0 1 5 -19 -9 -18 -1 -20 -20 -20 -20 -9 24 6 -20 -7 -5 2 32 15 11 -20 -20 -20 -20 -20 -20 -20
32 23 15 27 10 25 26 0 -20 -20 -5 14 5 3 -5 -12 3 9 -20 -20 -20 -20 -20 -18 -8 8 19 35 9 21 -1 3 32 29 16 32 -15 -20 -20 -20 -20 -20 -20 -20 -20
27 23 3 30 23 33 20 2 -20 -12 5 26 14 22 6 -16 -20 -20 -20 -20 -20 -18 5 -8 9 10 29 32 5 21 25 8 11 16 17 1 -20 -20 -20 -20 -20 -20 -20 -20 -20
42 23 19 29 35 33 11 -14 -16 0 27 24 19 18 15 10 -20 -20 -20 -20 -20 -6 -5 -0 32 16 -0 32 3 10 15 22 16 37 15 -20 -20 -20 -20 -20 -20 -20 -20 -20 -20
29 8 21 16 23 26 8 -20 -20 19 22 28 16 -10 -20 10 0 -20 -20 -20 -20 11 12 14 22 5 6 24 9 -9 27 39 39 29 -5 -20 -20 -20 -20 -20 -20 -20 -20 -20 -20
6 20 36 28 21 -10 -5 -3 1 20 32 29 11 10 -15 13 -19 -15 -20 -14 -1 6 4 14 29 14 16 18 9 -4 10 37 42 30 -10 -8 -14 -20 -20 -20 -20 -20 -20 -20 -20
-20 1 19 19 7 -10 20 15 -12 27 26 25 21 12 -20 -20 -20 -20 -20 -3 -3 -3 17 30 39 39 25 0 16 27 35 24 18 13 12 -13 -13 -20 -20 -20 -20 -20 -20 -20 -20
-20 27 6 -18 -20 24 24 2 2 30 25 23 -15 -14 -20 -20 -20 -20 -18 -20 -8 -0 -13 26 39 23 21 -15 7 18 22 19 13 -6 -16 -20 -20 -20 -20 -20 -20 -20 -20 -20 -20
-13 -10 21 -11 -9 25 7 -16 5 30 13 -4 -20 8 -20 -20 -13 -20 -18 -17 -12 9 -20 8 30 24 16 24 9 9 -18 7 8 14 -2 -19 -15 -20 -20 -20 -20 -20 -20 -20 -20

GFSSW_prec_radar_024.txt.gz
Reflectivity
-20 -20 -20 1 -15 -20 -20 -20 -20 -20 -20 -20 -11 9 18 18 13 -17 -20 -20 -20 -20 -20 -20 -20 -20 -20 -20 -20 -20 -20 -20 -20 -20 -20 -20 -20 -20 -20 -20 -20 -20 -20 -20 -20
-20 -20 -4 -3 -1 -20 -20 -20 -20 -20 -20 -20 -17 -15 12 19 -14 -4 -20 -20 -20 -20 -20 -20 -20 -20 -20 -20 -20 -20 -4 -20 -20 -20 -20 -20 -20 -20 -20 -20 -20 -20 -20 -20 -20
-20 -20 -13 -1 -20 -20 -20 -20 -20 -20 -20 -20 -20 -20 -19 -17 -17 -20 -20 -20 -20 -20 -20 -20 -20 -20 -20 -20 -20 -20 -20 -20 -20 -20 -20 -20 -20 -20 -20 -20 -20 -20 -20 -20 -20
-20 -20 -20 -5 -20 -20 -20 -20 -20 -20 -20 -19 -20 -20 -20 -20 -20 -20 -20 -20 -20 -15 -20 -20 -20 -20 -20 -20 -20 -20 -20 -20 -20 -20 -20 -20 -20 -20 -20 -20 -20 -20 -20 -20 -20
-11 -20 -20 -20 -20 -20 -20 -20 -20 -20 -20 -20 -20 -20 -20 -10 -11 -20 -20 -20 -20 -20 -4 -20 -20 -20 -20 -20 -20 -20 -20 -20 -20 -20 -20 -20 -20 -20 -20 -20 -20 -20 -20 -20 -20
-15 -20 -20 -20 -20 -20 -20 -20 -20 -20 -20 -20 -20 -20 -20 -20 -20 -20 -20 -20 -20 -20 -20 4 -20 -20 -20 -20 -20 -20 -20 -20 -20 -20 -20 -20 -20 -20 -20 -20 -20 -20 -20 -20 -20
14 11 -20 -20 -7 -20 -20 -20 -20 -20 -20 -20 -20 -20 -2 -20 -20 -20 -20 -20 -20 -20 -20 -20 -20 -20 10 -20 -20 -20 -20 -20 -20 -20 -20 -20 -20 -20 -20 -20 -20 -20 -20 -20 -20
-1 10 -20 -20 -20 -20 -10 -20 -20 -20 -20 -20 -20 -11 -20 -20 -20 -20 -20 -20 -20 -20 -20 -20 -20 -20 -20 -20 -20 -20 -20 -20 -20 -20 -20 -19 -20 -20 -20 -20 -20 -20 -20 -20 -20
15 11 6 -20 -20 14 -9 -20 -20 -20 -20 -20 -20 -20 -20 -20 -20 -20 -20 -20 -20 -20 -20 -20 -20 -20 -20 -7 -12 -20 -20 -20 -20 -20 -20 -20 -20 -20 -20 -20 -20 -20 -20 -20 -20
15 3 10 -19 -20 -20 8 -20 -20 -20 -20 16 -2 -9 -20 -20 -20 -20 -20 -20 -20 -20 -20 -20 -20 -20 -20 -1 -8 -20 -20 -20 -20 -20 -20 -20 -20 -20 -20 -20 -20 -20 -20 -20 -20
-15 -2 20 -9 -12 2 -20 -20 -20 -20 8 -20 -20 -20 -20 -20 -20 -20 -20 -20 -20 -20 -20 -20 -15 -5 -20 -20 -20 -20 -20 -20 -20 -20 -20 -20 -20 -20 -20 -20 -20 -20 -20 -20 -20
-7 -20 16 12 7 15 -20 -20 -20 -20 -20 -20 -20 -20 -20 -20 -20 -20 -20 -20 -20 -20 -20 -7 2 -20 -20 -20 -20 -20 -20 -20 -20 -20 -20 -20 -20 -20 -20 -20 -20 -20 -20 -20 -20
17 -7 26 22 20 13 -20 -20 -20 -20 -7 -20 -20 -20 -20 7 -16 -20 -20 -20 -20 -14 -20 -20 -20 -20 -20 -20 -20 -13 -13 -11 -2 -20 -20 -20 -20 -20 -20 -20 -20 -20 -20 -20 -20
19 10 23 22 13 -20 -2 -20 -20 -20 -20 -20 -19 -16 -6 13 -3 -20 -18 -15 13 -16 -20 4 -20 -20 -20 -20 -20 -20 -20 -15 8 6 -5 -5 -19 -20 -20 -20 -20 -20 -20 -20 -20
27 22 16 12 -20 -20 -20 -20 -20 -2 -20 -20 -20 -20 3 9 -20 -20 -13 12 19 -19 -1 -1 -20 -20 -20 -20 5 -20 -20 -20 -20 8 10 -20 -12 -20 -20 -20 -20 -20 -20 -20 -20
30 27 32 11 -14 -20 -20 -20 -15 -20 -20 -12 -20 -12 -2 -9 -12 -18 -15 4 24 25 8 -18 -19 -20 -20 -19 -20 -20 6 -20 -20 11 14 -20 -11 -20 -20 -20 -20 -20 -20 -20 -20
36 29 19 31 -18 -20 1 -8 -20 -20 -20 -3 -13 -20 -20 -8 -20 -8 4 19 26 20 17 29 9 -18 -20 11 4 11 15 11 13 10 -20 -20 -20 -20 -20 -20 -20 -20 -20 -20 -20
35 32 16 5 -3 21 9 -12 -20 -20 -20 -20 -20 -13 -20 -20 -19 -5 17 6 9 29 32 12 -4 21 -20 -7 9 11 11 -0 -20 -20 -20 -20 -10 -20 -20 -20 -20 -20 -20 -20 -20
22 31 35 21 6 -9 13 12 -20 -20 -20 -20 7 -7 -0 4 -11 -1 -2 -5 -20 1 2 -2 11 5 -18 6 6 -2 14 -20 -20 -20 11 -20 -20 -20 -20 -20 -20 -20 -20 -20 -20
37 32 37 -4 26 26 18 -12 -20 -20 -14 -16 -20 -14 -20 -2 9 -2 -20 -20 -20 -20 -20 -20 -20 -20 -20 -20 -20 -1 -3 10 4 -4 -16 -20 -20 -20 -20 -20 -20 -20 -20 -20 -20
40 38 33 34 30 26 27 14 -20 -20 -20 -20 -6 10 4 -19 -16 -20 -20 -20 -20 -20 -20 -20 -20 -20 -20 -3 4 8 19 16 -13 -20 20 -20 -20 -20 -20 -3 -1 10 2 -20 -20
38 43 40 19 35 36 21 -8 -20 -20 -20 -9 3 14 8 12 -19 -20 -20 -20 -20 -20 -16 -15 9 -3 -19 18 25 33 19 0 10 -20 14 24 -16 -8 1 -4 -18 15 -20 -20 -20
36 33 42 2 19 28 2 -19 -18 -17 7 22 15 11 -19 14 11 -20 -20 -20 -20 -20 5 24 22 13 -9 22 27 30 11 36 21 13 10 23 7 5 -5 -20 -20 -20 -20 -20 -20
31 31 30 33 16 -3 18 8 -10 -20 10 26 24 15 8 13 -3 -20 -20 -20 -20 -10 15 32 22 4 23 27 7 4 0 7 20 20 23 26 23 -3 -20 -20 -20 -20 -20 -20 -20
36 32 11 24 17 5 -17 -1 -20 -15 20 26 16 13 -12 -16 -20 -20 -20 -20 -20 10 25 29 24 29 19 21 37 15 12 -5 18 27 33 33 24 16 -18 -6 -20 -20 -20 -20 -20
26 26 -20 -20 -5 -1 2 -13 -20 -20 26 28 12 -20 25 -12 -20 -20 -20 -15 -1 7 8 27 30 40 28 9 21 29 38 35 34 35 40 33 13 -20 -20 -20 -20 -20 -20 -20 -20
37 -20 -20 -20 -9 1 -6 -15 -18 -13 -10 23 15 7 -20 -20 -20 -20 -11 3 -1 14 13 27 29 40 31 19 24 35 39 39 34 37 38 32 17 1 3 -16 -20 -20 -20 -20 -20

GFSSW_prec_radar_027.txt.gz
Reflectivity
-17 -20 -20 -20 -15 -4 2 -20 -20 -20 -20 -19 0 -20 19 11 -11 -5 -20 -20 -20 -20 -20 -20 -20 -20 -20 -20 -20 -20 -20 -20 -20 -20 -20 -20 -20 -20 -20 -20 -20 -20 -20 -20 -20
2 -20 -20 -7 -20 -8 -0 -20 -20 -20 -20 -20 -20 -20 -20 17 10 6 -20 -20 -20 -20 -20 -20 -20 -20 -20 -20 -20 -20 -20 -20 -20 -20 -20 -20 -20 -20 -20 -20 -20 -20 -20 -20 -20
1 -19 -20 -19 -1 -20 -20 -20 -20 -20 -20 -20 -20 -14 -16 -8 -20 -19 -20 -20 13 -6 -20 -20 -20 -20 -20 -20 -20 -20 -20 -20 -20 -20 -20 -20 -20 -20 -20 -20 -20 -20 -20 -20 -20
-12 8 -20 -20 2 -20 -20 -20 -20 -20 -20 -6 -20 -20 -20 -20 -20 -20 -20 -20 -20 19 -20 -20 -20 -20 -20 -20 -20 -20 -20 -20 -20 -20 -20 -20 -20 -20 -20 -20 -20 -20 -20 -20 -20
23 9 -20 -20 -7 -16 -20 -20 -20 -20 -20 -20 -20 -20 -20 -20 -20 -20 -20 -20 -20 5 -0 -13 -20 -20 -20 -20 -20 -20 -20 -20 -20 -20 -20 -20 -20 -20 -20 -20 -20 -20 -20 -20 -20
18 8 6 -20 -20 -2 -20 -20 -20 -20 -20 -20 -20 -15 -20 -20 -20 -20 -20 -20 -20 -20 -20 -16 -20 -20 -20 -20 -20 -20 -20 -20 -20 -20 -20 -20 -20 -20 -20 -20 -20 -20 -20 -20 -20
-20 -3 18 -20 -20 2 -20 -20 -20 -20 -20 -20 -20 -20 -19 -20 -20 -20 -20 -20 -20 -20 -20 -20 -20 3 -16 -20 -20 -20 -20 -20 -20 -20 -20 -20 -20 -20 -20 -20 -20 -20 -20 -20 -20
-13 21 -10 -11 -20 -12 -20 11 10 -20 -20 -20 -20 -20 -20 -20 -20 -20 -20 -20 -20 -20 -20 -20 -7 -20 -20 -20 -18 -20 -20 -20 -20 -20 -20 -20 -20 -20 -20 -20 -20 -20 -20 -20 -20
-20 8 5 22 -20 -20 -20 18 -20 -20 -6 -20 -20 -20 -20 -20 -20 -20 -20 -20 -20 -20 -20 -20 -20 -18 -20 9 -5 -20 -20 -20 -20 -20 -20 -20 -20 -20 -20 -20 -20 -20 -20 -20 -20
20 -20 14 -7 9 -20 9 21 -20 -20 -20 18 -8 -20 -20 -20 -20 -20 -20 -20 -20 -20 -20 -20 -18 -15 -2 9 -17 -20 -16 -20 -20 -20 -20 -20 -20 -20 -20 -20 -20 -20 -20 -20 -20
28 -12 20 19 20 6 8 -9 -20 -20 7 -1 -5 -20 -20 -20 -20 -20 -20 -20 -20 -20 -20 -20 -20 -15 -20 -20 -20 -20 -20 -20 -20 -20 -20 -20 -20 -20 -20 -20 -20 -20 -20 -20 -20
19 24 21 23 20 20 -1 -20 -20 -20 -20 -20 -20 -20 -20 -20 -20 -20 -20 -20 -20 -20 -20 -6 -8 -20 -20 -20 -20 -20 -14 -15 -20 -20 -20 -20 -20 -20 -20 -20 -20 -20 -20 -20 -20
-6 31 22 25 20 17 -19 -20 -20 -20 -20 -20 -20 -20 -20 -5 -3 -20 -20 -20 -20 -20 -20 -20 -20 -20 -20 -20 -20 -20 -12 -12 -20 -20 -20 -20 -20 -20 -20 -20 -20 -20 -20 -20 -20
-4 37 31 30 26 5 -14 -20 -20 -20 -20 -20 -20 -20 3 10 -5 -20 -20 -20 -20 -20 -20 -2 -20 -20 -20 -20 -20 -20 -20 -20 -14 11 -5 -20 -16 -20 -20 -20 -20 -20 -20 -20 -20
9 39 39 18 14 -2 -20 -18 -20 -20 -20 -20 -1 -20 9 5 -20 -20 -20 -19 -6 -17 -20 -20 -20 -20 -20 -20 -10 0 -20 -11 11 -20 -15 -20 2 -20 -20 -20 -20 -20 -20 -20 -20
18 39 35 35 21 13 -19 -20 -20 -20 -20 -12 -13 -9 -5 7 3 -12 -6 9 7 16 3 -18 -20 -20 -20 -20 -20 -12 5 7 9 -3 6 -20 -20 -20 -20 -20 -20 -20 -20 -20 -20
8 28 32 28 -9 7 -20 -20 -16 -20 -20 -5 -19 -14 -20 -9 -20 1 -20 5 18 16 11 12 4 -19 -20 -20 -1 7 19 13 13 12 -15 -20 -20 -20 -20 -20 -20 -20 -20 -20 -20
12 36 36 19 31 32 -16 -20 -20 -20 -20 -20 -20 -20 -20 -20 -18 -20 9 -3 7 15 -7 -11 -4 -14 -17 -20 -1 8 12 13 -5 -20 -20 -20 -20 -20 -20 -20 -20 -20 -20 -20 -20
20 38 37 40 25 15 -20 6 -20 -20 -20 -20 -20 -9 -18 -4 -20 -0 8 -11 -14 0 5 -18 -20 -20 -20 -20 -19 30 23 13 7 -11 11 -8 -20 -20 -20 -20 -20 -20 -20 -20 -20
18 21 39 38 32 26 24 -18 -20 -20 -20 -20 -20 -20 -20 -19 -3 0 -13 -20 -20 -20 -20 -20 -15 -20 -20 9 25 28 -6 5 23 13 -19 -20 -20 -20 -20 -20 -20 -20 -20 -20 -20
19 37 21 42 22 29 19 -14 -20 -20 -20 -20 -20 7 -12 -20 -20 -20 -20 -20 -20 -20 -20 -8 -20 -20 -19 -7 -18 9 12 -11 11 -20 -20 -20 -20 -20 -20 -20 -20 -20 -20 -20 -20
6 32 37 33 41 34 20 -20 -20 -20 -20 -20 -19 -3 5 -0 -0 -20 -20 -20 -20 -20 1 -12 -20 -20 -20 -20 -17 -20 -20 -18 -13 -20 -20 -20 -15 -20 -20 -18 -20 -20 -20 -20 -20
15 30 29 40 19 21 22 -20 -20 -11 -19 6 6 5 1 13 8 -20 -20 -20 -20 -20 -20 -15 16 4 5 21 32 33 25 17 -5 12 -17 -20 -20 -20 -20 -20 -20 -20 -20 -20 -14
36 41 40 40 26 -14 -6 -5 -20 -20 -1 20 15 14 13 15 -4 -11 -20 -20 -20 -20 -20 -2 24 4 14 20 35 27 12 9 6 14 1 -11 -3 5 -20 -20 -20 -20 -19 19 -17
40 31 29 32 30 -2 -19 6 -4 7 -18 18 20 2 18 8 -15 -8 -20 -20 -20 -20 17 29 21 24 17 16 21 33 31 5 6 11 15 11 3 20 1 -11 -12 18 7 -11 -20
24 8 21 -0 -10 -8 -19 6 -20 -20 17 5 9 3 5 1 -20 -20 -20 -20 -20 0 24 28 26 26 16 22 11 10 17 6 -10 1 3 -3 0 -18 13 29 16 14 -17 -20 -20
31 2 -11 -6 -3 12 13 -14 -20 -4 -2 -20 13 17 24 2 -20 -20 -20 -20 -7 22 32 26 30 29 13 35 16 16 11 8 15 15 15 28 26 5 -18 13 15 10 -20 -20 -20

GFSSW_prec_radar_030.txt.gz
Reflectivity
-1 -20 -20 -20 -20 -2 -20 -20 -18 -10 -20 -11 6 -6 -20 2 20 -7 -19 -20 -20 -20 -20 -20 -20 -20 -20 -20 -20 -20 -20 -20 -20 -20 -20 -20 -20 -20 -20 -20 -20 -20 -20 -20 -20
11 -6 -20 -20 -20 -17 -14 -20 -20 -15 -20 -20 -20 -12 -20 9 18 15 -20 -20 -20 -20 -20 -20 -20 -20 -20 -20 -20 -20 -20 -20 -20 -20 -20 -20 -20 -20 -20 -20 -20 -20 -20 -20 -20
21 -20 -20 -20 -20 -19 -19 2 -20 -20 -20 -20 -20 -18 -17 -19 -18 -15 -20 -20 -15 22 -20 -20 -20 -20 -20 -20 -20 -20 -20 -20 -20 -20 -20 -20 -20 -20 -20 -20 -20 -20 -20 -20 -20
10 21 -20 -10 -20 -15 -20 -4 -20 -20 -20 -20 -20 -20 -20 -20 -20 -20 -20 -20 -20 -4 -2 -20 -20 -20 -20 -20 -20 -20 -20 -20 -20 -20 -20 -20 -20 -20 -20 -20 -20 -20 -20 -20 -20
-18 10 21 2 -18 -20 -20 -20 -20 -20 -20 -20 2 -4 -18 -20 -20 -20 -20 -20 -20 -3 2 -9 -20 -20 -20 -20 -20 -20 -20 -20 -20 -20 -20 -20 -20 -20 -20 -20 -20 -20 -20 -20 -20
22 11 10 -3 -8 -20 -3 -20 -20 -20 -20 -20 -20 -2 -20 -20 -20 -20 -20 -20 -20 -9 12 -3 -20 -20 -20 -20 -20 -20 -20 -20 -20 -20 -20 -20 -20 -20 -20 -20 -20 -20 -20 -20 -20
18 22 -20 18 12 -14 -5 -20 1 -20 -20 -20 -20 -20 -20 -20 -20 -20 -20 -20 -20 -20 -20 -18 -3 -20 7 -20 -20 -20 -20 -20 -20 -20 -20 -20 -20 -20 -20 -20 -20 -20 -20 -20 -20
32 23 -13 20 10 -4 -20 -20 -10 -17 -20 -20 -13 -20 -20 -20 -20 -20 -20 -20 -20 -20 -20 -20 -20 -20 -20 -20 -20 0 -20 -20 -20 -20 -20 -20 -20 -20 -20 -20 -20 -20 -20 -20 -20
14 33 20 21 21 19 -20 -20 19 -20 -20 -9 -20 -20 -20 -20 -20 -20 -20 -20 -20 -20 -20 -20 -20 -20 -20 0 -12 -10 -20 -20 -20 -20 -20 -20 -20 -20 -20 -20 -20 -20 -20 -20 -20
-6 19 22 22 25 24 -17 -20 13 -20 -20 16 -20 -19 -20 -20 -20 -20 -20 -20 -20 -20 -20 -20 -20 -20 -2 1 -20 -20 -20 -20 -20 -20 -20 -20 -20 -20 -20 -20 -20 -20 -20 -20 -20
11 10 34 24 26 19 11 -20 -16 -20 -20 -20 -20 -20 -20 -20 -20 -20 -20 -20 -20 -20 -20 -20 -20 -20 -20 -20 -20 -20 -18 -20 -20 -20 -20 -20 -20 -20 -20 -20 -20 -20 -20 -20 -20
13 7 25 16 26 21 -15 -20 -20 -20 -20 -20 -20 -20 -20 -20 -20 -20 -20 -20 -20 -20 -20 -20 -13 -20 -20 -20 -20 -20 -17 -19 -20 -20 -20 -20 -20 -20 -20 -20 -20 -20 -20 -20 -20
16 5 15 32 33 32 -1 19 -20 -20 -20 -20 -20 -20 -20 -20 -20 -20 -20 -20 -20 -20 -20 -20 -20 -20 -20 -20 -20 -20 -20 -20 -20 -20 -20 -20 -20 -20 -20 -20 -20 -20 -20 -20 -20
-19 -19 4 36 35 29 25 -10 -20 -20 -20 -20 -10 -20 -20 7 -17 -20 -20 -20 -20 -20 -20 -20 -20 -20 -20 -20 -20 -20 -20 -20 -20 -2 -7 -20 -20 -20 -20 -20 -20 -20 -20 -20 -20
-20 -20 -16 27 34 29 16 24 -20 -20 -20 -20 -3 -20 10 -18 -20 -20 -20 -19 -6 -20 -20 -20 -20 -20 -20 -20 -20 -17 -20 -20 -20 -6 -14 -20 2 -20 -20 -20 -20 -20 -20 -20 -20
-0 -20 -5 18 40 33 21 5 -16 -20 -20 -9 -6 6 7 -5 5 -15 -11 6 -15 10 -7 -20 -20 -20 -20 -20 -20 -13 -2 -1 -12 -1 7 -20 -20 -20 -20 -20 -20 -20 -20 -20 -20
5 -20 3 21 40 35 31 19 -19 -20 -20 -13 -11 2 0 -12 0 6 6 9 7 7 3 5 -5 -13 -19 -20 -20 15 28 9 10 10 -15 -20 -20 -20 -20 -20 -20 -20 -20 -20 -20
27 11 -9 23 38 38 29 10 -20 -20 -20 -20 -19 0 -12 -5 -20 -20 10 7 14 1 8 -9 -20 -5 -20 -20 -20 -20 15 16 -2 -20 -20 -20 -20 -20 -20 -20 -20 -20 -20 -20 -20
23 16 19 27 41 41 28 4 -20 -20 -20 -20 -11 -20 -3 -20 -11 4 3 -20 -20 -6 -2 -15 -20 -20 -20 -20 -20 7 5 3 14 12 15 -19 -20 -20 -20 -20 -20 -20 -20 -20 -20
21 21 24 37 35 40 20 -20 -20 -20 -20 -20 -20 -20 -20 -20 -20 -17 -4 -20 -15 -20 -20 -12 -12 -20 -20 -20 -16 -4 -10 2 17 20 10 -20 -20 -20 -20 -20 -20 -20 -20 -20 -20
17 20 29 43 37 36 31 -20 -20 -20 -20 -20 -20 -20 -20 -20 -20 -18 -20 -20 -20 -20 -20 -7 -10 -20 -10 -8 -20 3 -2 21 8 -1 -20 -20 -20 -20 -20 -20 -20 -20 -20 -20 -20
21 18 24 30 40 36 12 -20 -20 -20 -20 -20 -20 -20 -20 -20 -13 -19 -20 -20 -20 -20 -20 -20 -12 -20 -20 -20 1 6 -18 6 -13 -20 -19 -20 -20 -20 -20 -20 -20 -20 -20 -20 -20
21 27 29 24 22 34 10 -20 -20 -20 -20 -20 -20 -20 -19 5 -2 -20 -20 -20 -20 -20 -20 -20 -5 -20 -20 -17 -1 29 20 20 14 12 13 -5 -20 -20 -20 -20 -20 -20 -20 -20 -20
12 16 42 32 17 2 0 2 -20 -20 -14 -20 -11 -7 4 13 7 -3 -20 -20 -20 -20 -20 -20 0 -20 -20 -6 32 20 13 26 28 22 11 11 -18 -20 -20 -20 -1 -20 -20 -20 -20
-9 -19 22 18 27 -16 -11 -6 22 -17 -15 0 8 16 7 18 -4 15 -20 -20 -20 -20 -20 -20 2 3 -9 18 30 32 23 26 23 22 23 10 2 -20 -20 -0 -20 -20 -20 9 3
-17 23 4 -10 -12 17 -15 6 26 -3 -5 2 8 3 23 14 -17 -20 -20 -20 -20 -20 -20 10 19 24 14 27 29 32 17 30 27 19 28 20 7 -20 -20 -20 -20 -20 -20 17 16
22 28 13 27 9 12 6 7 4 -9 -20 -20 -20 22 26 7 -10 -18 -16 -20 -20 -0 11 29 28 18 10 29 29 31 32 20 6 3 21 15 -10 -4 18 21 7 -16 -15 -2 15

GFSSW_prec_radar_033.txt.gz
Reflectivity
-18 23 -20 -20 -20 -20 -20 3 -20 -8 1 -20 -20 -20 -19 -5 23 -8 -20 -20 -20 -20 -20 -20 -20 -20 -20 -20 -20 -20 -20 -20 -20 -20 -20 -20 -20 -20 -20 -20 -20 -20 -20 -20 -20
-20 -20 -6 -3 -20 -20 -20 -20 -20 -20 -8 -20 -20 -20 -20 -14 15 1 -20 -20 -20 -20 -20 -20 -20 -20 -20 -20 -20 -20 -20 -20 -20 -20 -20 -20 -20 -20 -20 -20 -20 -20 -20 -20 -20
6 3 12 -19 -20 -20 -20 -20 -20 -20 -19 -20 -20 -20 -20 -20 -6 5 -20 -20 10 25 -20 -20 -20 -20 -20 -20 -20 -20 -20 -20 -20 -20 -20 -20 -20 -20 -20 -20 -20 -20 -20 -20 -20
11 19 -9 24 -19 -20 -20 -20 -20 -20 -20 -3 -2 -20 -20 -20 -15 -20 -20 -20 -20 -0 -16 -20 -20 -20 -20 -20 -20 -20 -20 -20 -20 -20 -20 -20 -20 -20 -20 -20 -20 -20 -20 -20 -20
18 8 17 19 10 -20 -20 -20 -20 -20 -20 -20 6 -20 -20 -17 -20 -20 -20 -20 -20 -20 -20 -20 -20 -20 -20 -20 -20 -20 -20 -20 -20 -20 -20 -20 -20 -20 -20 -20 -20 -20 -20 -20 -20
10 21 4 -18 23 2 -20 -20 -20 -20 -20 -20 -20 -20 -20 -20 -20 -20 -20 -20 -20 -13 -2 4 -20 -20 -20 -20 -20 -20 -20 -20 -20 -20 -20 -20 -20 -20 -20 -20 -20 -20 -20 -20 -20
-3 8 23 21 18 21 -9 -20 -20 -20 -20 -20 -20 -20 -20 -20 -20 -20 -20 -20 -20 -18 4 6 -15 -20 -19 -20 -20 -20 -20 -20 -20 -20 -20 -20 -20 -20 -20 -20 -20 -20 -20 -20 -20
-2 9 15 22 16 22 22 -20 -20 -20 -20 -20 -11 -20 -20 -20 -20 -20 -20 -20 -20 -20 -20 -20 -20 8 -12 -20 -20 -18 -19 -20 -20 -20 -20 -20 -20 -20 -20 -20 -20 -20 -20 -20 -20
-7 -20 8 21 22 23 24 14 -20 14 -9 13 -20 -20 -20 -20 -20 -20 -20 -20 -20 -20 -20 -20 -20 -20 -20 -11 -20 -20 -20 -20 -20 -20 -20 -20 -20 -20 -20 -20 -20 -20 -20 -20 -20
-0 -6 -4 14 31 20 22 23 16 -16 -1 -12 -15 -20 -20 -20 -20 -20 -20 -20 -20 -20 -20 -20 -20 -20 -11 -20 -20 -20 -20 -20 -20 -20 -20 -20 -20 -20 -20 -20 -20 -20 -20 -20 -20
-1 5 -20 6 25 33 32 21 -10 -20 0 -20 3 -20 -20 -20 -20 -20 -20 -20 -20 -20 -20 -20 -20 -20 -20 -20 -20 -20 -20 -20 -20 -20 -20 -20 -20 -20 -20 -20 -20 -20 -20 -20 -20
5 5 -3 -2 21 35 32 28 -20 -20 -20 -20 -20 -20 -20 -20 -20 -20 -20 -20 -20 -20 -20 -20 -20 -20 -20 -20 -20 -10 -20 -20 -20 -20 -20 -20 -20 -20 -20 -20 -20 -20 -20 -20 -20
6 -1 17 -20 19 34 35 18 -18 -20 -20 -20 -20 -20 -20 -20 -20 -20 -20 -20 -20 -20 -20 -20 -20 -20 -20 -20 -20 -20 -20 -20 -20 -20 -20 -20 -20 -20 -20 -20 -20 -20 -20 -20 -20
19 -3 15 10 11 22 36 29 -20 -20 -20 -20 -19 -20 -20 5 -15 -20 -20 -20 -20 -20 -20 -20 -20 -20 -20 -20 -20 -20 -20 -20 -20 -9 -8 -20 -20 -20 -20 -20 -20 -20 -20 -20 -20
-18 -20 0 16 6 27 36 34 29 -20 -20 -20 -4 -3 -16 -19 -20 -20 -20 -18 -19 -20 -20 -20 -20 -20 -20 -20 -20 -20 -20 -20 -20 -20 -13 -14 5 -20 -20 -20 -20 -20 -20 -20 -20
23 3 6 7 11 4 33 40 32 -16 -20 -8 -19 10 14 -1 9 -20 -14 7 -20 3 -20 -20 -20 -20 -20 -20 -20 -20 -20 -2 -7 3 9 -20 -17 -20 -20 -20 -20 -20 -20 -20 -20
19 -2 -3 -7 -18 36 41 37 18 -20 -20 4 -13 3 -17 -7 7 6 9 5 -4 -4 -15 -7 -13 -20 -20 -20 -20 -20 17 -16 4 14 -18 -20 -20 -20 -20 -20 -20 -20 -20 -20 -20
37 23 -10 6 -3 40 38 32 -7 -20 -20 -20 -20 7 -1 -4 -18 -7 6 10 1 -1 -16 -20 -20 1 -18 -11 -20 -20 -18 -20 -20 -20 -20 -20 -20 -20 -20 -20 -20 -20 -20 -20 -20
11 -4 -20 -20 1 39 38 26 -15 -20 -20 -20 -6 -12 -19 5 -20 -1 -4 -20 -20 -19 2 -16 -20 -20 -20 -20 -20 9 11 -20 1 -18 14 -20 -20 -20 -20 -20 -20 -20 -20 -20 -20
9 2 25 22 -1 41 28 20 -11 -20 -20 -20 -20 -20 -20 -20 -16 -3 -5 -20 -20 -20 -14 -18 -20 -20 -20 -17 -16 -9 -19 9 9 1 7 -20 -20 -20 -20 -20 -20 -20 -20 -20 -20
12 13 10 17 27 39 32 22 -20 -20 -20 -20 -20 -20 -20 -20 -20 -20 -20 -20 -20 -20 -20 -20 -20 -20 -2 -16 -20 -3 -10 15 -10 1 4 -20 -20 -20 -20 -20 -20 -20 -20 -20 -20
22 14 19 21 31 38 33 4 -20 -20 -20 -20 -20 -20 -20 -20 -20 -20 -20 -20 -20 -20 -20 -20 2 -20 -20 -20 -20 -20 -19 14 21 -3 10 -4 -20 -20 -20 -20 -20 -20 -20 -20 -20
16 32 22 38 19 21 24 -20 -20 -20 -20 -20 -20 -20 -20 -20 -20 -20 -20 -20 -20 -20 -20 -20 -14 -20 -20 -20 -20 -20 1 10 21 25 21 16 -5 -3 16 -18 -20 -20 -20 -20 -20
10 28 31 18 9 9 -8 -20 -20 -20 -20 -20 -20 -20 -20 -4 -20 -18 -19 -20 -20 -20 -20 -20 -7 -20 -20 -20 17 21 13 15 29 25 10 18 7 -19 3 -9 -20 -20 -20 -20 -20
10 4 19 10 6 -18 9 1 -20 -20 -20 -20 -20 -20 -20 3 12 7 -4 -20 -20 -20 -20 -11 0 -20 -20 -20 -2 15 28 32 27 20 25 10 17 -20 -20 -20 -20 -20 -20 -20 -20
16 -3 -4 2 13 1 -20 -20 -20 -20 -20 -20 -20 -20 -3 6 1 -20 -20 -20 -20 -20 -20 -3 2 -11 5 -8 21 31 22 29 32 19 26 6 -1 -11 -20 -20 -20 -20 -20 -20 -20
4 18 13 -12 -11 -7 -20 -20 -18 -12 -20 -20 -20 -20 4 -10 -7 -20 -20 -20 -14 -20 -20 12 20 14 -6 16 22 23 29 21 18 6 7 -7 -20 -20 -20 -18 23 1 19 -20 17

GFSSW_prec_radar_036.txt.gz
Reflectivity
3 3 -3 22 -20 -20 -20 -20 -11 -20 -20 -3 -20 -20 -17 14 21 1 -18 -20 -20 -20 -20 -20 -20 -20 -20 -20 -20 -20 -20 -20 -20 -20 -20 -20 -20 -20 -20 -20 -20 -20 -20 -20 -20
5 9 16 3 11 -20 -20 -20 -20 -20 -20 -20 -20 -20 -20 15 22 7 -20 -20 -20 -20 -20 -20 -20 -20 -20 -20 -20 -20 -20 -20 -20 -20 -20 -20 -20 -20 -20 -20 -20 -20 -20 -20 -20
1 9 12 -8 27 -8 -20 -20 -20 -20 -20 -20 -20 -20 -20 -15 10 2 -20 -18 25 17 -20 -20 -20 -20 -20 -20 -20 -20 -20 -20 -20 -20 -20 -20 -20 -20 -20 -20 -20 -20 -20 -20 -20
-20 -5 15 16 18 26 -20 -20 -20 -20 -20 -20 -14 -20 -20 -1 -3 -20 -20 -20 -1 16 -17 -20 -20 -20 -20 -20 -20 -20 -20 -20 -20 -20 -20 -20 -20 -20 -20 -20 -20 -20 -20 -20 -20
-5 -4 -2 20 8 25 0 -20 -20 -20 -20 -20 -20 -20 -20 -14 -20 -20 -20 -20 -20 4 21 -20 -20 -20 -20 -20 -20 -20 -20 -20 -20 -20 -20 -20 -20 -20 -20 -20 -20 -20 -20 -20 -20
9 -6 -4 9 18 22 23 -20 -20 -20 -20 -20 -20 -20 -20 -20 -20 -20 -20 -20 -20 8 2 5 -20 -20 -20 -20 -20 -20 -20 -20 -20 -20 -20 -20 -20 -20 -20 -20 -20 -20 -20 -20 -20
-11 7 -20 -20 15 24 22 20 -20 -20 -20 -20 -20 -20 -20 -20 -20 -20 -20 -20 -20 -1 20 -18 -20 -0 -20 -20 -20 -20 -20 -20 -20 -20 -20 -20 -20 -20 -20 -20 -20 -20 -20 -20 -20
12 10 -20 -3 2 28 23 24 -20 -20 -20 -20 -20 -20 -20 -20 -20 -20 -20 -20 -20 -20 13 9 2 -6 -18 -20 -20 -20 -20 -20 -20 -20 -20 -20 -20 -20 -20 -20 -20 -20 -20 -20 -20
5 14 -20 11 16 19 30 27 18 -20 -20 -20 -20 -20 -20 -20 -20 -20 -20 -20 -20 -20 -20 -20 -20 -4 -20 -20 -20 -20 -20 -20 -20 -20 -20 -20 -20 -20 -20 -20 -20 -20 -20 -20 -20
-20 -1 -12 -1 -1 24 32 30 30 16 13 12 -10 -20 -20 -20 -20 -20 -20 -20 -20 -20 -20 -20 -20 -20 -20 -20 -20 -20 -20 -20 -20 -20 -20 -20 -20 -20 -20 -20 -20 -20 -20 -20 -20
18 2 -11 20 -18 16 31 41 28 -1 -15 -20 -20 -20 -20 -20 -20 -20 -20 -20 -20 -20 -3 -20 -3 -20 -20 -20 -20 -20 -20 -20 -20 -20 -20 -20 -20 -20 -20 -20 -20 -20 -20 -20 -20
28 -19 4 -19 18 8 32 44 19 -20 -20 -20 -20 -20 -20 -20 -20 -20 -20 -20 -20 -20 -20 -20 -20 -20 -20 -20 -20 -18 -17 -18 -20 -20 -20 -20 -20 -20 -20 -20 -20 -20 -20 -20 -20
16 -20 -17 9 7 -5 26 35 29 -13 -20 -20 -20 -20 -20 -20 -20 -20 -20 -20 -20 -20 -20 -20 -20 -20 -20 -20 -16 -13 -20 -20 -20 -20 -20 -20 -20 -20 -20 -20 -20 -20 -20 -20 -20
-15 2 3 11 -3 -7 22 16 40 31 13 -20 -14 -20 -20 -20 -20 -20 -20 -20 -20 -20 -20 -19 -20 -20 -20 -20 -20 -20 -20 -20 -20 -15 -20 -20 -20 -20 -20 -20 -20 -20 -20 -20 -20
33 39 25 26 5 -4 21 25 37 37 -0 -20 6 -10 -3 -20 -20 -18 -20 -20 -20 -20 -20 -20 -20 -20 -7 -20 -20 -20 -20 -20 -20 -19 -6 -20 2 -20 -20 -20 -20 -20 -20 -20 -20
21 13 21 21 -11 -10 26 37 39 30 -17 8 10 14 13 -1 -6 -7 -12 2 -16 -18 -20 -20 -20 -20 -20 -20 -20 -20 -11 -8 0 7 7 -20 -8 -20 -20 -20 -20 -20 -20 -20 -20
15 34 17 2 -19 12 31 33 33 17 -20 8 -9 15 5 3 14 2 3 11 3 8 9 -17 -8 -20 -20 -4 -20 2 12 2 7 10 -20 -20 -20 -20 -20 -20 -20 -20 -20 -20 -20
24 5 21 -20 18 13 42 31 15 6 -20 -3 5 1 9 -18 3 -6 9 7 7 -3 -17 1 -20 -11 -20 -17 -4 -17 6 -17 -20 -20 -20 -20 -20 -20 -20 -20 -20 -20 -20 -20 -20
24 -16 19 -18 9 24 33 24 11 -20 -20 -19 -3 -8 -17 -15 -20 1 -4 -7 -20 -20 -10 -1 -20 -20 -20 -20 -20 10 -6 -19 4 6 9 -20 -20 -20 -20 -20 -20 -20 -20 -20 -20
19 -3 16 -19 14 23 33 31 3 -12 -18 -20 -20 -20 -20 -18 -13 -20 -20 -20 -20 -20 -20 -4 -10 -20 -20 -19 -14 -1 -12 7 11 -2 -19 -20 -20 -20 -20 -20 -20 -20 -20 -20 -20
3 14 26 20 28 21 34 27 -2 -18 -20 -20 -20 -20 -20 -20 -20 -20 -20 -20 -20 -20 -1 -3 -20 -20 -14 -12 -20 4 11 5 -10 5 -4 -20 -20 -20 -2 -20 -20 -20 -20 -20 -20
5 34 11 26 21 31 34 24 15 -20 -20 -20 -20 -20 -20 -20 -20 -20 -20 -20 -20 -20 -19 -20 4 2 -19 -20 -20 -20 -20 -20 12 -11 16 7 -16 13 12 -20 -20 -20 -20 -20 -20
28 37 18 -17 2 12 34 11 -4 -20 -20 -20 -20 -20 -20 -20 -20 -20 -20 -20 -20 -20 -20 -9 -3 -20 -20 -20 -20 -20 -20 -3 11 24 17 16 10 21 13 16 -19 -20 -20 -20 -20
37 32 20 -19 -9 -12 17 15 1 -20 -20 -20 -20 -20 -20 -20 -20 -9 -20 -20 -20 -20 -20 -20 -2 -20 -20 -20 2 7 5 23 30 23 8 11 -18 -0 21 10 -19 -20 -20 -20 -20
1 1 -9 11 5 -20 -3 -4 1 -20 -20 -20 -20 -20 -20 -20 -20 6 -17 -20 -20 -12 -20 -20 3 -20 -20 -20 -20 1 -2 4 22 27 18 9 21 -1 7 25 -20 -20 -20 -20 -20
22 17 -3 -7 -20 3 2 -20 -19 -20 -20 -20 -20 -20 -20 -20 -20 -8 -20 -20 -8 -20 -13 -16 2 7 -20 -19 4 -11 11 28 20 21 27 2 -10 -11 -20 -20 -20 -20 -20 -20 -20
0 6 14 17 -17 4 -20 -20 -20 -20 -20 -20 -20 -20 -17 -20 -20 -15 -1 -20 -18 3 -13 -8 -17 14 5 15 -20 5 28 15 1 -4 8 -6 -20 -20 -20 -20 -14 -9 8 16 -18

GFSSW_prec_radar_039.txt.gz
Reflectivity
6 8 6 10 7 12 -20 -20 -20 -20 -20 -20 -20 -20 -20 -16 5 12 9 -5 -20 -20 -20 -20 -20 -20 -20 -20 -20 -20 -20 -20 -20 -20 -20 -20 -20 -20 -20 -20 -20 -20 -20 -20 -20
-20 -9 -3 -0 17 22 -15 -20 -20 -20 -20 -20 -20 -20 -20 -20 13 3 -20 -20 -20 -20 -20 -20 -20 -20 -20 -20 -20 -20 -20 -20 -20 -20 -20 -20 -20 -20 -20 -20 -20 -20 -20 -20 -20
5 -12 -9 7 9 -2 28 2 -20 -20 -20 -20 -20 -20 -20 -20 19 -17 -20 -20 2 -20 -20 -20 -20 -20 -20 -20 -20 -20 -20 -20 -20 -20 -20 -20 -20 -20 -20 -20 -20 -20 -20 -20 -20
15 11 -20 -8 7 10 20 25 -20 -20 -20 -20 -20 -20 -20 7 13 -12 -20 -20 19 -19 0 -20 -20 -20 -20 -20 -20 -20 -20 -20 -20 -20 -20 -20 -20 -20 -20 -20 -20 -20 -20 -20 -20
-9 8 4 -20 -2 3 18 29 -16 -20 -20 -20 -20 -20 -20 -19 -6 -20 -20 -20 -20 -5 -7 -1 -20 -20 -20 -20 -20 -20 -20 -20 -20 -20 -20 -20 -20 -20 -20 -20 -20 -20 -20 -20 -20
-3 -0 -12 7 -11 -20 1 17 19 -20 -20 -20 -20 -20 -20 -20 -20 -20 -20 -20 -20 16 11 -9 -15 -20 -20 -20 -20 -20 -20 -20 -20 -20 -20 -20 -20 -20 -20 -20 -20 -20 -20 -20 -20
-13 -0 7 -18 -20 -10 17 21 26 5 -20 -20 -20 -20 -20 -20 -20 -20 -20 -20 -20 -20 20 -11 8 -17 -20 -20 -20 -20 -20 -20 -20 -20 -20 -20 -20 -20 -20 -20 -20 -20 -20 -20 -20
-20 -20 -19 13 -12 -7 18 26 32 13 -20 -20 -20 -20 -20 -20 -20 -20 -20 -20 -20 -20 -20 -20 -20 -20 -19 -14 -20 -20 -20 -20 -20 -20 -20 -20 -20 -20 -20 -20 -20 -20 -20 -20 -20
-20 -20 -12 -1 -2 -20 8 7 35 12 -19 -20 -20 -20 -20 -20 -20 -20 -20 -20 -20 -20 8 -20 -20 -7 -20 -9 -11 -20 -20 -20 -20 -20 -20 -20 -20 -20 -20 -20 -20 -20 -20 -20 -20
-20 -20 -20 15 -14 -20 4 9 35 35 14 5 -11 -20 -20 -20 -20 -20 -20 -20 -20 -20 -2 -8 -20 2 -6 5 -17 -20 -20 -20 -20 -20 -20 -20 -20 -20 -20 -20 -20 -20 -20 -20 -20
-19 -2 24 -20 -3 10 -17 23 39 39 22 -20 -4 -20 -20 -20 -20 -20 -20 -20 -20 -8 -20 -20 -20 -20 -20 -20 -20 -20 -20 -20 -20 -20 -20 -20 -20 -20 -20 -20 -20 -20 -20 -20 -20
10 -9 -20 6 -2 -4 -17 21 39 28 17 -9 -10 -12 -20 -20 -20 -20 -20 -20 -1 6 -20 -11 -13 -20 -20 -20 -20 -20 -20 -20 -20 -20 -20 -20 -20 -20 -20 -20 -20 -20 -20 -20 -20
5 14 21 -13 19 -11 -12 20 36 34 31 -4 -20 -20 -20 -20 -20 -20 -20 -20 -20 1 -14 -8 -20 -20 -20 -20 -20 -20 -20 -20 -20 -20 -20 -20 -20 -20 -20 -20 -20 -20 -20 -20 -20
15 29 30 25 10 -14 15 21 36 38 31 5 3 -20 -18 -20 -20 -20 -20 -20 -20 -5 -1 1 -20 -20 -20 -20 -20 -20 -20 -20 -20 -20 -20 -20 -20 -20 -20 -20 -20 -20 -20 -20 -20
-20 20 20 20 37 17 -7 18 28 35 24 -19 -12 -14 -20 -20 -20 -6 -20 -19 -20 -20 -20 -20 -20 -20 -20 -20 -20 -20 -20 -20 -20 -20 -19 -20 -20 -20 -20 -20 -20 -20 -20 -20 -20
0 4 18 25 16 -3 0 21 29 31 22 9 7 -6 -10 -20 -5 3 -12 -12 -20 -20 -9 -20 -20 -20 -20 -20 -20 -20 -20 -16 -20 -20 1 -20 -20 -20 -20 -20 -20 -20 -20 -20 -20
-19 5 14 18 15 5 25 28 27 22 5 -6 5 2 -2 -19 6 9 9 9 -12 -1 2 -20 -20 -20 -20 -20 -20 -16 -18 -9 -2 2 -20 -20 -20 -20 -20 -20 -20 -20 -20 -20 -20
19 -3 23 24 20 -11 39 29 21 11 -13 -20 8 12 9 -12 -1 3 8 1 -12 -20 -20 -19 -6 -20 -20 -20 -11 -8 1 -19 -20 -20 -20 -20 -20 -20 -20 -20 -20 -20 -20 -20 -20
10 -18 22 0 25 1 28 13 33 -20 -20 -18 12 12 10 5 -2 10 8 1 -7 -19 -20 -20 -13 -20 -20 -5 -20 -3 -8 -19 0 -20 -20 -20 -20 -20 -20 -20 -20 -20 -20 -20 -20
16 0 25 -5 23 27 16 38 -6 -20 -4 -11 -7 -17 1 7 2 -12 3 -20 -20 -20 -20 -11 -13 -20 -19 -16 -15 -20 -19 -10 -9 -2 -20 -20 -20 -20 -20 -20 -20 -20 -20 -20 -20
7 38 25 23 21 25 25 27 -8 -16 -17 -6 -20 -20 -20 -13 -18 -20 -20 -20 -20 -20 -20 -20 -15 -20 -20 -20 -20 -13 -1 -0 -11 -10 -16 -20 -20 -20 7 11 -3 -20 -20 -20 -20
12 26 17 -9 13 27 23 20 -2 -14 -9 -20 -13 -20 -20 -20 -20 -19 -1 -20 -20 -20 -19 -20 5 -19 -20 -20 -20 -20 -19 -19 7 -20 12 2 -15 -20 6 2 -20 -4 5 -20 -20
26 16 17 32 16 35 27 22 9 -4 -20 -20 -20 -20 -20 -20 -18 -11 -20 -20 -20 -20 -20 -20 -0 -20 -20 -18 -20 -20 -20 -19 11 23 16 11 -3 14 8 -20 -20 -19 15 -5 -20
19 27 1 17 26 25 27 8 -12 11 -10 -20 -20 -20 -20 -20 -20 -20 -20 -20 -20 -20 -20 -18 -5 -20 -20 -20 -20 -10 -20 8 31 21 -13 -5 -14 -20 -8 21 21 6 -2 -17 -20
7 3 -1 -17 5 13 15 -20 3 -19 -20 -20 -20 -20 -20 -20 -20 -20 -17 -20 -14 -20 -20 -19 -2 -12 -20 -20 -20 -19 7 -20 10 16 22 12 -5 -20 -11 3 -10 -20 -20 -20 -20
13 17 5 -2 -10 5 -3 -3 21 -20 -20 -20 -20 -20 -20 -20 -20 -20 0 -20 -20 -20 -20 -7 3 -16 -20 -20 -13 -3 -17 -1 22 20 21 7 -4 -20 -20 -20 -20 12 -0 4 -20
1 -9 5 -19 3 4 -20 9 3 -20 -20 -20 -20 -20 -20 -20 -20 -20 -20 -20 -6 -15 -18 9 2 6 -20 -20 -20 -10 -1 -4 -0 16 17 -11 -20 -20 -20 -14 9 2 -12 -20 -18

GFSSW_prec_radar_042.txt.gz
Reflectivity
13 7 -20 -20 4 13 -6 21 -20 -20 -20 -2 -20 -20 -20 -20 -20 -3 -8 -20 -20 -20 -20 -20 -20 -20 -20 -20 -20 -20 -20 -20 -20 -20 -20 -20 -20 -20 -20 -20 -20 -20 -20 -20 -20
-20 -14 -15 -20 -18 12 13 24 -5 -20 -20 -20 -20 -20 -20 -20 8 -6 -20 -15 9 -16 -20 -20 -20 -20 -20 -20 -20 -20 -20 -20 -20 -20 -20 -20 -20 -20 -20 -20 -20 -20 -20 -20 -20
-20 -6 15 9 -20 -18 6 9 25 4 -20 -20 -20 -20 -20 -18 -1 -20 -20 -16 -20 -20 -20 -20 -20 -20 -20 -20 -20 -20 -20 -20 -20 -20 -20 -20 -20 -20 -20 -20 -20 -20 -20 -20 -20
-20 -20 2 17 7 -8 -14 -3 24 19 -15 -20 -20 -20 -20 -20 1 -20 -20 -20 -0 -17 -20 -2 -20 -20 -20 -20 -20 -20 -20 -20 -20 -20 -20 -20 -20 -20 -20 -20 -20 -20 -20 -20 -20
-20 -20 6 10 11 8 -16 -4 3 25 8 -20 -20 -20 -20 -6 -7 -20 -20 -17 -3 27 16 -8 -20 -20 -20 -20 -20 -20 -20 -20 -20 -20 -20 -20 -20 -20 -20 -20 -20 -20 -20 -20 -20
-12 1 13 -20 8 10 -20 7 -12 26 30 -20 -20 -20 -20 -20 -20 -20 -20 -20 -20 -12 24 18 -20 -20 -20 -20 -20 -20 -20 -20 -20 -20 -20 -20 -20 -20 -20 -20 -20 -20 -20 -20 -20
-20 -12 4 -20 -19 9 4 8 5 23 31 7 -20 -20 -20 -20 -20 -18 -20 -20 -20 -20 23 21 -10 -20 -20 -20 -20 -20 -20 -20 -20 -20 -20 -20 -20 -20 -20 -20 -20 -20 -20 -20 -20
-20 4 -20 -20 -20 -3 -4 0 5 29 27 11 -20 -20 -20 -20 -20 -20 -20 -20 -19 -17 -20 29 22 -3 -13 -16 -20 -20 -20 -20 -20 -20 -20 -20 -20 -20 -20 -20 -20 -20 -20 -20 -20
-6 -20 -14 -20 24 20 -20 -4 -15 21 34 31 -16 -16 -20 -20 -20 -20 -20 -20 -20 -20 -20 -20 -8 -17 -9 -12 -11 -20 -20 -20 -20 -20 -20 -20 -20 -20 -20 -20 -20 -20 -20 -20 -20
-16 -20 10 12 -17 10 19 -20 2 29 36 35 12 -17 -20 -20 -20 -20 -20 -20 -20 2 8 4 7 -20 -12 -1 -18 -20 -20 -20 -20 -20 -20 -20 -20 -20 -20 -20 -20 -20 -20 -20 -20
-10 18 -14 -20 -16 2 -20 -20 -9 37 37 31 -20 -20 -20 -20 -20 -20 -20 -20 -20 8 -2 -20 -20 5 -20 -3 -20 -20 -20 -20 -20 -20 -20 -20 -20 -20 -20 -20 -20 -20 -20 -20 -20
-13 7 19 17 18 15 18 -18 29 37 36 34 3 -20 -20 -20 -20 -20 -20 -20 -20 -9 -20 -20 -20 -20 -20 -20 -20 -20 -20 -20 -20 -20 -20 -20 -20 -20 -20 -20 -20 -20 -20 -20 -20
0 3 16 32 15 -5 -11 -13 16 35 36 31 18 -1 -18 -20 -20 -20 -20 -20 -20 -20 -11 -18 -20 -20 -20 -20 -20 -20 -20 -20 -20 -20 -20 -20 -20 -20 -20 -20 -20 -20 -20 -20 -20
9 3 8 25 29 21 -20 -20 18 38 27 32 29 7 -20 -20 -20 -20 -20 -20 -20 -18 -16 -20 -20 -20 -20 -20 -20 -20 -20 -20 -20 -20 -20 -20 -20 -20 -20 -20 -20 -20 -20 -20 -20
5 5 -8 25 20 19 25 3 24 38 11 33 17 -10 -20 -20 -20 -20 -20 -20 -20 -20 -20 -20 -20 -20 -20 -20 -20 -20 -20 -20 -20 -20 -20 -20 -20 -20 -20 -20 -20 -20 -20 -20 -20
-14 -20 10 4 18 -20 22 19 27 26 18 35 22 -7 6 7 -10 -20 -20 -20 -20 -20 -20 -20 -20 -20 -20 -20 -20 -20 -20 -20 -20 -20 -20 -20 -20 -20 -20 -20 -20 -20 -20 -20 -20
3 -10 -3 15 6 10 19 22 16 19 31 15 3 -7 -16 5 7 -6 -10 -15 -20 -20 -14 -20 -20 -20 -20 -20 -20 -20 -20 -20 -16 -10 -20 -20 -20 -20 -20 -20 -20 -20 -20 -20 -20
9 2 -20 19 23 -10 32 17 1 8 34 -1 10 -1 7 5 9 8 5 -17 -20 -20 -20 -20 -20 -20 -20 -20 -20 -20 -13 -20 -20 -20 -20 -20 -20 -20 -20 -20 -20 -20 -20 -20 -20
-7 -16 22 22 20 -20 20 -2 11 10 10 4 13 11 6 -6 -14 9 -1 0 -20 -20 -10 -18 -19 -20 -20 -20 -20 -17 -13 -20 -18 -20 -20 -20 -20 -20 -20 -20 -20 -20 -20 -20 -20
16 -7 23 27 -20 -4 22 18 31 4 -14 5 3 2 -4 -16 3 9 9 -14 -20 -20 -20 -11 -11 -20 -19 -20 -20 -20 -20 -20 -12 -20 -20 -20 -20 -20 -20 -20 -20 -20 -20 -20 -20
-14 6 23 -17 -8 -5 16 25 31 7 -6 3 -20 -20 -20 0 -15 -19 -20 -20 -20 -20 -20 -20 -20 -20 -20 -20 -20 -20 -16 -18 -17 -19 -20 -20 -20 -20 -20 -20 -20 -15 -5 -18 -6
12 18 24 3 -2 -7 7 36 29 -3 -20 -20 -20 -20 -20 -20 -19 -20 -20 -20 -20 -20 -20 -20 -11 -19 -20 -20 -20 -20 -20 -20 -14 -20 -20 -20 -20 -20 -20 -20 -20 -20 -20 -20 -20
1 -1 14 18 -9 7 26 32 -20 -5 -0 -15 -15 -20 -20 -20 -19 -20 -20 -20 -20 -20 -6 -20 -20 -20 -20 -20 -20 -20 -20 -20 -18 -14 -16 -20 -20 -20 -20 -20 7 22 -19 -20 -20
-18 22 -2 14 26 34 25 18 1 5 1 -20 -20 -20 -20 -20 -20 -20 -20 -20 -20 -20 -1 -20 -11 -20 -20 -20 -20 -20 -20 -20 3 5 -20 -20 -20 -20 -20 -20 -20 -20 -18 -15 -10
0 -4 -15 8 28 27 24 24 -14 -19 -20 -20 -5 -7 -18 -20 -20 -20 -20 -20 -20 -20 -20 -20 -20 -20 -20 -20 -20 -20 -20 -13 25 2 10 -8 -1 -20 -20 -20 -20 5 -6 -20 -20
-20 -7 -16 -19 -19 19 10 -10 13 -20 2 -20 -20 -20 -20 -18 -20 -20 -20 -20 -20 -20 -20 -8 -20 -20 -20 -20 -20 -20 -20 -20 -20 -20 -15 -17 -9 -20 -20 -20 3 35 -6 -20 7
-20 -15 -1 -18 -18 -20 7 -11 -9 -15 -20 -20 -20 -20 -20 -20 -20 -20 -20 -20 -20 -20 -20 -11 -17 -20 -20 -20 -20 -20 -20 -20 -20 -20 8 13 -10 -3 -17 4 28 18 23 10 -13

GFSSW_prec_radar_045.txt.gz
Reflectivity
-20 -20 -16 16 12 6 14 10 9 24 -20 -20 -20 -20 -20 -20 -17 1 -18 -20 -20 -20 -20 -20 -20 -20 -20 -20 -20 -20 -20 -20 -20 -20 -20 -20 -20 -20 -20 -20 -20 -20 -20 -20 -20
-20 -20 -20 -20 12 -17 -16 4 4 13 2 -20 -20 -20 -20 1 -4 5 -20 -20 -20 -20 -5 -20 -20 -20 -20 -20 -20 -20 -20 -20 -20 -20 -20 -20 -20 -20 -20 -20 -20 -20 -20 -20 -20
1 -20 -5 -20 17 17 1 14 8 -5 24 -20 -20 -20 -20 -1 14 -20 -20 -20 -3 2 -20 -20 -20 -20 -20 -20 -20 -20 -20 -20 -20 -20 -20 -20 -20 -20 -20 -20 -20 -20 -20 -20 -20
-16 -20 14 12 15 19 15 9 11 12 16 8 -7 -20 1 -20 -20 -20 -20 -20 -12 -7 -20 -20 -20 -20 -20 -20 -20 -20 -20 -20 -20 -20 -20 -20 -20 -20 -20 -20 -20 -20 -20 -20 -20
-1 -8 -1 10 6 -20 0 13 12 12 -11 27 20 -20 -2 9 -10 -20 -20 -20 -10 12 -20 -20 -20 -20 -20 -20 -20 -20 -20 -20 -20 -20 -20 -20 -20 -20 -20 -20 -20 -20 -20 -20 -20
-20 -20 -20 -0 -20 -20 -20 0 6 12 -2 27 27 7 -20 -19 -20 -20 -20 -13 5 22 -20 11 -20 -20 -20 -20 -20 -20 -20 -20 -20 -20 -20 -20 -20 -20 -20 -20 -20 -20 -20 -20 -20
18 14 -20 -20 -16 -20 6 -1 7 1 8 30 18 -3 -16 -20 -20 -20 -20 -20 -20 1 22 -11 -7 -20 -20 -20 -20 -20 -20 -20 -20 -20 -20 -20 -20 -20 -20 -20 -20 -20 -20 -20 -20
-9 -0 -18 13 -8 5 -11 -20 -20 -20 14 36 23 -6 -15 -20 -20 -20 -20 -20 -20 -20 -20 16 19 -20 -20 -20 -20 -20 -20 -20 -20 -20 -20 -20 -20 -20 -20 -20 -20 -20 -20 -20 -20
-20 12 -0 -13 21 -20 8 22 -20 -20 20 36 25 1 -17 -20 -20 -20 -20 -20 -20 -2 -20 17 30 26 -20 -20 -20 -20 -20 -20 -20 -20 -20 -20 -20 -20 -20 -20 -20 -20 -20 -20 -20
13 -8 16 7 22 20 -13 -20 -20 -20 25 42 26 10 -6 -20 -20 -20 -20 -20 -20 -20 19 16 13 14 28 4 -10 -20 -20 -20 -20 -20 -20 -20 -20 -20 -20 -20 -20 -20 -20 -20 -20
17 -20 1 0 -14 18 -13 -20 -20 0 27 31 18 -20 -20 -20 -20 -20 -20 -20 11 -10 -20 -0 -13 -0 -1 -20 -20 -20 -20 -20 -20 -20 -20 -20 -20 -20 -20 -20 -20 -20 -20 -20 -20
6 -5 10 9 22 23 7 -20 -20 5 20 24 26 24 2 -20 -20 -20 -20 -20 5 -7 -20 -20 -3 -20 -20 -14 -20 -20 -20 -20 -20 -20 -20 -20 -20 -20 -20 -20 -20 -20 -20 -20 -20
-2 10 6 10 -3 31 30 -20 0 23 28 24 33 17 -19 -20 -20 -20 -20 -20 -20 1 -20 -20 -20 -20 -20 -20 -20 -20 -20 -20 -20 -20 -20 -20 -20 -20 -20 -20 -20 -20 -20 -20 -20
-16 -16 -2 -15 12 -7 12 -20 8 24 23 32 29 24 -18 -6 -20 -20 -20 -20 -11 -20 4 -20 -20 -20 -20 -20 -20 -20 -20 -20 -20 -20 -20 -20 -20 -20 -20 -20 -20 -20 -20 -20 -20
-20 11 6 11 -16 14 19 -20 5 20 21 30 30 20 -16 -18 -20 -20 -20 -20 -16 -20 -20 -20 -20 -20 -20 -20 -20 -20 -20 -20 -20 -20 -20 -20 -20 -20 -20 -20 -20 -20 -20 -20 -20
-20 -17 13 3 0 -10 15 2 12 9 23 36 22 17 12 -2 -18 -20 -20 -20 -20 -11 -20 -20 -20 -20 -20 -20 -20 -20 -20 -20 -20 -20 -20 -20 -20 -20 -20 -20 -20 -20 -20 -20 -20
-0 11 18 23 8 -15 -18 10 -6 -0 37 29 22 -1 13 8 -20 -20 -12 -20 -20 -20 -20 -20 -20 -20 -20 -20 -20 -20 -20 -20 -20 -19 -20 -20 -20 -20 -20 -20 -20 -20 -20 -20 -20
-1 5 17 19 -14 -14 -6 -7 11 5 15 15 10 -6 16 8 6 -3 -20 -20 -20 -20 -20 -20 -20 -20 -20 -20 -20 -20 -20 -20 -20 -20 -20 -20 -20 -20 -20 -20 -20 -20 -20 -20 -20
6 16 18 5 14 -4 -8 11 -2 31 20 25 11 -12 5 5 -15 -10 -18 -20 -20 -20 -20 -20 -20 -20 -20 -20 -20 -20 -20 -20 -20 -20 -20 -20 -20 -20 -20 -20 -20 -20 -20 -20 -20
-20 -20 -20 -7 -20 -17 13 19 28 29 2 -19 -0 -11 7 10 -5 3 3 -20 -20 -20 -20 -20 -20 -20 -20 -15 -20 -20 -20 -20 -20 -20 -20 -20 -20 -20 -20 -20 -20 -20 -20 -20 -20
-20 -10 8 2 -17 7 19 22 33 26 23 9 -20 -6 -20 -2 -4 -6 -20 -20 -20 -20 -20 -20 -20 -13 -20 -19 -20 -20 -17 -20 -20 -20 -20 -20 -20 -20 -20 -20 -20 -20 -20 -20 -20
-20 4 5 -1 -20 8 38 36 28 28 -20 -20 -20 -20 -20 -20 -19 -20 -20 -20 -20 -20 -20 -20 -20 -20 -20 -20 -20 -20 -20 -20 -20 -20 -20 -20 -20 -20 -20 -20 -20 -20 -20 -20 -20
-18 -1 -20 1 10 31 32 24 2 15 12 2 -20 -20 -20 -7 -15 -7 -20 -20 -20 -18 -20 -20 -20 -20 -20 -20 -20 -20 -20 -20 -20 -20 -20 -18 -20 -20 -20 -20 -20 -20 -20 -20 -20
-20 -20 -11 -9 -5 23 20 28 28 -2 -15 -20 -20 -20 -20 -20 -20 -20 -20 -20 -20 -20 2 -20 -20 -20 -20 -20 -20 -20 -20 -20 -20 -18 -20 -20 -20 -20 -20 -14 -20 -20 -8 -4 -10
-20 -20 5 22 24 4 20 1 -15 -13 -20 -20 -11 -20 -20 -20 -20 -20 -20 -20 -20 -20 -19 -20 -20 -20 -20 -20 -20 -20 -20 -20 -20 -20 13 -20 -20 -20 -19 -7 -13 -19 6 23 -19
-20 -20 -20 -20 -16 27 -1 11 12 -20 -20 2 -20 -20 -20 -20 -20 -20 -20 -20 -20 -20 -20 -20 -20 -20 -20 -20 -20 -20 -20 -20 -20 -20 -20 -20 -15 -13 -20 -4 2 8 24 -3 -11
-17 -20 -20 -20 -20 -20 -20 -20 -20 -20 -20 -20 -20 -20 -20 -20 -20 -20 -20 -20 -20 -20 -20 -20 -20 -20 -20 -20 -20 -20 -20 -20 -20 -20 -20 -13 -20 -17 -19 -1 9 9 -4 19 3

GFSSW_prec_radar_048.txt.gz
Reflectivity
-1 11 -10 12 -20 6 15 9 10 14 7 24 -20 -17 4 3 6 5 -19 -20 -20 -20 -20 -20 -20 -20 -20 -20 -20 -20 -20 -20 -20 -20 -20 -20 -20 -20 -20 -20 -20 -20 -20 -20 -20
12 10 14 17 12 15 15 3 -0 10 -15 22 -5 3 3 6 7 -9 -20 -20 -20 -20 14 -20 -20 -20 -20 -20 -20 -20 -20 -20 -20 -20 -20 -20 -20 -20 -20 -20 -20 -20 -20 -20 -20
-11 -4 -17 17 13 12 10 18 7 15 3 -19 26 3 -1 9 -5 -20 -20 -20 -20 -20 6 -20 -20 -20 -20 -20 -20 -20 -20 -20 -20 -20 -20 -20 -20 -20 -20 -20 -20 -20 -20 -20 -20
-1 -20 9 3 3 -20 12 -13 -11 4 -8 -20 31 -13 -20 9 -20 -20 -20 -20 -20 -17 10 3 -20 -20 -20 -20 -20 -20 -20 -20 -20 -20 -20 -20 -20 -20 -20 -20 -20 -20 -20 -20 -20
5 16 19 -20 -20 -3 -20 -20 -20 10 -11 -20 25 -2 8 1 -8 -20 -20 -20 -7 14 -20 -20 -20 -20 -20 -20 -20 -20 -20 -20 -20 -20 -20 -20 -20 -20 -20 -20 -20 -20 -20 -20 -20
-14 -5 7 -20 -11 -18 -20 -12 -20 10 -18 -20 10 30 -20 -20 -6 -20 12 -20 -2 3 3 -20 -3 -20 -20 -20 -20 -20 -20 -20 -20 -20 -20 -20 -20 -20 -20 -20 -20 -20 -20 -20 -20
15 20 -20 21 -10 -15 10 -0 13 -19 -20 -20 10 31 -6 -20 -20 -20 17 24 25 -20 -20 -20 11 -20 -20 -20 -20 -20 -20 -20 -20 -20 -20 -20 -20 -20 -20 -20 -20 -20 -20 -20 -20
18 -9 -15 -8 -6 -16 19 -6 13 -16 -20 -20 24 37 -14 4 -20 -20 -20 -20 -20 -6 -20 -12 2 -20 -20 -20 -20 -20 -20 -20 -20 -20 -20 -20 -20 -20 -20 -20 -20 -20 -20 -20 -20
18 -10 18 2 6 0 -3 -20 -20 -20 -20 -19 31 30 -8 -7 -20 -20 -20 -20 -9 -18 -20 9 22 -2 -20 -20 -20 -20 -20 -20 -20 -20 -20 -20 -20 -20 -20 -20 -20 -20 -20 -20 -20
16 8 10 17 16 -1 -4 -20 -20 -20 -20 5 28 27 14 -20 -20 -20 -20 -20 20 23 17 20 38 27 -6 -13 -15 -20 -20 -20 -20 -20 -20 -20 -20 -20 -20 -20 -20 -20 -20 -20 -20
7 6 -11 -14 12 24 -19 -20 -20 1 10 17 32 24 -8 2 -6 -20 -20 -20 18 19 6 10 10 15 14 -16 -20 -20 -20 -20 -20 -20 -20 -20 -20 -20 -20 -20 -20 -20 -20 -20 -20
-7 -3 -7 6 -15 20 -15 10 -20 2 -0 15 30 34 -18 -20 -20 -20 -20 -17 19 -20 -20 -20 -2 13 30 22 -5 -20 -20 -20 -20 -20 -20 -20 -20 -20 -20 -20 -20 -20 -20 -20 -20
0 -20 -2 6 -20 -20 -20 -7 -14 -20 -2 26 25 28 11 -20 -20 -20 -20 -13 -20 -20 -20 -20 -20 -20 -20 -20 -20 -20 -20 -20 -20 -20 -20 -20 -20 -20 -20 -20 -20 -20 -20 -20 -20
-19 6 -15 4 -20 -20 -16 8 -20 -7 5 26 29 23 7 -13 -20 -20 -20 -18 -20 5 -20 -20 -20 -20 -20 -20 -20 -20 -20 -20 -20 -20 -20 -20 -20 -20 -20 -20 -20 -20 -20 -20 -20
7 8 10 22 -15 -19 -19 20 -9 17 4 3 30 -3 6 -8 -20 10 -20 -20 -20 -20 -20 -20 -20 -20 -20 -20 -20 -20 -20 -20 -20 -20 -20 -20 -20 -20 -20 -20 -20 -20 -20 -20 -20
-14 -9 23 15 5 -20 -11 10 -16 14 23 33 29 19 24 -20 -20 -9 -19 -20 -20 -20 -20 -20 -20 -20 -20 -20 -20 -20 -20 -20 -20 -20 -20 -20 -20 -20 -20 -20 -20 -20 -20 -20 -20
-6 7 11 -19 6 -20 22 -6 -17 15 26 26 23 11 -13 -2 -20 -9 -18 -20 -20 -20 -18 -20 -20 -20 -20 -20 -20 -20 -20 -20 -20 -20 -20 -20 -20 -20 -20 -20 -20 -20 -20 -20 -20
-18 -20 -20 19 -20 -19 1 9 16 5 14 25 -12 8 -12 -20 10 3 -20 -20 -20 -20 -20 -20 -20 -20 -20 -20 -20 -20 -20 -20 -20 -20 -20 -20 -20 -20 -20 -20 -20 -20 -20 -20 -20
-20 -20 -12 -18 -20 -20 8 13 17 23 38 16 9 -11 22 -20 -10 -9 -20 -20 -20 -20 -20 -20 -20 -20 -20 -20 -20 -20 -20 -20 -20 -20 -20 -20 -20 -20 -20 -20 -20 -20 -20 -20 -20
-20 -20 -2 -5 -19 8 18 12 18 2 3 -20 -1 -15 -9 -19 -3 -8 -20 -20 -20 -20 -20 -20 -20 -20 -20 -20 -20 -20 -20 -20 -20 -20 -20 -20 -20 -20 -20 -20 -20 -20 -20 -20 -20
-20 -20 -20 -14 -20 -13 8 18 30 3 -2 -19 -20 -20 -20 -20 -20 -20 -20 -20 -20 -20 -20 -20 -20 -17 -20 -20 -20 -20 -20 -20 -20 -20 -20 -20 -20 -20 -20 -20 -20 -20 -20 -20 -20
-20 -19 -20 -14 14 5 29 30 29 23 -16 -20 -20 -20 -20 -20 -20 -20 -20 -20 -20 -20 -20 -20 -20 -20 -20 -20 -20 -20 -20 -20 -20 -20 -20 -20 -20 -20 -20 -20 -20 -20 -20 -20 -20
-20 -20 -8 -14 -17 26 35 23 10 -12 -15 -20 -20 -20 -20 -20 -13 -20 -20 -20 -20 -20 -20 -20 -20 -20 -20 -20 -20 -20 -20 -20 -20 -20 -20 -20 -20 -20 -20 -19 -20 -20 -18 -20 -20
-20 -20 -20 -20 -20 15 36 19 2 -15 -20 -20 -20 -20 -20 -20 -20 -20 -20 -20 -12 -20 -20 -20 -20 -20 -20 -20 -20 -20 -20 -20 -20 -20 -20 -20 -20 -20 -20 -20 -20 -16 -20 -20 -16
-20 -20 -20 -20 -2 -20 -17 -20 -2 -20 -20 -20 -20 -20 -20 -16 -20 -20 -20 -20 -20 -2 -15 -20 -20 -20 -20 -20 -20 -20 -20 -20 -20 -20 -20 -20 -20 -20 -20 -5 -10 -14 8 9 -7
-20 -6 -20 -20 -18 -20 -20 -20 -20 -20 -20 -20 -20 -20 -20 -20 -20 -20 -20 -20 -20 -20 -20 -20 -20 -20 -20 -20 -20 -20 -20 -20 -20 -20 -20 -20 -20 -13 -6 2 -1 -19 6 -9 -20
-14 -20 -5 -20 -20 -20 -20 -20 -20 -20 -16 -20 -20 -20 -20 -20 -20 -20 -20 -20 -20 -20 -20 -20 -20 -20 -20 -20 -20 -20 -20 -20 -20 -20 -20 -20 -20 -10 -19 -6 -16 -5 -20 -15 -11

GFSSW_prec_radar_051.txt.gz
Reflectivity
-10 -15 5 14 1 10 12 13 9 -12 9 -20 -6 25 -20 4 11 8 -20 -20 -20 -20 -20 -20 -20 -20 -20 -20 -20 -20 -20 -20 -20 -20 -20 -20 -20 -20 -20 -20 -20 -20 -20 -20 -20
21 10 15 -3 3 -20 -5 14 11 12 4 -17 -20 30 14 -10 -3 -0 -20 -20 -20 -20 13 -20 -20 -20 -20 -20 -20 -20 -20 -20 -20 -20 -20 -20 -20 -20 -20 -20 -20 -20 -20 -20 -20
18 22 7 -14 -16 -20 -20 -20 10 11 14 -20 -20 4 24 -20 -20 -20 -20 -20 -20 -20 17 -20 -20 -20 -20 -20 -20 -20 -20 -20 -20 -20 -20 -20 -20 -20 -20 -20 -20 -20 -20 -20 -20
-7 -20 -16 -12 -20 -6 -8 -20 -20 -20 1 -17 -20 -18 37 -20 -20 -8 -17 -20 -20 -20 6 7 -20 -20 -20 -20 -20 -20 -20 -20 -20 -20 -20 -20 -20 -20 -20 -20 -20 -20 -20 -20 -20
-18 14 18 -12 -2 -8 16 -20 -20 -14 -0 -9 -12 7 37 5 -20 -9 -17 -6 -20 -12 7 -4 -20 -20 -20 -20 -20 -20 -20 -20 -20 -20 -20 -20 -20 -20 -20 -20 -20 -20 -20 -20 -20
1 16 2 4 -15 4 9 24 8 4 17 -4 8 16 35 18 -20 -18 10 9 -20 11 8 1 -20 -20 -20 -20 -20 -20 -20 -20 -20 -20 -20 -20 -20 -20 -20 -20 -20 -20 -20 -20 -20
-13 2 5 20 19 -10 23 -3 -7 -19 -20 -2 13 17 35 10 -20 -20 -6 -12 -20 -10 9 -20 -20 1 -20 -20 -20 -20 -20 -20 -20 -20 -20 -20 -20 -20 -20 -20 -20 -20 -20 -20 -20
-20 2 -3 -1 -3 4 -20 -13 -20 -20 22 -20 13 8 22 22 -14 -20 22 11 23 28 27 16 7 -20 -20 -20 -20 -20 -20 -20 -20 -20 -20 -20 -20 -20 -20 -20 -20 -20 -20 -20 -20
14 8 10 -10 7 -9 -20 22 -20 -20 -20 -20 11 6 17 32 -20 -20 -20 -18 6 18 24 3 19 16 -20 -13 -20 -20 -20 -20 -20 -20 -20 -20 -20 -20 -20 -20 -20 -20 -20 -20 -20
-20 -20 3 -20 -20 12 14 -20 -20 -20 -20 12 1 21 19 -14 17 -20 -20 -14 9 12 11 23 23 20 -1 3 -16 -20 -20 -20 -20 -20 -20 -20 -20 -20 -20 -20 -20 -20 -20 -20 -20
20 -1 3 -10 5 -0 -13 -20 -20 -20 -20 7 14 24 -2 21 22 -20 -20 -20 27 25 23 25 23 32 -20 -20 -20 -20 -20 -20 -20 -20 -20 -20 -20 -20 -20 -20 -20 -20 -20 -20 -20
0 -20 -15 6 11 -5 -20 -20 -20 2 -18 -6 32 26 23 -14 5 -20 -20 -11 24 14 22 14 27 18 32 20 -11 -14 -20 -20 -20 -20 -20 -20 -20 -20 -20 -20 -20 -20 -20 -20 -20
-20 9 -20 -20 2 -20 -20 -20 -20 -15 -16 14 8 -10 12 10 -8 -20 -20 5 20 8 3 5 -14 7 25 35 31 -0 -20 -20 -20 -20 -20 -20 -20 -20 -20 -20 -20 -20 -20 -20 -20
-2 15 22 22 -18 5 -20 -20 -20 -20 -16 32 0 24 21 10 -20 -20 -20 13 15 -17 -14 -12 -20 -19 2 -6 -14 -20 -20 -20 -20 -20 -20 -20 -20 -20 -20 -20 -20 -20 -20 -20 -20
17 22 30 28 27 29 -20 -20 -20 -10 -15 2 25 17 20 -20 -20 -10 19 -12 -5 -3 -20 -20 -20 -20 -20 -20 -20 -20 -20 -20 -20 -20 -20 -20 -20 -20 -20 -20 -20 -20 -20 -20 -20
21 7 -16 5 17 6 -20 -20 -14 6 19 26 34 27 21 -14 -12 -9 14 -5 -19 -20 -20 -20 -20 -20 -20 -20 -20 -20 -20 -20 -20 -20 -20 -20 -20 -20 -20 -20 -20 -20 -20 -20 -20
-2 17 -14 -8 -3 -7 -20 -20 -11 21 15 34 30 -5 -7 10 1 20 6 -20 -12 9 -20 -20 -20 -20 -20 -20 -20 -20 -20 -20 -20 -20 -20 -20 -20 -20 -20 -20 -20 -20 -20 -20 -20
11 -20 4 -20 -20 -20 -20 -20 -16 -7 20 29 4 -2 6 9 30 10 -20 -15 -20 -19 -9 -18 -20 -20 -20 -20 -20 -20 -20 -20 -20 -20 -20 -20 -20 -20 -20 -20 -20 -20 -20 -20 -20
-20 -20 -20 -0 -20 -20 -5 10 4 3 34 23 -1 -4 27 10 25 -19 -1 -20 -20 -20 -20 -20 -20 -20 -20 -20 -20 -20 -20 -20 -20 -20 -20 -20 -20 -20 -20 -20 -20 -20 -20 -20 -20
-20 -20 -20 -18 -20 -20 -4 19 32 29 4 -20 -9 -4 -5 -12 -16 -3 -18 -20 -20 -20 -20 -20 -20 -20 -20 -20 -20 -20 -20 -20 -20 -20 -20 -20 -20 -20 -20 -20 -20 -20 -20 -20 -20
-20 -20 -20 -20 -20 -20 -20 18 25 1 -19 -20 -20 -19 -20 -20 -20 -20 -20 -20 -20 -20 -20 -20 -20 -20 -17 -20 -20 -20 -20 -20 -20 -20 -20 -20 -20 -20 -20 -20 -20 -20 -20 -20 -20
-20 -20 -20 -20 -20 1 12 5 -1 -20 -20 -20 -20 -20 -20 -20 -20 -20 -20 -20 -20 -20 -20 -20 -20 -12 -20 -20 -20 -20 -20 -20 -20 -20 -20 -20 -20 -20 -20 -20 -20 -20 -20 -20 -20
-20 -20 -20 -20 -20 -17 -12 -19 -17 -20 -20 -20 -20 -20 -20 -20 -20 -20 -20 -20 -20 -20 -20 -20 -20 -20 -20 -20 -20 -20 -20 -20 -20 -20 -20 -20 -20 -20 -20 -20 -20 -20 -20 -20 -20
-20 -20 -20 -20 -20 -17 -18 -20 -16 -20 -20 -20 -20 -20 -20 -20 -20 -20 -20 -20 -20 -20 -20 -20 -20 -20 -20 -20 -20 -20 -20 -20 -20 -20 -20 -20 -20 -20 -20 -20 -20 -20 -20 -19 -20
-20 -20 -17 -20 -20 -20 -20 -20 -20 -20 -20 -20 -20 -20 -20 -20 -20 -20 -20 -20 -20 -20 -20 -20 -20 -20 -20 -20 -20 -20 -20 -20 -20 -20 -20 -20 -20 -20 -20 -20 -20 -13 -20 -20 -20
-20 -14 -20 10 -20 -20 -20 -20 -20 -20 -20 -20 -20 -20 -20 -20 -20 -20 -20 -20 -20 -20 -20 -20 -20 -20 -20 -20 -20 -20 -20 -20 -20 -20 -20 -20 -20 -20 -20 -10 -12 -20 -20 -20 -20
-5 -20 -7 -20 -20 -20 -20 -20 -20 -20 -20 -20 -20 -20 -20 -20 -20 -20 -20 -20 -20 -20 -20 -20 -20 -20 -20 -20 -20 -20 -20 -20 -20 -20 -20 -20 -20 -16 -20 -17 -20 -20 -20 -20 -20

GFSSW_prec_radar_054.txt.gz
Reflectivity
13 14 19 20 -11 1 -11 0 -10 7 -19 -20 -16 6 31 22 17 9 -13 -20 -20 -20 -20 -20 -20 -20 -20 -20 -20 -20 -20 -20 -20 -20 -20 -20 -20 -20 -20 -20 -20 -20 -20 -20 -20
4 -13 8 -20 7 -2 11 -20 -11 5 -3 -20 -20 -20 -16 30 18 -14 -20 -20 -20 -20 -20 10 4 -20 -20 -20 -20 -20 -20 -20 -20 -20 -20 -20 -20 -20 -20 -20 -20 -20 -20 -20 -20
-16 -20 0 3 19 9 20 -20 -20 -20 -20 -17 -20 -20 -20 37 12 -20 -3 -20 -20 -20 -20 -20 -16 -20 -20 -20 -20 -20 -20 -20 -20 -20 -20 -20 -20 -20 -20 -20 -20 -20 -20 -20 -20
-6 7 15 -6 -2 -4 20 18 8 -20 6 -17 -19 -19 12 27 27 -20 3 -19 -20 -20 -20 8 5 12 -17 -20 -20 -20 -20 -20 -20 -20 -20 -20 -20 -20 -20 -20 -20 -20 -20 -20 -20
-2 14 -6 -1 4 5 14 16 -20 -7 -8 -20 1 5 17 13 14 -5 -7 3 -18 -20 -20 16 -11 -1 -8 -20 -20 -20 -20 -20 -20 -20 -20 -20 -20 -20 -20 -20 -20 -20 -20 -20 -20
-12 9 -11 4 2 10 16 18 -4 13 2 3 -18 5 26 17 2 25 -13 3 -6 -2 -11 11 -1 -20 -20 -20 -20 -20 -20 -20 -20 -20 -20 -20 -20 -20 -20 -20 -20 -20 -20 -20 -20
6 -18 -4 7 4 6 14 22 1 -2 16 2 21 12 26 22 0 16 -20 -16 1 -9 -14 -7 -20 -20 -20 -20 -20 -20 -20 -20 -20 -20 -20 -20 -20 -20 -20 -20 -20 -20 -20 -20 -20
20 -3 -3 -4 2 3 13 -8 -20 10 -3 14 9 16 18 -0 18 8 -20 26 3 14 -20 -20 -20 2 -20 -20 -20 -20 -20 -20 -20 -20 -20 -20 -20 -20 -20 -20 -20 -20 -20 -20 -20
10 -11 21 -20 3 -1 6 -20 -20 -6 -5 14 19 -4 23 -17 29 -16 -20 28 8 13 20 27 27 -20 -9 -20 -20 -20 -20 -20 -20 -20 -20 -20 -20 -20 -20 -20 -20 -20 -20 -20 -20
9 2 -8 -20 2 -10 10 -20 -20 -20 -20 15 14 12 -10 -16 22 4 -20 18 7 21 27 26 23 13 -20 -13 -20 -20 -20 -20 -20 -20 -20 -20 -20 -20 -20 -20 -20 -20 -20 -20 -20
8 -11 -20 -8 3 -3 -20 -20 -20 -20 -20 -20 -1 24 -20 -20 31 18 -20 -12 25 24 26 25 6 -9 -20 -20 -20 -20 -20 -20 -20 -20 -20 -20 -20 -20 -20 -20 -20 -20 -20 -20 -20
-20 -20 -18 -16 -20 14 -20 -20 -20 -17 -18 12 -19 24 -16 17 28 -14 -20 -12 17 19 35 23 -3 11 14 -13 -14 -20 -20 -20 -20 -20 -20 -20 -20 -20 -20 -20 -20 -20 -20 -20 -20
-18 19 19 21 29 -11 -20 -20 -20 -15 -17 -5 -6 23 -3 28 1 -20 -20 -9 -6 29 28 38 34 37 34 3 3 -15 -20 -20 -20 -20 -20 -20 -20 -20 -20 -20 -20 -20 -20 -20 -20
17 22 25 25 32 29 -20 -20 -20 -20 -20 -14 30 31 20 26 -11 -20 -20 -11 2 0 27 23 -0 30 30 23 25 20 -20 -20 -20 -20 -20 -20 -20 -20 -20 -20 -20 -20 -20 -20 -20
19 -2 8 21 -20 6 -11 -20 -20 -20 -20 -8 25 15 35 13 -4 -20 6 -10 -1 23 -4 1 -20 -16 16 26 27 3 -7 -20 -20 -20 -20 -20 -20 -20 -20 -20 -20 -20 -20 -20 -20
-20 -20 -6 -20 -13 -8 -20 -20 -20 -10 13 17 26 29 30 4 -20 -17 19 -14 -3 9 8 -20 -20 -11 -20 -20 -20 -20 -20 -20 -20 -20 -20 -20 -20 -20 -20 -20 -20 -20 -20 -20 -20
-20 -20 -20 -20 -20 -20 -20 -20 0 -9 -11 20 29 19 10 13 9 -2 22 -3 4 -10 -20 -20 -20 -20 -20 -20 -20 -20 -20 -20 -20 -20 -20 -20 -20 -20 -20 -20 -20 -20 -20 -20 -20
-17 -20 -8 -20 -20 -20 9 23 1 -13 -4 28 10 -7 23 7 3 10 24 -20 -20 -20 -20 -20 -20 -20 -20 -20 -20 -20 -20 -20 -20 -20 -20 -20 -20 -20 -20 -20 -20 -20 -20 -20 -20
-20 -20 -20 -2 -20 -20 -19 -15 14 15 32 22 -16 -9 -17 -9 -6 12 -20 -20 -20 -20 -15 -20 -20 -20 -20 -20 -20 -20 -20 -20 -20 -20 -20 -20 -20 -20 -20 -20 -20 -20 -20 -20 -20
-20 -20 -20 -20 -20 -20 -20 2 11 11 -20 -20 -14 -17 -20 28 -18 -15 -20 -20 -20 -20 -20 -20 -20 -20 -20 -20 -20 -20 -20 -20 -20 -20 -20 -20 -20 -20 -20 -20 -20 -20 -20 -20 -20
-20 -20 -20 -20 -20 -20 -7 -2 -4 -12 -20 -20 -20 -20 -20 -19 -20 -20 -20 -20 -20 -20 -20 -20 -20 -5 -20 -20 -20 -20 -20 -20 -20 -20 -20 -20 -20 -20 -20 -20 -20 -20 -20 -20 -20
-20 -20 -20 -20 -20 -7 -13 -20 -20 -20 -20 -20 -20 -20 -20 -20 -20 -20 -20 -20 -20 -20 -20 -20 -20 -20 -11 -20 -20 -20 -20 -20 -20 -20 -20 -20 -20 -20 -20 -20 -20 -20 -20 -20 -20
-20 -20 -20 -20 -20 -20 -20 -20 -20 -20 -20 -20 -20 -20 -20 -20 -20 -20 -20 -20 -20 -20 -20 -20 -20 -20 -20 -20 -20 -20 -20 -20 -20 -20 -20 -20 -20 -20 -20 -20 -20 -20 -20 -20 -20
-20 -20 -20 -20 -20 -1 -8 -20 -20 -20 -20 -20 -20 -20 -20 -20 -20 -20 -20 -20 -20 -20 -20 -20 -20 -20 -20 -20 -20 -20 -20 -20 -20 -20 -20 -20 -20 -20 -20 -20 -20 -20 -14 -20 -20
-20 -20 -20 -20 -20 -20 -20 -20 -20 -20 -20 -20 -20 -20 -20 -20 -20 -20 -20 -20 -20 -20 -20 -20 -20 -20 -20 -20 -20 -20 -20 -20 -20 -20 -20 -20 -20 -20 -20 -20 -20 -20 -20 -20 -20
-20 -20 -20 -20 -20 -20 -20 -20 -20 -20 -20 -20 -20 -20 -20 -20 -20 -20 -20 -20 -20 -20 -20 -20 -20 -20 -20 -20 -20 -20 -20 -20 -20 -20 -20 -20 -20 -20 -20 -20 -20 -20 -20 -20 -20
-15 0 -19 -20 -20 -20 -20 -20 -20 -20 -20 -20 -20 -20 -20 -20 -20 -20 -20 -20 -20 -20 -20 -20 -20 -20 -20 -20 -20 -20 -20 -20 -20 -20 -20 -20 -20 -20 -20 -18 -18 -18 -20 -20 -20

GFSSW_prec_radar_057.txt.gz
Reflectivity
-20 -20 11 -19 -3 5 11 20 20 -20 -20 -20 -20 -15 -18 0 17 18 7 -11 -20 -20 7 -20 14 14 -20 -20 -20 -20 -20 -20 -20 -20 -20 -20 -20 -20 -20 -20 -20 -20 -20 -20 -20
18 5 -3 13 -14 -12 6 1 1 12 10 -20 -20 -20 -18 14 10 17 -19 -19 -17 -20 -20 12 -5 17 -20 -20 -20 -20 -20 -20 -20 -11 -8 -19 -20 -20 -20 -20 -20 -20 -20 -20 -14
2 9 9 15 -20 -19 -20 2 -2 -15 -20 -19 -20 -20 -20 11 24 6 -20 -20 -15 -20 -20 -15 -10 9 -20 -20 -20 -20 -20 -20 -20 -18 -9 -20 -20 -20 -20 -20 -20 -20 -20 -20 1
-17 3 -2 1 -20 11 9 10 -18 -9 -14 -14 -3 -10 7 15 22 -20 -20 -20 -15 -20 -20 -16 13 16 -3 -20 -20 -20 -20 -20 -20 -20 -20 -20 -20 -20 -20 -20 -20 -20 -20 -20 -20
-7 12 -0 -10 -14 3 1 -7 4 10 6 -15 -14 -4 14 11 -2 -0 10 6 -7 -19 -20 12 6 11 7 -20 -20 -20 -20 -20 -20 -20 -20 -20 -20 -20 -20 -20 -20 -20 -20 -20 -20
10 17 -20 -11 -20 3 -4 -3 13 -12 -20 -5 21 25 12 -2 -20 36 18 -18 -13 4 -17 4 -20 -20 -2 -20 -20 -20 -20 -20 -20 -20 -20 -20 -20 -20 -20 -20 -20 -20 -20 -20 -20
-18 6 -20 -12 -12 -19 -0 -17 7 3 -3 -4 -7 25 5 -1 -8 20 -20 -10 9 -4 0 9 -1 -20 -20 -20 -20 -20 -20 -20 -20 -20 -20 -20 -20 -20 -20 -20 -20 -20 -20 -20 -20
12 -5 -8 26 15 -3 9 -2 -20 -20 27 28 11 24 -3 -17 21 -20 30 -7 -4 -1 6 6 -16 3 -20 -20 -20 -20 -20 -20 -20 -20 -20 -20 -20 -20 -20 -20 -20 -20 -20 -20 -20
19 10 -20 -19 -20 -20 -5 -3 -20 -20 8 28 20 21 -6 -20 -20 -17 10 -20 18 19 -10 30 24 24 -20 -20 -20 -20 -20 -20 -20 -20 -20 -20 -20 -20 -20 -20 -20 -20 -20 -20 -20
-0 -19 -20 -20 14 -9 9 -20 -20 -20 -20 -20 22 -2 -20 -17 -20 23 24 -11 20 27 24 27 28 17 -0 -9 -20 -20 -20 -20 -20 -20 -20 -20 -20 -20 -20 -20 -20 -20 -20 -20 -20
10 18 18 -4 23 0 -20 -20 -20 -20 -20 -20 -20 -20 -19 10 -8 26 4 26 26 4 -5 8 16 -3 -18 -4 -20 -20 -20 -20 -20 -20 -20 -20 -20 -20 -20 -20 -20 -20 -20 -20 -20
23 18 20 30 16 28 -16 -20 -20 -20 -20 -20 -8 -6 20 -20 20 12 22 19 22 11 19 27 11 11 -20 -4 -20 -20 -20 -20 -20 -20 -20 -20 -20 -20 -20 -20 -20 -20 -20 -20 -20
14 10 3 -9 15 39 -20 -20 -20 -16 -18 -13 4 27 28 -12 31 12 30 24 18 21 43 36 7 21 -20 10 6 -20 -20 -20 -20 -20 -20 -20 -20 -20 -20 -20 -20 -20 -20 -20 -20
-1 5 8 -20 -20 -15 -20 -20 -20 -20 -18 -20 20 30 23 -15 36 -7 36 22 13 27 21 35 23 16 27 10 5 -18 -20 -20 -20 -20 -20 -20 -20 -20 -20 -20 -20 -20 -20 -20 -20
-20 -14 -19 -20 -1 -7 -20 -20 -20 -20 -20 14 14 18 15 30 26 12 -8 11 36 39 32 36 34 30 22 28 10 10 -20 -20 -20 -20 -20 -20 -20 -20 -20 -20 -20 -20 -20 -20 -20
-18 -20 -19 -20 -16 -20 -20 -20 -20 -20 11 21 19 37 16 27 -9 10 17 -20 -13 31 30 34 38 26 31 27 33 28 -20 -20 -20 -20 -20 -20 -20 -20 -20 -20 -20 -20 -20 -20 -20
-20 -20 -19 -15 -20 -20 -20 -20 -20 -20 12 29 35 28 25 12 -1 13 22 -6 -14 28 15 24 -4 -8 -5 -19 -14 -20 -20 -20 -20 -20 -20 -20 -20 -20 -20 -20 -20 -20 -20 -20 -20
-20 -20 -20 -20 -20 -20 -20 -20 -20 -20 -18 26 8 13 19 5 2 11 17 -16 -15 -20 -20 -20 -19 -8 -19 -20 -20 -20 -20 -20 -20 -20 -20 -20 -20 -20 -20 -20 -20 -20 -20 -20 -20
-20 -20 -20 -20 -20 -20 -20 -20 -17 3 10 12 13 -7 -7 6 -10 -13 -9 -20 -20 -20 -20 -20 -20 -20 -20 -20 -20 -20 -20 -20 -20 -20 -20 -20 -20 -20 -20 -20 -20 -20 -20 -20 -20
-20 -20 -20 -20 -20 -20 -18 5 3 -20 -20 -20 -20 -20 -11 -8 -11 -20 -20 -20 -20 -20 -20 -20 -20 -20 -20 -20 -20 -20 -20 -20 -20 -20 -20 -20 -20 -20 -20 -20 -20 -20 -20 -20 -20
-20 -20 -20 -20 -20 -20 -8 -11 -19 -20 -20 -20 -20 -20 -20 -20 -20 -20 -20 -20 -20 -20 -20 -20 -20 -20 -20 -20 -20 -20 -20 -20 -20 -20 -20 -20 -20 -20 -20 -20 -20 -20 -20 -20 -20
-20 -20 -20 -20 -20 -20 -20 -20 -20 -20 -20 -20 -20 -20 -20 -20 -20 -20 -20 -20 -20 -20 -20 -20 -20 -20 -20 -20 -20 -20 -20 -20 -20 -20 -20 -20 -20 -20 -20 -20 -20 -20 -20 -20 -20
-20 -20 -20 -20 -20 -20 -20 -20 -20 -20 -20 -20 -20 -20 -20 -20 -20 -20 -20 -20 -20 -20 -20 -20 -20 -20 -16 -20 -20 -20 -20 -20 -20 -20 -20 -20 -20 -20 -20 -20 -20 -20 -20 -20 -20
-20 -20 -20 -20 -20 -20 -20 -20 -20 -20 -20 -20 -20 -20 -20 -20 -20 -20 -20 -20 -20 -20 -20 -20 -20 -20 -20 -20 -20 -20 -20 -20 -20 -20 -20 -20 -20 -20 -20 -20 -20 -20 -20 -20 -20
-20 -20 -17 -20 -20 -20 -20 -20 -20 -20 -20 -20 -20 -20 -20 -20 -20 -20 -20 -20 -20 -20 -20 -20 -20 -20 -20 -20 -20 -20 -20 -20 -20 -20 -20 -20 -20 -20 -20 -20 -20 -20 -20 -20 -20
-20 -20 -20 -20 -20 -20 -20 -20 -20 -20 -20 -20 -20 -20 -20 -20 -20 -20 -20 -20 -20 -20 -20 -20 -20 -20 -20 -20 -20 -20 -20 -20 -20 -20 -20 -20 -20 -20 -20 -20 -20 -20 -20 -20 -20
-20 -20 -13 -20 -20 -20 -20 -20 -20 -20 -18 -20 -20 -20 -20 -20 -20 -20 -20 -20 -20 -20 -20 -20 -20 -20 -20 -20 -20 -20 -20 -20 -20 -20 -20 -20 -20 -20 -20 -20 -20 -20 -20 -20 -20

GFSSW_prec_radar_060.txt.gz
Reflectivity
8 9 16 16 16 -15 -17 -20 -18 1 21 -4 -20 -20 -20 -15 -19 -17 13 9 -20 -4 9 -20 -20 13 -20 -20 -20 -20 -20 -20 -20 -20 -20 -20 -20 -20 -20 -20 -20 -20 -20 -20 -20
-8 -20 -20 -0 -13 -3 4 -20 -8 -20 -13 -17 -19 -20 -20 -20 -9 -14 22 -3 -20 -20 12 -20 -3 11 -19 -20 -20 -20 -20 -20 -20 -20 -20 -20 -20 -20 -20 -20 -20 -20 -20 -20 -20
-19 2 -2 1 -10 10 7 -20 -1 6 -17 -3 11 8 -18 -20 -14 -20 17 -20 -20 -20 -20 1 15 -11 12 -20 -20 -20 -20 -20 -11 6 4 -20 -20 -20 -20 -20 -20 -20 -20 -20 -20
-20 9 6 21 -18 -20 -6 -20 -20 -20 1 5 -20 -6 -20 4 -20 -16 -20 -20 -20 -13 2 9 1 22 13 -20 -20 -20 -20 -20 -14 5 9 1 -20 -20 -20 -20 -20 -20 -20 -20 -20
-17 5 -9 7 -20 -20 -15 -14 17 8 9 -9 -12 -20 -20 13 -13 -2 -20 28 23 9 4 7 11 9 7 2 -20 -20 -20 -20 -20 -12 2 -1 -20 -20 -20 -20 -20 -20 -20 -20 -20
4 5 -5 -20 17 -20 -20 4 -5 -10 11 13 9 3 10 5 -20 -19 29 11 -8 22 -14 12 2 11 12 4 -20 -20 -20 -20 -20 -20 -9 -12 -20 -20 -20 -20 -20 -20 -20 -20 -20
19 19 -19 -20 24 3 -10 -2 3 -6 -9 23 -17 25 6 -20 24 -20 24 14 19 18 -20 11 -17 13 6 6 -20 -20 -20 -20 -20 -20 -20 -20 -20 -20 -20 -20 -20 -20 -20 -20 -20
19 -1 17 -18 -9 -10 -8 -20 -10 -2 25 -11 28 -3 -7 -20 -7 -20 22 -20 -2 19 -20 9 18 14 -20 -20 -20 -20 -20 -19 -14 -20 -20 -20 -20 -20 -20 -20 -20 -20 -20 -20 -20
-2 -15 -20 -11 -20 -5 -10 -13 -20 -10 -1 25 21 8 -1 -20 -19 14 37 6 -16 12 -20 15 22 10 4 -8 2 -16 -20 -20 -20 -20 -20 -20 -20 -20 -20 -20 -20 -20 -20 -20 -20
22 21 -11 -20 -5 -20 -20 -20 -20 -20 -20 -15 -20 9 -20 -19 10 24 -13 2 -14 13 26 28 29 16 22 -2 -20 -20 -20 -20 -20 -20 -20 -20 -20 -20 -20 -20 -20 -20 -20 -20 -20
6 12 -19 27 40 23 13 -20 -20 9 20 -20 -9 -7 -16 19 28 -15 -20 -8 24 2 14 23 37 25 5 -5 -20 -20 -20 -20 -20 -20 -20 -20 -20 -20 -20 -20 -20 -20 -20 -20 -20
20 3 2 12 18 18 25 -20 -20 -20 -13 -20 -8 5 -20 13 8 1 7 36 27 13 9 14 17 11 5 5 -20 -20 -20 -20 -20 -20 -20 -20 -20 -20 -20 -20 -20 -20 -20 -20 -20
4 12 -2 -19 11 13 -13 -20 -20 -20 15 -13 12 -10 -20 25 10 38 19 43 14 -2 10 4 -4 7 6 7 4 -19 -20 -20 -20 -20 -20 -20 -20 -20 -20 -20 -20 -20 -20 -20 -20
-10 -10 -20 -20 -20 -9 -20 -20 -17 8 21 16 30 5 27 13 26 15 8 22 6 3 -15 -5 -6 20 -10 7 -3 -2 -20 -20 -20 -20 -20 -20 -20 -20 -20 -20 -20 -20 -20 -20 -20
-20 -20 -20 -20 -18 -12 -13 -20 -16 1 16 27 28 24 -1 10 3 31 37 8 19 37 24 37 36 22 17 10 11 7 -20 -20 -20 -20 -20 -20 -20 -20 -20 -20 -20 -20 -20 -20 -20
-20 -20 -20 -20 -20 -13 -20 -20 -20 -1 8 12 16 12 11 34 19 34 16 11 -15 10 24 33 38 22 25 11 -11 -20 -20 -20 -20 -20 -20 -20 -20 -20 -20 -20 -20 -20 -20 -20 -20
-20 -20 -20 -20 -20 -20 -20 -20 -20 -20 -7 23 21 -1 7 25 9 23 15 28 33 20 31 39 33 35 30 33 34 22 -19 -6 -20 -20 -20 -20 -20 -20 -20 -20 -20 -20 -20 -20 -20
-20 -20 -20 -20 -20 -20 -20 -20 -19 -6 12 -11 12 4 21 -17 3 -15 -20 -12 -6 7 32 23 19 30 22 16 13 -12 -20 -20 -20 -20 -20 -20 -20 -20 -20 -20 -20 -20 -20 -20 -20
-20 -20 -20 -20 -20 -20 -20 -20 -4 13 10 11 -20 -17 -13 -20 14 9 -20 -20 -20 -20 -20 -20 -17 7 15 1 -20 -20 -20 -20 -20 -20 -20 -20 -20 -20 -20 -20 -20 -20 -20 -20 -20
-20 -20 -20 -20 -20 -20 -8 5 2 -20 -20 -20 -20 -20 -20 -20 -20 -20 -20 -20 -20 -20 -20 -20 -16 -20 -20 -20 -20 -20 -20 -20 -20 -20 -20 -20 -20 -20 -20 -20 -20 -20 -20 -20 -20
-20 -20 -20 -20 -20 -20 -20 -13 -13 -20 -20 -20 -20 -20 -20 -20 -20 -20 -20 -20 -20 -20 -20 -20 -20 -7 -20 -20 -20 -20 -20 -20 -20 -20 -20 -20 -20 -20 -20 -20 -20 -20 -20 -20 -20
-20 -20 -20 -20 -20 -20 -20 -20 -20 -20 -20 -20 -20 -20 -20 -20 -20 -20 -20 -20 -20 -20 -20 -20 -20 -19 -6 -20 -20 -20 -20 -20 -20 -20 -20 -20 -20 -20 -20 -20 -20 -20 -20 -20 -20
-20 -20 -20 -20 -20 -20 -20 -20 -20 -20 -20 -20 -20 -20 -20 -20 -20 -20 -20 -20 -20 -20 -20 -20 -20 -17 -4 -19 -20 -20 -20 -20 -20 -20 -20 -20 -20 -20 -20 -20 -20 -20 -20 -20 -20
-20 -20 -20 -20 -20 -20 -20 -20 -20 -20 -20 -20 -20 -20 -20 -20 -20 -20 -20 -20 -20 -20 -20 -20 -20 -20 -20 -20 -20 -20 -20 -20 -20 -20 -20 -20 -20 -20 -20 -20 -20 -20 -20 -20 -20
-20 -20 -20 -20 -20 -20 -20 -20 -20 -20 -20 -20 -20 -20 -20 -20 -20 -20 -20 -20 -20 -20 -20 -20 -20 -20 -20 -20 -20 -20 -20 -20 -20 -20 -20 -20 -20 -20 -20 -20 -20 -20 -20 -20 -20
-20 -13 -20 -20 -20 -20 -20 -20 -20 -20 -20 -20 -20 -20 -20 -20 -20 -20 -20 -20 -20 -20 -20 -20 -20 -20 -20 -20 -20 -20 -20 -20 -20 -20 -20 -20 -20 -20 -20 -20 -20 -20 -20 -20 -20
-20 -20 -10 -20 -20 -20 -20 -20 -20 -20 -20 -20 -20 -20 -20 -20 -20 -20 -20 -20 -20 -20 -20 -20 -20 -20 -20 -20 -20 -20 -20 -20 -20 -20 -20 -20 -20 -20 -20 -20 -20 -20 -20 -20 -20

GFSSW_prec_radar_063.txt.gz
Reflectivity
-16 -20 -20 -20 -6 17 -4 6 -1 -20 -11 15 23 -0 2 -20 -20 0 -18 4 -20 -20 -2 -20 -20 -6 -20 -20 -20 -20 -20 -20 -20 -20 -20 -20 -20 -20 -20 -20 -20 -20 -20 -20 -20
6 3 -20 18 -9 13 7 -15 -5 2 5 -3 -13 -18 -17 -20 -20 -20 9 -18 12 -20 -16 -20 -8 5 -20 -20 -20 -20 -20 -20 -20 4 -14 -20 -20 -20 -20 -20 -20 -20 -20 -20 -20
-5 -20 -0 14 -8 -1 12 -20 -14 3 -15 -20 5 -12 15 -20 -13 -20 -20 -20 -14 -20 -20 -1 -18 6 6 -5 -20 -20 -20 -20 -19 -1 0 -10 -20 -20 -20 -20 -20 -20 -20 -20 -20
14 19 18 -14 -15 -20 -20 -15 -3 6 -18 5 -18 -10 -20 0 -8 -20 -20 -20 -20 14 -20 -12 -20 13 11 -20 -20 -20 -20 -20 -20 -17 15 11 -8 -20 -20 -20 -20 -20 -20 -20 -20
15 19 17 19 9 23 6 -3 -20 -9 18 24 -8 4 -5 7 -20 -20 6 -19 11 -5 -20 -17 -20 4 2 -2 -20 -12 -20 -20 -20 -12 19 12 1 -20 -20 -20 -20 -20 -20 -20 -20
22 14 16 16 4 27 26 -12 -20 -1 16 -20 -19 -12 -6 -20 -20 -20 14 -20 25 22 -20 -20 -20 -20 -2 1 -20 -20 -20 -20 -20 -11 0 10 -20 -20 -20 -20 -20 -20 -20 -20 -20
10 6 5 -17 -20 -20 -20 -20 20 -3 1 20 -20 20 7 -20 -20 -20 -1 16 13 22 -20 -20 -20 -20 -20 10 -20 -20 1 -20 -20 -6 -20 -14 -16 -20 -20 -20 -20 -20 -20 -20 -20
22 23 23 -12 -20 -20 -20 10 -19 -14 -13 -20 10 -3 7 -20 -20 -20 10 -1 -17 19 -14 -20 -20 22 -8 -20 -17 -4 -1 1 -20 3 -20 -20 -20 -20 -20 -20 -20 -20 -20 -20 -20
13 11 7 23 18 -1 -20 -20 -20 -20 -20 -20 11 -11 -8 -20 -20 -20 16 11 -1 29 27 -20 22 11 -11 10 15 8 -20 -20 -8 4 -3 -20 -20 -20 -20 -20 -20 -20 -20 -20 -20
16 24 -20 -19 -5 2 -20 -20 -20 -20 -17 -20 6 24 -20 -20 -20 -20 32 33 -12 24 20 22 26 20 16 21 -2 -19 -20 -20 -20 -20 -7 -20 -20 -20 -20 -20 -20 -20 -20 -20 -20
15 14 -20 -20 -20 6 -20 -20 20 14 3 21 20 -20 17 19 -1 15 -20 24 16 36 -9 16 5 15 -1 -20 -20 -20 -20 -20 -20 -20 -20 -20 -20 -20 -20 -20 -20 -20 -20 -20 -20
11 13 -20 -2 -18 -20 -19 -3 -18 -8 17 -20 -2 18 -13 39 22 16 21 29 27 4 -12 19 17 -11 -2 -20 -20 -20 -20 -20 -20 -20 -20 -20 -20 -20 -20 -20 -20 -20 -20 -20 -20
9 3 -20 -20 -20 -20 -8 -12 -20 -9 24 -10 -8 -3 23 37 40 35 22 14 23 5 -9 8 10 30 32 10 -10 -20 -20 -20 -18 -20 -20 -20 -20 -20 -20 -20 -20 -20 -20 -20 -20
6 -20 -20 -20 -20 -20 4 -16 -16 9 27 5 -19 12 21 15 -18 20 -14 32 28 -14 20 15 26 33 23 12 -20 -4 -20 -20 -20 -20 -20 -20 -20 -20 -20 -20 -20 -20 -20 -20 -20
-11 -20 -20 -20 -20 -20 -7 -20 -19 -19 17 17 4 -20 15 1 -3 35 36 43 17 -9 -20 19 15 30 31 11 2 9 -20 -20 -20 -20 -20 -20 -20 -20 -20 -20 -20 -20 -20 -20 -20
-20 -20 -20 -20 -20 -20 -20 -20 -11 -4 8 11 -9 5 28 27 22 25 33 5 -20 -20 -16 19 -20 6 23 16 24 -10 -20 -20 -20 -20 -20 -20 -20 -20 -20 -20 -20 -20 -20 -20 -20
-8 -20 -20 -20 -20 -20 -5 -2 -12 -4 -6 -17 19 14 19 34 35 31 17 25 33 31 25 30 29 15 30 -11 -17 -20 6 9 -2 -7 -13 -20 -20 -20 -20 -20 -20 -20 -20 -20 -20
-20 -20 -20 -20 -20 -20 -20 -20 -18 -7 26 -10 12 -7 -10 -18 5 27 21 32 4 13 25 30 26 35 30 16 3 13 13 21 -1 -8 -20 -20 -20 -20 -20 -20 -20 -20 -20 -20 -20
-20 -20 -20 -20 -20 -20 -20 -20 -5 -4 -10 -5 9 8 -5 -20 -20 4 -20 -20 8 21 25 22 13 32 30 20 27 27 12 -20 -20 -20 -20 -20 -20 -20 -20 -20 -20 -20 -20 -20 -20
-20 -20 -20 -20 -20 -20 -18 -18 4 -20 -20 -20 3 -20 -15 -20 -9 -7 -20 -20 -20 -11 7 -20 2 15 2 -3 -18 11 8 -3 -20 -20 -20 -20 -20 -20 -20 -20 -20 -20 -20 -20 -20
-20 -20 -20 -20 -20 -20 -20 4 -2 -20 -20 -20 -20 -20 -20 -20 -18 -20 -20 -20 -20 -20 -20 -20 -20 -5 -20 -20 -10 -20 -20 -20 -20 -20 -20 -20 -20 -20 -20 -20 -20 -20 -20 -20 -20
-20 -20 -20 -20 -20 -20 -20 -20 -20 -20 -20 -20 -20 -20 -20 -20 -20 -20 -20 -20 -20 -20 -20 -20 -20 1 3 -20 -20 -20 -20 -20 -20 -20 -20 -20 -20 -20 -20 -20 -20 -20 -20 -20 -20
-20 -20 -20 -20 -20 -20 -20 -20 -20 -20 -20 -20 -20 -20 -20 -20 -19 -20 -20 -20 -20 -20 -20 -20 -20 -20 -20 -20 -20 -20 -20 -20 -20 -20 -20 -20 -20 -20 -20 -20 -20 -20 -20 -20 -20
-20 -20 -20 -20 -20 -20 -20 -20 -20 -20 -20 -20 -20 -20 -20 -20 -20 -20 -20 -20 -20 -20 -20 -20 -20 -20 -20 -20 -20 -20 -20 -20 -20 -20 -20 -20 -20 -20 -20 -20 -20 -20 -20 -20 -20
-20 -20 -20 -20 -20 -20 -20 -20 -20 -20 -20 -20 -20 -20 -20 -20 -20 -20 -20 -20 -20 -20 -20 -20 -20 -20 -20 -20 -20 -20 -20 -20 -20 -20 -20 -20 -20 -20 -20 -20 -20 -20 -20 -20 -20
-6 -20 -20 -20 -20 -20 -20 -20 -20 -20 -20 -20 -20 -20 -20 -20 -20 -20 -20 -20 -20 -20 -20 -20 -20 -20 -20 -20 -20 -20 -20 -20 -20 -20 -20 -20 -20 -20 -20 -20 -20 -20 -20 -20 -20
-13 -3 1 -20 -20 -20 -9 -20 -20 -20 -20 -20 -20 -20 -20 -20 -20 -20 -20 -20 -20 -20 -20 -20 -20 -20 -20 -20 -20 -20 -20 -20 -20 -20 -20 -20 -20 -20 -20 -20 -20 -20 -20 -20 -20

GFSSW_prec_radar_066.txt.gz
Reflectivity
19 17 19 16 2 10 -6 23 -10 -2 -9 -3 -16 -9 1 -5 -20 -20 -20 -20 -20 -17 -20 -20 -20 -4 27 7 -1 -8 12 20 -6 2 -20 4 4 -20 -20 -20 -20 -20 -20 -20 -14
2 8 -12 15 2 -16 6 -15 -9 -18 23 4 -8 4 -18 -15 -20 -20 -20 -18 -20 17 -20 -20 -20 5 3 20 -0 -11 -11 -17 -9 -19 7 9 26 -20 -20 -20 -20 -20 -20 -20 -20
8 7 18 22 15 -19 14 -13 -20 -20 15 -20 -20 -13 -14 -20 -20 -20 -20 -20 -20 -12 -20 -20 -20 -20 14 -7 -8 -15 -20 -20 -18 14 7 5 -6 -3 -20 -20 -20 -20 -20 -20 -20
12 16 19 14 18 1 11 24 -20 -20 -16 2 -6 -20 20 -17 -13 2 -20 -20 -20 -20 -20 17 -20 -20 -1 -19 -20 -20 -13 -20 -3 -2 -3 -17 -20 -9 -20 -20 -20 -20 -20 -20 -20
7 16 21 3 -11 20 24 -20 -20 13 21 -20 -20 -13 3 -12 -8 -19 20 -20 -20 -13 -15 -0 -20 -8 -3 1 -20 -20 -14 -17 -12 -20 -20 -20 -20 -2 -20 -20 -20 -20 -20 -20 -20
19 16 18 21 5 -19 -20 21 -19 1 -6 -20 -15 -20 -20 -7 -20 -7 -9 -20 7 -4 -15 -20 -20 -20 -20 10 5 -20 -20 -10 -10 -20 -18 -0 9 -6 -20 -20 -20 -20 -20 -20 -20
11 4 4 21 16 -20 3 1 -20 -5 -20 -20 -20 -20 5 -20 -20 15 -20 -20 14 31 26 -20 -20 -20 -20 -5 -20 -18 -17 -20 -20 -20 1 12 15 -20 -20 -20 -20 -20 -20 -20 -20
7 8 17 5 21 6 -20 -20 -8 -20 -20 -20 -20 -15 -17 -20 -20 -20 -20 -5 -17 5 17 -20 -17 -20 -20 -20 -10 7 -11 -15 -20 -14 13 1 -20 -20 -20 -20 -20 -20 -20 -20 -20
4 6 -5 2 -2 22 -20 -20 -20 -20 -20 -20 -1 -2 -20 -20 -20 -20 -20 20 -9 16 -20 19 -20 -20 -4 17 14 21 -18 -17 -20 -20 13 1 -20 -8 -15 -20 -20 -20 -20 -20 -20
12 11 -5 -2 -20 -9 -20 -20 -20 -20 -16 -20 12 1 -8 -20 -20 -20 -20 14 22 21 29 27 10 22 9 5 -7 -16 -20 -20 -20 -20 2 -4 -20 -20 -20 -20 -20 -20 -20 -20 -20
9 4 -20 -20 -20 -6 -20 -20 -20 24 21 23 10 -20 -20 -20 -19 -20 -20 7 -3 26 20 20 -16 -7 -20 -20 -20 -20 -20 -20 -20 -20 7 -11 6 -20 -20 -20 -20 -20 -20 -20 -20
-2 7 -12 -20 -20 -4 -17 -20 -20 -20 -8 -20 -20 -20 25 -7 -1 24 27 26 31 30 38 16 -4 -20 -18 -20 -20 25 8 -20 -16 -20 -20 -20 -20 -18 -20 -20 -20 -20 -20 -20 -20
-4 4 -20 -20 -20 -15 -1 -13 -20 -19 20 -8 15 8 18 19 20 37 23 32 19 44 18 -12 -14 -20 -20 -20 -20 14 -20 -20 -19 -20 -20 -20 -20 -20 -20 -20 -11 -20 -20 -20 -20
-15 -4 -15 -20 -20 -20 -20 -20 -20 -20 16 4 8 18 24 9 11 18 41 27 14 -11 12 0 9 -20 6 -16 -20 -12 -20 1 -20 -20 -20 -4 -20 -20 -20 -20 -20 -20 -20 -20 -20
11 -20 -20 -20 -20 -20 -20 -20 -20 -20 -19 11 28 31 41 32 17 30 17 30 16 9 -18 2 -15 -20 -20 -18 -2 -9 -20 -20 -20 -20 -20 -20 -20 -20 -20 -20 -20 -20 -20 -20 -20
11 -20 -20 -20 -11 -20 -20 -20 -20 -12 14 28 30 20 14 -6 3 -2 1 24 -10 -20 -19 -12 17 10 12 35 28 -12 -12 -20 -20 -3 -14 -20 -20 -20 -20 -20 -20 -20 -20 -20 -20
-20 -20 -20 -20 -20 -20 -20 -20 -20 -12 -20 -20 -6 37 19 33 27 24 6 25 -7 -20 -20 -20 -16 -6 26 43 38 24 -4 -1 10 -18 -20 -20 -20 -20 -20 -20 -20 -20 -20 -20 -20
-20 -20 -20 -20 -20 5 -20 -9 -20 -16 -4 -20 -9 10 0 13 19 31 30 10 3 -11 -5 -20 3 0 -20 7 12 -2 -15 -19 -20 -17 -20 -20 -20 -20 -20 -20 -20 -20 -20 -20 -20
-20 -20 -20 -20 -20 -20 -20 -20 -12 -20 -20 -11 -13 -0 -13 -20 -14 4 6 8 18 17 22 12 -7 2 15 -9 9 -19 -16 -20 -20 -20 -20 -20 -20 -20 -20 -20 -20 -20 -20 -20 -20
-20 -20 -20 -20 -20 -20 -20 -20 -10 -20 -20 -20 -6 -20 1 -18 -19 -6 -9 -20 6 11 16 9 14 27 29 24 22 18 -5 -20 -20 -20 -20 -20 -20 -20 -20 -20 -20 -20 -20 -20 -20
-20 -20 -20 -20 -20 -20 -20 -20 -13 -20 -20 -20 -20 -20 -20 -20 -11 -16 -20 -20 -20 -20 -20 -20 -17 12 16 28 16 25 31 -20 -20 -20 -20 -20 -20 -20 -20 -20 -20 -20 -20 -20 -20
-20 -20 -20 -20 -20 -16 -20 -20 -20 -20 -20 -20 -20 -20 -20 -20 -12 -20 -19 -20 -20 -20 -20 -20 -20 -20 -3 -20 -19 -20 -18 16 7 -20 -20 -20 -20 -20 -20 -20 -20 -20 -20 -20 -20
-20 -20 -20 -20 -17 -20 -20 -20 -20 -20 -20 -20 -20 -20 -20 -20 -19 -20 -20 -20 -20 -20 -20 -20 -20 -20 -20 -20 -20 -20 -20 -8 -20 -20 6 -15 -20 -20 -20 -20 -20 -20 -20 -20 -20
-20 -20 -20 -20 -20 -20 -18 -20 -20 -20 -20 -20 -20 -20 -20 -20 -20 -20 -20 -20 -20 -20 -20 -20 -20 -20 -20 -20 -20 -20 -20 -20 -20 -20 -20 -20 -20 -20 -20 -20 -20 -20 -20 -20 -20
-20 -20 -20 -15 -20 -20 -20 -20 -20 -20 -20 -20 -20 -20 -20 -20 -20 -20 -20 -20 -20 -20 -20 -20 -20 -20 -20 -20 -20 -20 -20 -20 -20 -20 -20 -20 -20 -20 -20 -20 -20 -20 -20 -20 -20
-20 -20 -20 -20 -20 -20 -20 2 -20 -20 -20 -20 -20 -20 -20 -20 -20 -20 -20 -20 -20 -20 -20 -20 -20 -20 -20 -20 -20 -20 -20 -20 -20 -20 -20 -20 -20 -20 -20 -20 -20 -20 -20 -20 -20
-20 -20 -20 -20 -20 -20 3 -20 -20 -20 -20 -20 -20 -20 -20 -20 -20 -20 -20 -20 -20 -20 -20 -20 -20 -20 -20 -20 -20 -20 -20 -20 -20 -20 -20 -20 -20 -20 -20 -20 -20 -20 -20 -20 -20

GFSSW_prec_radar_069.txt.gz
Reflectivity
7 7 11 10 -3 -20 -1 -20 -5 -20 -20 -20 19 -9 -20 3 -15 6 -20 -17 6 -6 -20 -20 -20 -20 23 2 -4 21 39 22 -14 22 11 2 12 -20 -20 -20 -20 -20 -20 -20 -20
0 0 8 3 10 9 1 1 -20 -16 -20 -20 -20 -5 -10 5 -4 -7 -3 -20 -13 -5 -20 -20 -20 -20 -6 -4 -6 7 1 11 -2 -17 28 31 25 9 -20 -20 -20 -20 -20 -20 -20
8 11 20 23 21 -14 0 -6 23 26 10 16 -20 -20 4 -20 -20 -5 14 -11 -20 -20 -20 -20 -20 19 -20 23 12 7 -20 11 21 28 32 27 7 11 -11 -20 -20 -20 -20 -20 -20
11 17 8 22 23 11 0 23 23 -19 9 19 19 -20 -20 11 -20 3 5 9 -20 -20 24 -20 -20 -20 -14 -20 0 -7 -6 15 9 9 30 27 17 21 -20 -20 -20 -20 -20 -20 -20
9 7 4 7 8 3 -20 -20 11 -20 -20 -20 -20 -20 -20 -20 -7 9 -11 16 -20 16 7 -20 -20 -20 -5 -20 -10 -16 -9 9 18 -9 8 31 14 -4 -20 -20 -20 -20 -20 -20 -20
16 10 14 -0 6 -7 -20 -20 -20 -20 -6 -20 -8 -20 -20 -20 -19 -8 -6 21 -13 28 22 9 -20 -20 -20 -15 -16 -20 -9 11 17 -20 -17 -18 -20 -20 -20 -20 -20 -20 -20 -20 -20
14 6 2 11 8 20 -20 -20 -20 -20 -20 -20 -10 -20 -19 -20 -20 -20 10 5 -6 8 25 10 -20 -20 -20 0 -20 12 -18 11 -15 -20 -20 -20 -20 -20 -5 -20 -20 -20 -20 -20 -20
12 6 4 10 -10 -20 -20 -20 -20 -20 -20 -20 -15 -20 -20 -20 -20 -20 -3 3 2 6 19 24 2 -20 -20 -20 -15 -11 -20 -20 -20 -20 -20 -8 -20 -20 13 -19 -20 -20 -20 -20 -20
13 -5 -16 1 -20 -20 -20 -20 -20 -20 -20 -20 -20 -3 -20 -20 -20 -20 -20 -17 2 -8 26 1 25 -20 -7 10 -14 15 -6 -20 -20 -20 -20 -4 -19 -20 -15 -20 -20 -20 -20 -20 -20
9 -8 -20 -20 -20 -20 -20 -20 -20 -20 -20 -20 -20 -20 -20 -13 -20 -20 -20 -20 -11 16 25 25 4 -2 -11 -6 -20 1 -20 -20 -20 -20 -16 -20 -11 7 -20 -20 -20 -20 -20 -20 -20
18 -20 -20 -20 -20 -20 -20 -20 -20 -20 -2 6 -20 -20 -20 -20 -20 -20 -17 -19 -18 20 25 26 6 -20 -20 -20 -9 -20 8 -20 -20 -20 -20 -20 -20 14 -11 -20 -20 -20 -20 -20 -20
17 -20 -20 -20 -20 -20 -20 -20 -17 -1 2 2 -5 2 -20 -20 20 1 -1 14 -2 37 31 13 -9 -20 -20 -20 -20 -20 -20 -20 -20 -20 -20 -20 -20 0 -7 -20 -20 -20 -20 -20 -20
17 -4 -20 -20 -20 -20 -20 -20 -20 -20 22 14 28 24 -14 -17 -2 -20 -20 35 9 22 23 12 -17 -20 -12 -20 1 -3 -20 -20 -20 -20 -20 -20 -20 -18 -20 -20 -20 -20 -20 -20 -20
15 14 -20 -20 -20 -20 -20 -20 -20 -20 -2 29 26 10 -3 13 42 4 -17 27 -15 9 -7 33 -18 -20 -20 -8 -20 -20 -20 -19 -20 -20 -20 -20 -20 -20 -20 -20 -20 -20 -20 -20 -20
16 13 -20 -20 -20 -20 -20 -20 -20 -20 3 29 27 14 22 13 -20 21 13 7 21 31 24 -8 5 -20 -20 -20 -20 -20 -7 -18 -20 -20 -20 -20 -20 -20 -20 -20 -20 -20 -20 -20 -20
14 3 -20 -20 -20 -20 -20 -20 -20 -20 -2 27 33 2 -3 5 7 17 33 28 11 1 -2 -19 -5 -20 -20 -20 -20 6 -20 -20 -13 5 -15 -20 -20 -20 -20 -20 -20 -20 -20 -20 -20
-20 -20 -20 -20 -20 -20 -20 -20 -20 -20 -20 -20 -11 29 18 18 15 19 29 -11 9 -20 -20 -18 -11 -20 -20 -20 -20 -4 32 6 -9 -20 -20 -20 -20 -20 -20 -20 -20 -20 -20 -20 -20
-20 -20 -20 -20 -20 -20 -20 -20 -20 -20 -20 -20 -20 3 -18 5 11 -6 12 4 -20 -20 -20 -20 -16 -10 -20 -20 14 37 -2 -20 -20 -20 -20 -20 -20 -20 -20 -20 -20 -20 -20 -20 -20
-20 -20 -20 -20 -20 -20 -20 -20 -20 -20 -20 -20 -20 -18 -20 -17 -9 21 19 -3 -20 -20 -20 -20 -9 -20 -12 -20 13 40 11 -20 -20 -20 -20 -20 -20 -20 -20 -20 -20 -20 -20 -20 -20
-20 -20 -20 -20 -20 -20 -20 -20 -20 -20 -20 -20 -20 -20 -20 -20 -8 -20 -20 -20 -20 -20 -20 -20 -14 14 -1 -10 -17 30 13 5 -10 -20 -20 -20 -20 -20 -20 -20 -9 -7 -20 -20 -20
-20 -20 -20 -20 -20 -20 -20 -20 -20 -20 -20 -20 -20 -20 -20 -20 -20 -20 -20 -20 -20 -17 -20 -20 -20 16 13 16 -17 27 29 -4 -19 -20 -20 -20 -20 -20 -20 -20 -18 -20 -20 -20 -20
-20 -20 -20 -20 -20 -20 -20 -20 -20 -20 -20 -20 -20 -20 -20 -20 -20 -20 -20 -20 -20 -20 -20 -20 -20 -18 -20 -12 -1 -9 2 -20 -20 -20 -20 -20 -20 -20 -20 -20 -20 -20 -20 -20 -20
-20 -20 -20 -20 -20 -20 -20 -20 -20 -20 -20 -20 -20 -20 -20 -20 -20 -20 -20 -20 -20 -20 -20 -20 -20 -20 -20 -20 -20 -4 -19 -3 7 -20 -20 -20 -20 -20 -20 -20 -20 -20 -20 -20 -20
-20 -20 -20 -20 -20 -20 -20 -20 -20 -20 -20 -20 -20 -20 -20 -20 -20 -20 -20 -20 -20 -20 -20 -20 -20 -20 -20 -20 -20 -20 -20 -20 -8 4 -12 -11 -20 -20 -20 -20 -20 -20 -20 -20 -20
-20 -20 -20 -20 -20 -20 -20 -20 -20 -20 -20 -20 -20 -20 -20 -20 -20 -20 -20 -20 -20 -20 -20 -20 -20 -20 -20 -20 -20 -20 -20 -20 -20 -20 -20 -20 -20 -20 -20 -20 -20 -20 -20 -20 -20
-20 -20 -20 -20 -20 -20 -20 -20 -20 -20 -20 -20 -20 -20 -20 -20 -20 -20 -20 -20 -20 -20 -20 -20 -20 -20 -20 -20 -20 -20 -20 -20 -20 -20 -20 -20 -20 -20 -20 -13 -20 -20 -20 -20 -20
-20 -20 -20 -20 -20 -20 -20 -20 -12 -20 -16 -20 -20 -20 -20 -20 -20 -20 -20 -20 -20 -20 -20 -20 -20 -20 -20 -20 -20 -20 -20 -20 -20 -20 -20 -20 -20 -20 -20 -20 -20 -20 -20 -20 -20

GFSSW_prec_radar_072.txt.gz
Reflectivity
-2 8 22 17 12 -6 9 -20 -11 -20 -2 -20 -20 20 9 15 8 -15 -20 2 -20 -20 -20 -20 -20 -20 21 -20 -8 29 29 11 5 29 16 -16 -20 -20 -20 -20 -20 -20 -20 -20 -20
15 13 11 7 10 -11 3 22 -13 -20 26 -20 -20 -20 -16 19 -10 -20 2 14 -12 -20 18 -20 -20 -20 17 5 -20 18 26 1 -20 10 21 -19 -20 -20 -14 -20 -20 -20 -20 -20 6
14 12 7 -15 10 -19 22 19 25 -20 -20 -20 -20 -20 -19 -15 -2 -20 27 7 3 11 19 -20 -20 -20 1 -13 -20 -9 25 -7 -8 24 34 2 3 -20 -20 -20 -20 -20 -20 22 -20
10 13 16 4 13 -17 20 -2 -11 23 -20 -20 -20 -20 -20 -16 -20 2 -6 12 16 -7 33 -20 -20 15 5 -11 -8 -0 10 17 17 36 30 29 21 -20 -20 -20 -20 -20 -20 -20 17
-9 11 7 10 9 -20 -20 -20 -20 -20 -20 -20 -20 -20 -20 -20 -5 4 -20 19 15 1 2 -20 -20 13 -18 -14 -9 -6 9 17 20 18 19 29 39 24 -20 -20 -20 -20 -20 -20 -20
3 3 16 1 5 -20 -20 -20 -20 -20 -20 -20 -20 -20 -20 -20 -13 22 -15 18 6 -4 24 16 -20 -20 -10 7 19 -20 9 11 -5 -20 18 8 31 24 0 -20 -20 -20 -20 -20 -20
8 -1 17 6 -20 -20 -20 -20 -20 -20 -20 -20 -20 -20 -20 -20 -20 9 -20 16 13 4 17 19 -20 -20 -20 -20 5 -20 19 10 -2 -19 10 17 27 28 21 -14 -20 -20 -20 -20 -20
9 3 11 4 -20 -20 -20 -20 -20 -20 -20 -20 -20 -20 -20 -20 -20 -20 -10 5 13 -3 3 -9 -20 -20 -20 -15 -20 25 -16 18 4 -9 -1 11 12 14 -3 -18 -18 -20 -20 -20 -20
10 -1 -9 -20 -20 -20 -20 -20 -20 -20 -20 -20 -20 -20 -20 -20 -20 -16 -20 -16 11 -20 11 18 23 -20 -20 3 -14 -3 -19 -18 4 -16 -19 -0 7 7 -17 -20 -20 -20 -20 -20 -20
14 -12 -20 -20 -20 -20 -20 -20 -20 -20 -20 -20 -20 -20 -20 -20 -20 -9 -12 -20 6 12 33 26 23 -20 -20 -15 -15 -20 -20 -20 -10 8 -6 -19 6 7 -20 -20 -20 -20 -20 -20 -20
7 12 -20 -20 -20 -20 -20 -20 -20 -20 -20 -20 -20 -20 -20 -20 -20 -0 -20 -20 6 -1 36 27 19 -20 -20 -20 -20 -20 -20 -20 -20 -20 -5 -0 -17 13 5 -20 -20 -20 -20 -20 -20
-13 5 -10 -20 -20 -20 -20 -20 -20 -20 -20 -14 -20 -18 -20 -20 7 -20 -20 -20 -3 -16 16 16 3 -20 -20 4 -20 -20 -20 -20 -20 -20 -20 -20 -17 -19 -20 -20 -20 -20 -20 -20 -20
2 -13 -11 -20 -20 -20 -20 -20 -20 -20 -15 18 26 -13 -20 -5 -15 -20 -10 -20 -5 17 27 1 -15 -20 -20 -12 -11 -20 -20 -20 -20 -20 -20 -20 -20 -20 -20 -20 -20 -20 -20 -20 -20
-19 -5 -20 -20 -20 -20 -20 -20 -20 -20 -2 17 14 -3 15 -17 3 -20 10 18 28 37 40 11 -20 -15 -20 -20 -20 5 -20 -20 -20 -20 -20 -20 -20 -20 -20 -20 -20 -20 -20 -20 -20
4 -20 -20 -20 -20 -20 -20 -20 -20 -20 -2 35 22 -14 -12 17 4 1 -20 16 9 10 17 14 -19 -20 12 -20 -20 2 -20 -20 -20 -20 -20 -20 -20 -20 -20 -20 -20 -20 -20 -20 -20
-20 -20 -20 -20 -20 -20 8 -20 -20 -20 -20 30 11 12 13 6 -1 10 28 25 25 29 29 -3 -9 -20 -20 -20 -20 -20 -20 -20 -20 -20 -20 -20 -20 -20 -20 -20 -20 -20 -20 -20 -20
-20 -20 -20 -20 -20 -20 -20 -20 -20 -20 -20 -19 26 16 18 8 21 15 19 15 3 3 17 16 -14 -20 -20 -20 -20 -4 -20 -20 1 11 -20 -20 -20 -20 -20 -20 -20 -20 -20 -20 -20
-20 -20 -20 -20 -20 -20 -20 -20 -20 -20 -20 -20 -20 10 26 7 -16 14 5 4 3 -20 -20 -19 -5 -20 -20 -20 -20 -20 -20 -20 -20 -20 -20 -20 -20 -20 -20 -20 -20 -20 -20 -20 -20
-20 -20 -20 -20 -20 -20 -20 -20 -20 -20 -20 -20 -20 -20 -0 17 -17 -8 -20 -20 -20 -20 -20 -20 -20 -20 -20 -20 -20 -15 10 -20 -20 -20 -20 -20 -20 -20 -20 -20 -20 -20 -20 -20 -20
-20 -20 -20 -20 -20 -20 -20 -20 -20 -20 -20 -20 -20 -20 -20 -3 16 -20 -20 -20 -20 -20 -20 -20 -13 -20 -20 -16 -20 -18 1 13 -7 -20 -20 -20 -20 -20 -20 -20 -20 -20 -17 -6 -20
-20 -20 -20 -20 -20 -20 -20 -20 -20 -20 -20 -20 -20 -20 -20 -20 -20 -20 -20 -20 -20 -20 -20 -20 -20 5 16 11 6 8 31 24 -20 -20 -20 -20 -20 -20 -20 -20 -20 -8 8 1 -20
-20 -20 -20 -20 -20 -20 -20 -20 -20 -20 -20 -20 -20 -20 -20 -20 -20 -20 -20 -20 -20 -20 -20 -20 -20 3 -0 -11 -17 -15 1 -20 -20 -20 -20 -20 -20 -20 -20 -20 -20 -9 -16 -20 -8
-20 -20 -20 -20 -20 -20 -20 -20 -20 -20 -20 -20 -20 -20 -20 -20 -20 -20 -20 -20 -20 -20 -20 -20 -20 -20 -19 -15 13 21 -20 -20 -20 -20 -20 -20 -20 -20 -20 -20 -20 -20 -20 -20 -20
-20 -20 -20 -20 -20 -20 -20 -20 -20 -20 -20 -20 -20 -20 -20 -20 -20 -20 -20 -20 -20 -20 -20 -20 -20 -20 -20 -20 -20 -20 -20 -20 -10 -19 -20 -20 -20 -20 -20 -20 -20 -20 -20 -20 -20
-20 -20 -20 -20 -20 -20 -20 -20 -20 -20 -20 -20 -20 -20 -20 -20 -20 -20 -20 -20 -20 -20 -20 -20 -20 -20 -20 -20 -20 -20 -20 -20 -20 -18 -20 -20 -20 -7 -14 -4 -20 -20 -20 -20 -20
-20 -20 -20 -20 -20 -20 -20 -20 -20 -20 -20 -20 -20 -20 -20 -20 -20 -20 -20 -20 -20 -20 -20 -20 -20 -20 -20 -20 -20 -20 -20 -20 -20 -20 -20 -20 -20 -2 -5 -20 -20 -20 -20 -20 -20
-20 -20 -20 -20 -20 -20 -20 -20 -20 -20 -20 -20 -20 -20 -20 -20 -20 -20 -20 -20 -20 -20 -20 -20 -20 -20 -20 -20 -20 -20 -20 -20 -20 -20 -20 -20 -20 -20 -20 -20 -20 -20 -20 -20 -20

GFSSW_prec_radar_075.txt.gz
Reflectivity
12 15 11 -18 10 16 2 1 -20 -3 -20 -20 -20 -20 8 27 26 19 -19 -9 -20 -9 -2 -20 -20 -18 0 -20 -20 -18 -4 -20 -19 1 23 -14 -20 -20 -20 -20 -20 -20 -20 -20 -20
14 14 6 -2 7 8 -2 -12 -20 -20 -20 -20 -20 -20 25 16 18 -6 11 3 -13 -20 -14 -20 -20 2 30 -20 -9 30 -0 -20 -19 9 13 -18 -20 -20 -20 -20 -20 21 -20 -20 -20
15 11 6 12 11 1 -20 -20 -20 -20 -20 -20 -20 -20 -20 -20 -13 -11 22 -17 -7 -20 25 -20 -20 -20 16 -20 -20 -15 3 -20 -12 18 17 10 -18 -20 -20 -20 -20 24 -20 -20 -20
10 11 9 14 -8 -16 -20 -20 -20 -20 -20 -20 -20 -20 -20 -20 15 -3 22 -18 -18 -20 1 -20 -20 -20 12 6 -19 -20 -19 1 30 26 8 24 11 -19 -20 -20 -20 -20 26 -14 -20
11 11 6 6 -6 -20 -20 -20 -20 -20 -20 -20 -20 -20 -20 -20 -11 -12 -20 -20 9 -15 4 -20 -20 -4 13 7 13 -20 -20 24 35 21 26 27 9 21 -20 -20 -20 -20 15 -17 8
2 14 6 -1 -1 -20 -20 -20 -20 -20 -20 -20 -20 -20 -20 -20 -20 13 -20 -14 -2 -6 -2 -6 -20 -20 -0 -20 10 -9 -20 -17 -19 36 13 27 26 27 -20 -20 -20 -17 -20 -20 -20
7 6 15 -8 -20 -20 -20 -20 -19 -20 -20 -20 -20 -20 -20 -20 -20 25 -8 2 -18 8 -7 16 -20 -4 -20 -20 -20 -20 10 -20 11 28 25 32 34 35 11 -20 -20 -20 25 -20 -20
6 -12 5 -0 -20 -20 -20 -20 -20 -20 -20 -20 -20 -20 -20 -20 -20 -15 -19 -2 15 5 -20 26 -20 20 16 -20 -20 16 -12 -14 -13 14 26 29 19 5 32 -16 -20 -14 -20 -20 -20
1 -16 -5 -1 -20 -20 -20 -20 -20 -20 -20 -20 -20 -20 -20 -20 -20 -7 -20 -14 13 -13 16 21 4 -20 -7 -20 -13 -20 -20 -20 -20 1 8 4 15 31 30 28 -11 -15 -18 0 -20
14 9 -20 -20 -20 -20 -20 -20 -20 -20 -20 -20 -20 -20 -20 -20 -20 -20 -20 13 -9 8 36 33 17 -20 -20 -11 -16 -19 -20 -20 -20 -7 2 -5 11 21 26 17 17 -20 -20 -20 -20
6 10 -19 -20 -20 -20 -20 -20 -20 -20 -20 -3 -2 -20 -20 -20 -20 -20 -20 14 -4 15 18 35 7 -20 -20 -20 -20 -20 -20 -20 -20 -15 -8 6 12 15 12 9 -20 -20 -20 -20 -20
5 0 -5 -20 -20 -20 -20 -20 -20 -20 -20 -20 -20 -20 -20 -20 -9 -20 -20 4 -2 20 28 14 6 -19 -20 -17 -20 -20 -20 -20 -20 -20 -5 3 13 7 10 5 -12 -20 -20 -20 -20
3 -17 -17 -20 -20 -20 -20 -20 -20 -20 -20 -11 -20 -14 -11 -10 -13 -20 -20 -1 8 20 33 27 9 -20 -20 1 -20 -20 -20 -20 -20 -20 -20 -19 -14 9 -16 -20 -20 -20 -20 -20 -20
-2 8 -20 -20 -20 -20 -20 -20 -20 -20 -5 13 14 -20 13 -20 -17 -20 -19 -18 -17 23 34 20 -5 -20 -20 -20 -20 -13 -20 -20 -20 -20 -20 -20 -20 -20 -5 -1 -20 -20 -20 -20 -20
-20 -0 -20 -20 -20 -20 -20 -20 -20 -20 -20 24 17 14 6 9 -19 4 -20 -5 -20 0 28 29 -11 -20 -20 -20 -20 -20 -20 -20 -20 -20 -20 -20 -20 -20 -20 -20 -20 -20 -20 -20 -20
-20 -20 -20 -20 -20 -20 -20 -20 -20 -20 -20 22 -4 17 19 -14 -4 -7 -20 -19 -3 7 21 16 -20 -20 -20 -20 -20 -20 -20 -20 -20 -20 -20 -20 -20 -20 -20 -20 -20 -20 -20 -20 -20
-20 -20 -20 -20 -20 -20 -19 -20 -20 -20 -20 -19 21 7 1 4 3 -20 -19 4 -3 15 29 23 -20 -20 -20 -20 -20 -20 -18 7 -19 -6 -20 -20 -20 -20 -20 -20 -20 -20 -20 -20 -20
-20 -20 -20 -20 -20 -20 -20 -20 -20 -20 -20 -20 -20 -8 15 13 -2 -15 12 15 16 0 -17 2 10 -20 -20 -20 -17 -20 -20 -19 -20 -20 -20 -20 -20 -20 -20 -20 -20 -20 -20 -20 -20
-20 -20 -20 -20 -20 -20 -20 -20 -20 -20 -20 -20 -20 -20 8 14 -5 8 15 6 -20 -20 -20 -20 -20 -20 -20 -20 -20 -18 -17 -20 -20 -20 -20 -20 -20 -20 -20 -20 -20 -20 -20 -20 -20
-20 -20 -20 -20 -20 -20 -20 -20 -20 -20 -20 -20 -20 -20 -20 -20 -18 -18 -20 -20 -20 -20 -20 -20 -20 -20 -20 -16 -20 -20 -20 -15 -20 -11 -20 -20 -20 -20 -20 -20 -20 -20 -20 -20 -20
-20 -20 -20 -20 -20 -20 -20 -20 -20 -20 -20 -20 -20 -20 -20 -20 -2 -20 -20 -20 -20 -20 -20 -20 -20 -5 -18 8 -20 -20 -12 -20 -20 -20 -20 -20 -20 -20 -20 -20 -20 -20 -20 -20 -20
-20 -20 -20 -20 -20 -20 -20 -20 -20 -20 -20 -20 -20 -20 -20 -20 -20 -20 -20 -20 -20 -20 -20 -20 -20 -20 -4 -6 -20 -16 -3 -18 -20 -20 -20 -20 -20 -20 -20 -20 -20 -20 -20 -20 -20
-20 -20 -20 -20 -20 -20 -20 -20 -20 -20 -20 -20 -20 -20 -20 -20 -20 -20 -20 -20 -20 -20 -16 -20 -19 -19 -18 1 -3 5 -18 -5 4 -16 -20 -20 -20 -20 -20 -20 -20 -20 -20 -20 -20
-20 -20 -20 -20 -20 -20 -20 -20 -20 -20 -20 -20 -20 -20 -20 -20 -20 -20 -20 -20 -20 -20 -20 5 -14 -20 -7 -17 -12 -9 -5 3 6 7 -20 -20 -20 -20 -20 -20 -20 -20 -20 -20 -20
-20 -20 -20 -20 -20 -20 -20 -20 -20 -20 -20 -20 -20 -20 -20 -20 -20 -20 -20 -20 -20 -20 -20 -20 -20 -20 -20 -20 -20 -20 -20 -20 -9 -19 -20 -20 -20 -20 -20 -20 -20 -20 -20 -20 -20
-20 -20 -20 -20 -20 -20 -20 -20 -20 -20 -20 -20 -20 -20 -20 -20 -20 -20 -20 -20 -20 -20 -20 -20 -20 -20 -20 -20 -20 -20 -20 -20 -20 -20 -20 -20 -20 -9 -15 -20 -20 -10 -20 -20 -20
-20 -20 -20 -20 -20 -20 -20 -20 -20 -20 -20 -20 -20 -19 -20 -20 -20 -20 -20 -20 -20 -20 -20 -20 -20 -20 -20 -20 -20 -20 -20 -20 -20 -20 -20 -20 -17 -20 -20 -20 -18 -20 -20 -20 -20

GFSSW_prec_radar_078.txt.gz
Reflectivity
13 -4 -10 4 17 9 -1 -0 11 -20 -20 -20 -20 -20 -20 -0 31 16 6 -7 12 -17 4 -6 -20 -20 -6 -15 -20 -19 -20 -20 -20 -20 -17 8 -17 -20 -20 -20 -20 -20 -20 -20 -20
13 4 10 13 17 0 -20 -6 -7 -20 -20 -20 -20 -20 -20 23 29 28 30 7 -2 14 -20 -20 -20 -20 17 -20 17 -4 -20 -20 -20 -20 -14 10 -18 -20 -20 -20 -20 -20 -11 -20 -20
6 4 16 -5 8 -20 -20 -20 -20 -2 -20 -20 -20 -20 -20 -20 1 9 31 13 6 4 -20 12 -20 -20 8 -5 -20 -20 -20 -20 -20 -20 -20 -5 -18 -20 -20 -20 -20 -20 -19 18 -19
8 14 11 5 2 -20 -20 -20 -19 -20 -20 -20 -20 -1 -20 -20 -4 2 2 23 9 10 -20 -20 -20 -8 12 7 -20 -20 -16 -5 -20 -20 -20 -17 -8 -20 -20 -20 -20 -20 -20 -17 0
8 18 16 8 -11 -20 -20 -20 -20 -20 -20 -20 -20 -20 -20 -20 -20 -11 -1 23 -14 17 -15 -20 -12 -12 11 12 -20 -19 -7 -20 -7 -20 -20 -20 12 -20 -20 -20 -20 -20 -20 -20 -15
13 6 7 5 -9 -20 -20 -20 -20 -20 -20 -20 -20 -20 -20 -20 -6 -7 -20 -17 12 17 7 12 -20 -20 7 4 9 -20 -20 8 -11 -20 -20 -20 9 -11 -20 -20 -20 -20 -20 -20 -5
10 0 10 -0 -6 -20 -20 -20 -20 -20 -20 -20 -20 -20 -20 -20 -20 -20 -20 -17 17 7 -7 7 -20 13 -18 9 -3 -18 9 -20 -20 -20 6 3 -11 25 1 -20 -20 -20 -20 -20 -20
15 9 -1 1 -2 -18 -20 -20 -20 -20 -20 -20 -20 -20 -20 -20 -20 -18 -20 -7 11 5 -18 -0 -20 -20 -20 -20 -20 21 13 10 -20 -20 -5 12 20 9 21 -19 -20 -20 -20 -20 -20
15 14 -20 -20 -20 -20 -20 -20 -20 -20 -20 -20 -20 -20 -20 -20 -20 -7 3 -15 26 24 -20 26 -20 -20 -20 -11 -11 -16 -5 2 -20 -20 -12 7 -10 16 32 15 -20 -20 -20 -16 -20
12 16 -14 -20 -20 -20 -20 -20 -20 -20 -20 -20 -20 -20 -20 -20 -20 -20 -20 -3 -1 24 3 14 -12 -20 -20 -20 -20 9 -20 -9 -20 -20 -12 1 9 10 24 32 -13 -18 -20 -19 -20
15 12 14 -20 -20 -20 -20 -20 -20 -20 -20 -20 -20 -20 -20 -20 -20 -20 -20 18 3 -12 6 32 -4 -20 -20 -20 -20 -20 -20 -20 -20 -20 -20 -6 5 8 16 30 26 -1 -18 -20 -20
14 14 13 -20 -20 -20 -20 -20 -20 -20 -20 -20 -20 -20 -20 -20 -20 -20 -20 17 -16 14 18 34 10 -20 -20 -20 -20 -20 -20 -20 -20 -20 -20 -20 -13 -1 4 -4 27 24 -6 -20 -20
3 17 14 -17 -20 -20 -20 -20 -20 -20 -20 -1 -10 -20 -20 -20 -20 -20 15 -12 20 2 25 39 -13 -20 -20 -0 -20 -20 -20 -20 -20 -20 10 -20 -20 -20 -14 6 17 11 -8 -20 -20
-4 17 15 -20 -20 -20 -20 -20 -20 -20 -20 8 0 -10 -20 -20 -20 -20 14 -15 -12 25 24 4 -20 -20 -13 -1 -20 -20 -20 -20 -20 -20 -20 -20 -2 -20 -5 16 13 -17 -20 -20 -20
-18 15 10 -20 -20 -20 -20 -20 -20 -20 -20 10 16 -4 8 -20 -20 -20 -20 -20 -3 10 21 26 6 -20 -20 -20 -20 -20 -20 -20 -20 -20 -20 -20 -20 -20 -20 8 -7 4 -16 -14 -7
-20 5 -15 -20 -20 -20 -20 -20 -20 -20 -20 -16 -12 13 -0 7 -3 -5 -20 -20 -10 13 28 6 3 -20 -20 -20 -20 -20 -20 -20 -20 -20 -15 -20 -20 -20 -20 -14 2 3 8 7 -19
-20 -20 -20 -20 -20 -20 -20 -20 -20 -20 -20 -16 25 -20 3 -7 -20 -17 -7 -20 -15 -20 15 24 -10 -20 -20 -20 -20 -20 -17 -14 -1 -4 -12 -20 -20 -20 -2 -20 -20 -20 -16 -7 -9
-20 -20 -20 -20 -20 -20 -20 -20 -20 -20 -20 -17 -7 -19 -16 -20 -14 -12 -17 -19 -20 -20 -6 -6 12 -19 -20 -20 -18 -20 -20 -20 -20 -20 -20 -20 -20 -20 -20 -20 -20 -20 -20 -20 -20
-20 -20 -20 -20 -20 -20 -13 -20 -20 -20 -20 -20 -20 -17 -17 12 -9 -10 -20 -20 -20 -20 14 -20 -20 -20 -20 -20 -20 -18 -20 -20 -20 -20 -20 -20 -20 -20 -20 -20 -20 -20 -20 -20 -20
-20 -20 -20 -20 -20 -20 -20 -20 -20 -20 -20 -20 -20 -20 -20 -20 -20 -13 -19 -20 -20 -20 -20 -20 -20 -17 -20 -20 -20 -20 -20 -10 -20 -11 -20 -20 -20 -20 -20 -20 -20 -20 -20 -20 -20
-20 -20 -20 -20 -20 -20 -20 -20 -20 -20 -20 -20 -20 -20 -20 -20 -20 -20 -20 -20 -20 -20 -20 -20 -20 -3 -3 -17 -18 -12 -20 -20 -20 -20 -20 -20 -20 -20 -20 -20 -20 -20 -20 -20 -20
-20 -20 -20 -20 -20 -20 -20 -20 -20 -20 -20 -20 -20 -20 -20 -20 -20 -20 -20 -20 -20 -20 -20 -20 -20 -20 -19 -20 -20 -1 7 -10 -19 -20 -20 -20 -20 -20 -20 -20 -20 -20 -20 -20 -20
-20 -20 -20 -20 -20 -20 -20 -20 -20 -20 -20 -20 -20 -20 -20 -20 -20 -20 -20 -20 -20 -20 4 -8 -20 -20 -7 -15 -20 -6 -20 -7 -18 -20 -20 -20 -20 -20 -20 -20 -20 -20 -20 -20 -20
-20 -20 -20 -20 -20 -20 -20 -20 -20 -20 -20 -20 -20 -20 -20 -20 -20 -20 -20 -20 -20 -20 3 19 -8 -20 -20 -20 -20 7 -20 -17 -19 -19 -20 -20 -20 -20 -20 -20 -20 -20 -20 -20 -20
-20 -20 -20 -20 -20 -20 -20 -20 -20 -20 -20 -20 -20 -20 -20 -20 -20 -20 -20 -20 -20 -20 -20 -9 -16 -2 -20 -20 -20 -20 -20 -20 -7 -18 -3 -20 -20 -20 -20 -20 -20 -20 -20 -20 -20
-20 -20 -20 -20 -20 -20 -20 -20 -20 -20 -20 -20 -20 -20 -20 -20 -20 -20 -20 -20 -20 -20 -20 -20 -18 -20 -20 -20 -20 -20 -20 -20 -20 -20 -20 -20 -20 -20 -20 -20 -20 -20 -10 -18 -20
-20 -20 -20 -20 -20 -20 -20 -20 -20 -20 -20 -20 -20 -17 -20 28 14 2 -18 -20 -20 -20 -20 -20 -20 -20 -20 -20 -20 -20 -19 -20 -20 -20 -20 -20 -20 -20 -20 -20 -3 5 -20 -20 -20

GFSSW_prec_radar_081.txt.gz
Reflectivity
15 12 14 9 0 0 -0 1 -20 -20 -20 -20 -20 -20 13 -8 -7 35 17 -10 -20 11 10 -5 -8 -20 -20 -15 4 -15 23 13 -20 -20 -20 -20 -20 -20 -20 -20 -20 -20 -20 -7 -20
12 14 4 5 -18 -8 -12 -20 -20 -20 -20 -20 -20 -20 -20 20 -20 7 37 -18 -5 -4 15 -19 3 -11 10 -20 15 -0 -8 -20 -20 -20 -20 -20 -20 -20 -20 -20 -20 -20 -20 14 13
12 17 12 14 3 -10 -20 1 -0 -20 -20 -20 -20 -20 -20 -20 6 -3 26 6 11 14 -15 5 -20 -20 3 -11 -8 -20 -20 -20 -20 -20 -20 -20 -20 -20 -20 -20 -20 -20 -20 20 11
14 16 17 18 -0 -15 -20 5 -18 -20 -20 -20 -20 -20 -20 -20 -6 7 28 -4 -14 7 15 15 -20 -20 -19 2 -20 1 11 -18 -20 -20 -20 -20 -20 -20 -20 -20 -20 -20 -20 -20 -15
14 5 16 14 -0 -20 -20 -20 -10 -20 -20 -20 -20 -20 -20 -20 -16 30 17 23 -20 3 14 -2 -16 -20 -18 7 -20 -20 16 5 -16 -20 -20 -20 -20 -20 -20 -20 -20 -20 -20 -20 -20
15 6 13 16 -1 -11 -20 -20 -20 -20 -20 -20 -20 -20 -20 -20 -20 -13 11 31 -20 -14 10 7 8 -13 -20 10 -10 -20 -15 21 -11 -20 -20 -20 -20 -20 -20 -20 -20 -20 -20 -20 -20
16 12 -5 9 5 -1 -20 -20 -20 -20 -20 -20 -20 -20 -20 -20 -20 -19 -11 11 -20 -11 -7 1 17 13 -20 -3 -20 -20 12 10 -20 -20 -20 -20 -20 -20 -20 -20 -20 -20 -20 -20 -20
16 16 14 1 3 -3 -12 -20 -20 -20 -20 -20 -20 -20 -20 -20 -20 -20 -6 -20 -20 -20 -20 -4 -11 -20 -20 -20 25 8 6 7 -20 -20 -20 -20 -20 -20 -20 -9 -20 -20 -20 -20 -20
12 16 13 -11 -6 -20 -20 -20 -20 -20 -20 -20 -20 -20 -20 -20 -20 -20 -20 -20 -20 1 6 24 -3 -16 -20 17 3 12 11 -7 -20 -20 -20 -20 -20 -20 -20 9 -6 -20 -20 -20 -20
15 16 9 -16 -20 -20 -20 -20 -20 -20 -20 -20 -20 -20 -20 5 13 -20 -20 7 4 9 -8 35 3 -19 -19 -9 -10 9 13 2 -18 -20 -20 -20 -20 -20 -20 -13 20 -20 -20 -20 -9
6 13 14 12 -20 -20 -20 -20 -20 -20 -20 -20 -20 -20 -20 -20 -20 -17 -20 14 35 16 7 27 2 0 -20 -2 -20 -20 7 -20 -20 -20 -20 -20 -20 -20 -20 -20 11 -20 -20 -20 -10
0 14 13 11 -20 -20 -20 -20 -20 -20 -20 -20 -20 -20 -20 -20 -20 -20 8 4 34 2 18 23 8 -20 -20 -20 7 -19 -20 -20 -20 -20 -20 -20 -20 -20 -20 -20 10 20 -20 -20 -20
-2 15 6 8 -7 -20 -20 -20 -20 -20 -20 -11 -20 -20 -20 -20 -20 -16 19 -11 6 -20 -7 18 13 -20 -20 3 10 -20 -20 -20 -20 -20 -20 -20 -17 -20 -20 -20 4 17 1 -20 -20
-3 14 7 -20 -20 -20 -20 -20 -20 -20 -20 7 -1 -20 -20 -20 -19 -17 -17 -20 -20 -2 -6 16 18 -20 -13 -20 -20 -20 -20 -20 -20 -20 6 -18 0 -20 -20 -20 -20 9 12 -20 -20
-6 13 -20 -20 -20 -20 -20 -20 -20 -20 -20 -20 -20 -20 -20 -20 -19 -20 -20 -20 -20 -20 23 19 3 -0 -18 -20 -20 -20 -20 -20 -20 -20 -20 -20 -20 -20 -20 -20 -20 -5 7 8 -1
4 -7 -20 -20 -20 -20 -20 -20 -20 -20 -20 -17 -4 -5 -20 -20 -20 -19 -20 -20 -12 4 3 11 -20 -20 -20 -20 -20 -20 -20 -20 -20 -20 -20 -20 -20 -20 -20 -20 -20 -20 8 9 23
-20 -20 -20 -20 -20 3 -20 -20 -20 -20 -20 -19 -20 -20 -7 -20 -20 -18 -5 -20 -13 -6 26 16 6 -20 -20 -20 -8 -5 -20 -9 -20 -20 -20 -20 -20 -20 -20 -20 -20 4 -16 -2 12
-20 -20 -20 -20 -20 -20 -20 -20 -20 -20 -20 -20 -20 -20 -0 -20 -20 -20 0 -20 -20 -20 4 10 12 -4 -20 -20 -16 -20 -18 -20 -20 -20 -20 -20 -20 -20 -20 -20 -20 -18 -13 -8 -9
-20 -20 -20 -20 -20 -20 -20 -20 -20 -20 -20 -20 -20 -7 -17 5 -18 -19 5 -20 -20 -20 -20 -20 -10 -19 -20 -20 -20 -20 -20 -20 -20 -20 -20 -20 -20 -20 -20 -20 -20 -20 -20 -20 -20
-20 -20 -20 -20 -20 -20 -20 -20 -20 -20 -20 -20 -20 -20 -9 -8 -14 -13 -20 -20 -20 -20 -20 -20 -20 -17 -16 1 -19 -20 -20 -11 -20 -20 -20 -20 -20 -20 -20 -20 -20 -20 -20 -20 -20
-20 -20 -20 -20 -20 -20 -20 -20 -20 -20 -20 -20 -20 -20 -20 -20 -20 -20 -20 -20 -20 -20 -20 -20 -20 -1 -2 -2 0 -14 -20 -20 -20 -20 -20 -20 -20 -20 -20 -20 -20 -20 -20 -20 -20
-20 -20 -20 -20 -20 -20 -20 -20 -20 -20 -20 -20 -20 -20 -20 -20 0 -20 -20 -20 -20 -20 -20 -20 -20 -20 -6 -20 -20 -18 -20 -9 2 -19 -20 -20 -20 -20 -20 -20 -20 -20 -20 -20 -20
-20 -20 -20 -20 -20 -20 -20 -20 -20 -20 -20 -20 -20 -20 -20 -20 -20 -20 -20 -20 -20 -20 -20 -20 -15 -14 -19 -16 -19 -15 -20 0 -20 -20 -20 -20 -20 -20 -20 -20 -20 -20 -20 -20 -20
-20 -20 -20 -20 -20 -20 -20 -20 -20 -20 -20 -20 -20 -20 -20 -20 -20 -20 -20 -20 -20 -20 13 -9 -18 -20 -20 -20 -20 -20 -20 -16 2 -19 -19 -20 -20 -20 -20 -20 -20 -20 -20 -20 -20
-20 -20 -20 -20 -20 -20 -20 -20 -20 -20 -20 -20 -20 -20 -20 -20 -20 -20 -20 3 -20 -20 28 25 21 -6 -20 -20 -20 -20 -20 -20 -20 -20 -20 -20 -20 -20 -20 -20 -20 -20 -20 -20 -20
-20 -20 -20 -20 -20 -20 -20 -20 -20 -20 -20 -20 -20 -20 -20 13 13 11 -5 5 -1 -20 -20 7 -20 -3 -1 -20 -20 -20 -20 -20 -20 -20 -20 -20 -20 -20 -20 -20 -20 -20 -20 -20 -20
-20 -20 -20 -20 -20 -20 -20 -20 -20 -20 -20 -20 -20 -20 -20 -20 5 12 17 10 23 14 -15 -20 -20 -5 -7 -20 -20 -20 -19 -11 -7 -20 -20 -20 -20 -20 -20 -20 -20 -20 -20 -20 -20

GFSSW_prec_radar_084.txt.gz
Reflectivity
7 3 10 13 -4 -4 -20 -20 -20 -20 -20 -20 -20 -20 -20 -20 -20 -20 35 19 3 -20 -20 -20 -3 -7 18 -4 -13 -5 21 18 -20 -20 -20 -20 -20 -20 -20 -20 -20 -20 -20 -20 -20
-3 10 8 -9 8 -20 -20 3 3 -20 -20 -20 -20 -20 -20 -20 -20 -6 27 14 -7 13 -20 10 -16 -11 3 -14 27 15 -5 -16 -20 -20 -20 -20 -20 -20 -20 -20 -20 -20 -20 -17 8
12 12 12 -12 -20 -20 -20 5 -20 -20 -20 -20 -20 -20 -20 -20 7 22 -4 -0 -14 -5 -16 -4 19 -1 -20 13 22 3 -20 -0 -20 -20 -20 -20 -20 -20 -20 -20 -20 -20 -20 -20 -11
13 6 11 6 -7 -20 -20 -20 -20 -20 -2 -19 -20 -20 -20 -20 15 8 29 20 3 9 -2 -20 10 -0 -19 -17 18 -2 5 22 -20 -20 -20 -20 -20 -20 -20 -20 -20 -20 -20 -20 18
9 11 6 7 -10 -20 -20 -20 -20 -20 -7 -20 -20 -20 -20 -20 -15 30 19 28 -20 -3 -8 25 -20 -20 -20 -16 20 1 12 20 -20 -20 -20 -20 -20 -20 -20 -20 -20 -20 -20 -20 14
7 14 -12 12 2 -8 -20 -20 -20 -20 -20 -20 -20 -20 -20 -20 -20 8 22 22 -20 12 -5 31 -5 -20 -10 9 19 -20 17 16 -20 -20 -20 -20 -20 -20 -20 -20 -20 -20 -20 -20 -20
12 13 10 -17 5 -19 -3 -20 -20 -20 -20 -20 -20 -20 -20 -20 -20 -13 -1 19 -19 -10 26 23 -12 -20 -19 18 18 -20 23 15 17 -17 15 -20 -20 -20 -20 -20 -20 -20 -20 -20 -20
14 15 13 12 -3 -7 -20 -20 -20 -20 -20 -20 -20 -20 -20 -20 -20 -20 -15 -20 -20 -9 24 33 -14 5 -16 -20 17 -15 -10 6 -8 -20 3 -20 -20 -20 -20 -20 -20 -20 -20 -20 -20
12 13 13 9 -19 -20 -20 -20 -20 -20 -20 -20 -20 -20 -20 -20 -20 -20 10 -9 -9 16 -5 32 19 -4 -6 -4 9 16 -18 -5 -15 -20 -10 -20 -20 -20 -20 -20 -20 -20 -20 -20 -20
6 11 14 11 -20 -20 -20 -20 -20 -20 -20 -20 -20 -20 -20 -5 -20 -6 -20 -20 -20 -20 0 24 23 11 2 8 -11 2 0 5 -13 -20 -20 -20 -20 -20 -20 -20 -20 -20 -20 -20 -20
-20 -20 5 10 -20 -20 -20 -20 -20 -20 -20 -20 -20 -20 -20 -20 -20 -20 -8 -20 23 3 -11 30 15 4 -20 19 -3 4 19 10 -12 -20 -20 -20 -20 -20 -20 -20 -20 -20 -20 -20 -20
-15 6 10 10 -20 -20 -20 -20 -20 -20 -20 -20 -20 -20 -20 -20 -20 0 -20 -20 -20 10 3 30 -6 11 -20 -20 -20 -4 -17 -20 -20 -20 -20 -20 -20 -20 -20 -20 -20 -20 -20 -20 -20
14 8 12 5 -20 -20 -20 -20 -20 -20 -12 -20 -20 -20 -20 -15 -1 2 3 -8 -14 2 11 38 -7 -20 -20 -13 -20 -20 -20 -20 -20 -20 -15 -20 -20 -20 -20 -20 -20 -20 -20 -20 -20
11 -2 4 -20 -20 -20 -20 -20 -20 -20 -3 -20 2 -20 -20 -20 -7 -3 5 -20 -18 -16 -20 -3 -15 -20 6 -14 -20 -14 -20 -20 -20 -20 -1 -20 -15 -20 -20 -20 -20 -20 -20 -20 -20
6 -13 -20 -20 -20 -20 -20 -20 -20 -20 -20 -20 -20 -20 -20 -20 -20 -12 -20 -18 -20 -20 -20 -6 -11 -20 -3 -2 -20 -1 -20 -12 -13 11 6 -19 0 -20 -20 -20 -20 -20 -20 -20 -20
-8 -20 -20 -20 -20 -20 -20 -20 -20 -20 -19 -20 -4 -6 4 -20 -20 -20 -1 -20 -20 -20 -20 -1 -14 7 -1 -20 -20 -20 -14 -20 -20 -5 -3 -20 -12 -20 -20 -20 -20 -20 -20 -20 3
-20 -20 -20 -20 -20 -20 -20 -20 -3 -20 -20 -20 -20 -17 -11 -20 -15 -20 5 -20 -7 -20 -13 12 -0 9 8 -3 11 9 13 11 14 12 -16 -20 -20 -20 -20 -20 -20 -20 -20 -20 12
-20 -20 -20 -20 -20 -20 -20 -20 -20 -20 -20 -20 -19 -20 12 -20 -4 -20 -20 -11 -15 -19 9 13 16 5 -16 -8 9 -7 -20 -18 -20 -20 -20 -20 -20 -20 -20 -20 -20 -20 -20 -20 -19
-20 -20 -20 -20 -20 -20 -20 -20 -20 -20 -20 -20 -20 -11 -20 9 5 -12 -20 -20 -20 -20 16 -16 -12 -20 -20 -20 -5 12 16 -20 -16 -20 -20 -20 -20 -20 -20 -20 -20 -20 -20 -20 -20
-20 -20 -20 -20 -20 -20 -12 -20 -20 -20 -20 -20 -20 -20 -10 -7 -19 -7 -19 -20 -20 -20 -20 -20 -12 -14 -5 -19 -20 -10 -20 -6 2 4 -11 -20 -20 -20 -20 -20 -20 -20 -20 -20 -20
-20 -20 -20 -20 -20 -20 12 -20 -20 -20 -20 -20 -20 -20 -20 -7 -13 -20 -20 -20 -20 -20 -20 -19 -0 4 20 13 21 -20 -12 -11 -11 5 3 -20 -20 -20 -20 -20 -20 -20 -20 -20 -20
-20 -20 -20 -20 -20 -20 -20 -20 -20 -20 -20 -20 -20 -20 -20 -20 6 -1 -20 -20 -20 -20 -19 -0 1 -20 -5 -20 -20 9 4 8 7 -17 -19 -19 -20 -20 -20 -20 -20 -20 -20 -20 -20
-20 -20 -20 -20 -20 -20 -20 -20 -20 -20 -20 -20 -20 -20 -20 -20 -18 -9 -20 -20 -17 -18 -19 -5 17 -0 7 -14 -16 9 -20 -20 4 -19 -16 -17 -20 -20 -20 -20 -20 -20 -20 -20 -20
-20 -20 -20 -20 -20 -20 -20 -20 -20 -20 -20 -20 -20 -20 -20 -20 -20 7 -19 -20 -18 24 20 11 -1 -20 -19 -20 -20 -10 -20 -1 -3 9 -2 -15 -20 -20 -20 -20 -20 -20 -20 -20 -20
-20 -20 -20 -20 -20 -20 -20 -20 -20 -20 -20 -20 -20 -20 -20 -20 -13 3 7 -12 8 -4 14 12 22 -19 -20 -20 -20 -20 -20 -20 -10 -20 2 -20 -20 -20 -20 -20 -20 -20 -20 -20 -20
-20 -20 -20 -20 -20 -20 -20 -20 -20 -20 -20 -20 -20 -20 -20 -4 2 15 19 18 -8 14 12 -5 31 15 19 18 -19 -20 -20 -20 -20 -20 -20 -20 -20 -20 -20 -20 -20 -20 -20 -20 -20
-20 -20 -20 -20 -20 -20 -20 -20 -20 -20 -20 -20 -20 -20 -20 -20 -20 -20 -4 15 39 25 26 -13 -16 -15 13 9 13 -1 -20 -20 -20 -20 -20 -20 -20 -19 -20 -20 -20 -20 -20 -20 -20

GFSSW_prec_radar_087.txt.gz
Reflectivity
15 -20 -1 2 11 -20 -20 4 4 -9 -20 -20 -20 -20 -20 -20 -20 -10 12 12 11 29 37 15 -2 -20 11 2 22 -20 24 -9 -15 10 -11 -19 -20 -20 -20 -16 9 -20 -20 -20 -20
15 -20 3 12 -9 -20 -15 9 -20 -20 -20 -20 -20 -20 -20 -20 15 22 -19 27 -9 3 23 28 23 -20 16 38 25 21 20 -20 -20 14 4 -12 -20 -20 -20 -20 -7 1 -20 -20 -1
8 -10 9 7 3 -20 -20 -19 1 -2 -3 -20 -20 -20 -20 -20 25 3 15 15 11 22 -19 22 -19 -20 -20 12 33 22 -16 -20 -15 12 28 12 -20 -20 -20 -7 -20 -7 1 -20 9
12 -1 -20 11 -6 -15 -20 -20 -20 -20 -20 -20 -20 -20 -20 -20 38 -11 27 30 34 -9 -20 -17 -20 -20 -20 10 35 23 -14 26 -20 30 -20 20 -20 -20 -20 -20 -20 -20 -16 -16 -14
13 6 -11 -20 12 -20 -20 -20 -20 -20 -20 -20 -20 -20 -20 2 -15 13 10 23 2 -20 -20 0 -3 -20 -20 -17 18 31 -15 2 -16 -8 10 -20 -20 -20 -20 -20 -20 -20 -20 -16 -20
10 3 5 -20 -4 -8 -16 -20 -20 -20 -20 -20 -20 -20 -20 10 -19 4 3 12 -20 -16 -20 -16 18 -18 -20 -20 -6 0 39 23 -20 -20 -20 -20 -20 -20 -20 -20 -20 -20 -20 -20 -20
12 12 7 1 -20 -1 -7 -19 -20 -20 -20 -20 -20 -20 -20 7 -20 -12 12 18 -20 26 -11 -20 -20 10 -4 -20 -20 -20 30 27 -20 32 9 -20 -20 -20 -20 -20 -20 -20 -20 -20 -20
-3 12 4 5 -19 -10 -20 -20 -20 -20 -20 -20 -20 -20 -17 -20 -20 -6 4 -15 -20 8 9 -10 8 -20 -5 -20 -20 -20 -10 -8 32 14 -20 -20 -20 -20 -20 -20 -20 -20 -20 -20 -20
9 8 1 2 -0 -20 -20 -20 -20 -20 -20 -20 -20 -20 7 -20 -20 -1 -19 -1 12 -20 -20 26 26 -11 1 4 14 -4 -8 3 26 -13 -20 -20 -20 -20 -20 -20 -20 -20 -20 -20 -20
10 -20 -0 10 -20 -20 -20 -20 -20 -20 -20 -20 -20 11 -20 -20 -20 -16 -20 -20 4 4 -0 35 13 13 7 3 -9 -11 -20 -20 -0 -17 -20 -0 -20 -20 -20 -20 -20 -20 -20 -20 -20
-12 2 11 12 -20 -20 -20 -20 -20 -20 -20 -20 -13 -2 -7 -20 -20 -20 -20 -14 -20 26 19 32 14 2 -20 -20 6 9 -20 -20 -20 7 -18 -20 -20 -20 -20 -20 -20 -20 -20 -20 -20
-16 11 12 6 -20 -20 -20 -20 -20 -20 -12 -20 -20 -20 -20 -20 -7 -19 -20 8 -14 13 -0 22 20 15 -20 -20 -20 -15 -20 -13 -20 -7 -20 -20 -20 -20 -20 -20 -20 -20 -20 -20 -20
-9 10 13 -20 -20 -20 -20 -20 -20 -20 -1 -20 -20 -20 -20 -20 -11 8 -12 -20 4 -18 -8 -12 1 -20 -20 -20 -20 -20 -10 -4 -20 -20 -20 -20 -20 -20 -20 -20 -20 -20 -20 -20 -20
-17 8 11 -20 -20 -20 -20 -20 -20 -20 -17 -17 -20 -20 -18 -20 -16 -20 -20 -9 -2 -20 -17 -19 -20 -20 -20 -17 -20 -20 -20 3 -20 -8 -4 -20 -20 -20 -20 -20 -20 -20 -20 -20 -20
-20 -1 -20 -20 -20 -20 -20 -20 -20 -20 -14 -20 -3 -20 -20 -20 -20 -11 -20 8 -15 -20 13 -0 -8 -20 -20 -20 -20 -7 -20 -20 -20 -19 -13 -6 -3 -20 -20 -20 -20 -20 -20 -20 -20
-20 -20 -20 -20 -20 -20 -20 -20 -20 -10 -20 -19 -16 -8 -19 -20 -20 -20 -6 -20 -20 -13 -20 -20 -20 -4 -18 -13 -20 -18 -18 -20 -4 11 11 -20 -8 -20 -20 -20 -20 -20 -20 -20 -20
-20 -20 -15 -20 -20 -20 -20 -20 -10 -15 -20 -19 -11 -7 -20 -18 -20 -20 1 4 0 1 -11 -16 14 5 10 20 8 -20 0 11 12 -0 -13 -20 -20 -20 -20 -20 -20 -20 -20 -20 -20
-20 -20 -20 -20 -20 -20 -20 -20 -16 -20 -20 -20 -20 -20 -14 -20 -11 -20 -2 1 -20 -16 18 4 4 8 -20 -16 7 -20 11 5 5 5 -20 -20 -20 -20 -20 -20 -20 -20 -20 -20 -20
-20 -20 -20 -20 -20 -19 -20 -20 -20 -20 -20 -19 -11 -1 2 -20 -12 2 -15 -4 -20 -20 16 5 12 2 -19 0 -1 -0 13 -20 9 -20 -20 -20 -20 -20 -20 -20 -20 -20 -20 -20 -20
-20 -20 -20 -20 -20 -20 -20 -20 -20 -20 -20 -20 -14 -20 -15 6 -0 6 -1 -20 -20 -20 -16 26 31 3 -3 -20 -20 17 8 13 7 4 -4 -20 -20 -20 -20 -20 -20 -20 -20 -20 -20
-20 -20 -20 -20 -20 -20 -20 -20 -20 -20 -20 -20 -20 -20 -20 -10 6 -1 -13 -20 -20 -20 -20 -14 -10 10 5 11 -20 -10 1 -4 5 -20 5 -10 -20 -20 -20 -20 -20 -20 -20 -20 -20
-20 -20 -20 -20 -20 -20 -20 -20 -20 -20 -20 -20 -20 -20 -20 -20 -9 9 -18 21 -20 -20 -7 -13 10 27 -6 -20 -16 -20 -4 10 11 10 5 -16 -20 -20 -20 -20 -20 -20 -20 -20 -20
-20 -20 -20 -20 -20 -20 -20 -20 -20 -20 -20 -20 -20 -20 -20 -20 -9 -9 12 -15 5 21 5 -12 12 10 17 18 7 15 13 13 10 -1 13 7 -15 -20 -20 -20 -20 -20 -20 -20 -20
-20 -20 -20 -20 -20 -20 -20 -20 -20 -20 -20 -20 -20 -20 -20 -20 -20 -11 -20 20 -20 -12 33 17 3 4 4 17 -20 -10 -17 -10 7 9 -9 -17 -20 -20 1 -3 -20 -20 -20 -20 -20
-20 -20 -20 -20 -20 -20 -20 -20 -20 -20 -20 -20 -20 -20 -18 -20 -20 -20 -20 -20 7 -13 22 38 34 -2 8 12 -0 -20 -20 -20 -9 -20 8 -20 -20 -20 -15 -20 -20 -20 -20 -20 -20
-19 -20 -20 -20 -20 -20 -20 -20 -20 -20 -20 -20 -20 -20 -20 -20 -20 -20 -2 -17 20 15 5 34 33 0 8 32 2 -20 -20 -20 -20 -20 -20 -0 -20 -20 -20 -20 -20 -20 -20 -20 -20
6 -20 -20 -20 -20 -20 -20 -20 -20 -20 -20 -20 -20 -20 -20 -20 -20 -20 -20 -17 -15 23 31 32 38 2 16 13 25 19 -20 -20 -20 -20 -20 -20 -20 -20 -20 -20 -20 -20 -20 -20 -20

GFSSW_prec_radar_090.txt.gz
Reflectivity
-3 10 14 15 3 -20 -20 7 -19 -8 -20 -20 -20 -20 -20 -20 -20 -8 11 21 5 16 29 6 -20 -20 -19 25 30 23 24 -20 -20 10 9 -19 -20 -20 6 -10 4 -20 -20 -11 -15
10 15 14 11 15 -1 -20 -20 3 -20 -18 -20 -20 -20 -20 -20 -2 18 27 6 -14 -2 30 33 14 -20 -20 6 20 26 14 -20 -20 18 19 -9 -20 -20 -12 -5 11 3 -20 -3 -12
13 7 1 10 -7 -1 -17 -20 -6 -2 -20 -20 -20 -20 -20 -20 -4 27 -14 -7 -20 -19 35 30 12 -20 12 -8 39 20 -20 -20 -10 -4 21 11 -20 -20 -20 -20 -5 2 -20 -20 -0
5 14 11 -20 2 4 -17 -20 -9 -20 -20 -20 -20 -20 -20 -20 -1 -20 -20 9 -10 -20 17 37 8 17 -19 -17 22 22 -20 22 19 -13 -14 -15 -7 -20 -20 -20 -20 -20 -17 -1 -4
-1 -1 -1 10 -20 10 3 4 -20 -20 -20 -20 -20 -20 -20 3 -18 -16 -20 -18 -20 -20 -8 28 35 -13 -8 -17 -13 -3 11 12 16 9 19 25 22 -20 -20 -20 -20 -20 -19 -19 -2
-20 -4 14 16 -20 -6 5 -2 -16 -20 -20 -20 -20 -20 6 -20 -20 -20 -20 11 23 20 19 -2 32 -2 -20 -15 31 -7 18 12 19 -19 -10 27 26 22 -20 -20 -20 -20 -14 -17 -20
-3 -20 -3 7 -12 -20 -3 -20 -20 -20 -20 -20 -20 -20 -20 -20 -20 -20 -20 8 -20 28 27 -20 14 24 -20 -7 11 19 30 33 34 30 -20 -17 17 -20 -20 -20 -20 -20 -20 -16 -18
-1 -13 -5 12 -11 -20 -20 -20 -20 -20 -20 -20 -20 -20 -20 -20 -20 -20 -20 -18 -18 -7 -20 -20 -20 -20 -20 -20 -11 16 32 26 17 15 23 22 3 -20 -20 -20 -20 -20 -20 -20 -20
-11 -8 -12 11 -16 -20 -20 -20 -20 -20 -20 -20 -20 -20 -20 -20 -20 -20 -20 -12 -20 -20 -20 -20 -20 -20 -20 -18 -20 -3 15 26 24 27 22 15 -18 -20 -20 -20 -20 -20 -20 -20 -20
-20 -20 -3 10 -10 -20 -20 -20 -20 -20 -20 -20 -20 -20 -20 -20 -20 -20 -20 -20 20 -20 -20 -20 -20 -20 -20 3 -20 -7 11 9 -4 23 22 21 -19 -20 -20 -20 -20 -20 -20 -20 -20
-20 -20 -20 -8 -20 -20 -20 -20 -20 -20 -20 -20 -20 -20 -20 -20 -20 -20 -20 -11 -20 -20 -20 -20 -2 -6 -20 -20 -16 -20 -19 7 -12 2 25 -20 -8 -20 -20 -20 -20 -20 -20 -20 -20
-20 -20 -20 -20 -20 -20 -20 -20 -20 -20 -19 -20 -20 -20 -20 -20 -9 -20 -20 -10 -4 -20 -17 -3 -9 -20 -20 -20 -8 -20 -20 -20 23 21 23 5 -20 -20 -20 -20 -20 -20 -20 -20 -20
-20 -20 -20 -20 -20 -20 -20 -20 -20 -20 -11 -20 -20 -20 -20 -20 -17 -20 -20 -20 -14 -9 9 -20 -4 -20 -20 -20 10 -3 -20 11 -10 17 -20 -20 -20 -20 -20 -20 -20 -20 -20 -20 -20
-20 -20 -20 -20 -20 -20 -20 -20 -20 -20 -19 -20 -20 -20 -20 -20 -20 -20 -20 -17 -20 -15 -20 -14 -11 -20 -12 -0 -20 12 8 -18 -12 -20 -20 -20 -20 -20 -20 -20 -20 -20 -20 -20 -20
-20 -20 -20 -20 -20 -20 -20 -20 -20 -20 -20 -20 -20 -20 -20 -20 -20 -20 -20 -20 -20 -20 -5 1 -19 -20 -18 -20 -20 3 -20 -20 -18 -18 -20 -7 -19 -20 -20 -20 -20 -20 -20 -20 -20
-20 -20 -20 -20 -20 -20 -20 -20 -20 -20 -20 -20 -20 -14 -20 -20 -20 -20 -20 -20 -20 -20 -20 -9 -20 -20 -19 -12 -18 -20 -6 -20 -19 -20 -20 -20 -7 -20 -20 -20 -20 -20 -20 -20 -20
-20 -20 -20 -20 -20 -20 -20 -20 -20 -20 -20 -20 -20 -20 -20 -20 -20 -20 -1 -13 -17 -17 -20 -20 -20 -20 -20 -9 17 -17 6 9 -4 -7 -20 -20 -20 -20 -20 -20 -20 -20 -20 -20 -20
-20 -20 -20 -20 -20 -20 -20 -20 -20 -20 -20 -20 -20 -20 -20 -20 -20 -20 -20 -20 -20 -20 -20 -20 -20 -20 -20 -17 -20 -20 8 -20 -2 -20 -20 -20 -20 -20 -20 -20 -20 -20 -20 -20 -20
-20 -20 -20 -20 -20 -20 -20 -17 -20 -20 -20 -20 -20 -20 -3 -20 -20 -19 -20 -20 -20 -20 6 -20 -20 -20 -20 -20 -17 -20 -20 -15 14 -18 -20 -20 -20 -20 -20 -20 -20 -20 -20 -20 -20
-20 -20 -20 -20 -20 -20 -20 -20 -20 -20 -20 -20 -20 -20 -20 -4 2 4 -9 -20 -20 -20 -6 7 -8 -20 -20 -20 -20 -9 -20 -3 -6 -20 -20 -20 -20 -20 -20 -20 -20 -20 -20 -20 -20
-20 -20 -20 -20 -20 -20 -20 -20 -20 -20 -20 -20 -20 -20 -20 -20 -15 7 -18 -20 -14 -20 -13 21 28 -1 15 -8 -17 -19 -8 -15 -13 -20 -20 -15 -20 -20 -20 -20 -20 -20 -20 -20 -20
-20 -20 -20 -20 -20 -20 -20 -20 -20 -20 -20 -20 -20 -20 -20 -20 -20 -11 11 -19 -19 22 6 -11 35 -15 2 5 4 4 12 23 -7 -20 -20 -20 -20 -20 -20 -20 -20 -20 -20 -20 -20
-20 -20 -20 -20 -20 -20 -20 -20 -20 -20 -20 -20 -20 -20 -20 -20 -19 -20 -20 -16 6 -10 35 10 31 14 24 23 5 11 -20 -10 -19 8 -12 -20 -20 -20 -20 -20 -20 -20 -20 -20 -20
-20 -20 -20 -20 -20 -20 -20 -20 -20 -20 -20 -20 -20 -20 -20 -20 -20 -17 -20 8 -16 3 3 35 29 8 1 -11 -20 -7 -19 -8 4 -3 -20 -20 -3 -15 -14 -7 -20 -20 -20 -20 -20
-2 -0 -20 -20 -20 -20 -20 -20 -20 -20 -20 -20 -20 -20 -20 -20 -20 -20 -20 -20 -20 -20 21 27 22 22 -20 8 15 -11 4 -5 12 4 -19 -8 -18 4 2 -13 -20 -20 -20 -20 -20
3 3 -20 -20 -20 -20 -20 -20 -20 -20 -20 -20 -20 -20 -20 -20 -20 -20 -20 -20 -20 -20 9 34 12 27 15 -19 -14 -5 13 -15 -20 -20 -20 -20 -20 11 0 -12 -20 -20 -20 -20 -20
11 7 -20 -20 -20 -20 -20 -20 -20 -20 -20 -20 -20 -20 -20 -20 -20 -20 -20 -20 -20 -20 -20 4 -7 21 16 25 15 25 -14 -20 -20 -20 -20 -20 -20 8 -20 -20 -20 -20 -20 -20 -20

GFSSW_prec_radar_093.txt.gz
Reflectivity
3 5 -6 -11 15 12 -15 -20 -20 -20 -8 3 1 -16 -20 -20 -20 -20 -4 7 -12 18 34 -6 -20 -20 -11 40 13 25 -20 -20 -20 13 -7 -20 -20 -20 -20 -9 -16 -20 -12 -19 7
-18 3 -2 -20 13 -20 -1 -2 -13 -20 -20 -16 -5 -20 -20 -20 -20 -9 -20 9 13 22 21 15 1 3 -20 25 6 31 -18 -20 -2 -9 -20 -20 -20 -20 -17 7 7 -20 -20 -3 10
-6 2 -20 10 -20 12 7 6 -2 -20 -20 -20 -20 -20 -20 -20 3 15 -20 1 27 29 29 20 -20 -14 -7 34 17 34 21 -3 3 4 -3 -20 -20 -20 -20 4 6 -4 -20 -19 -10
-20 -0 -13 2 -19 -20 11 -14 6 -20 -20 -20 -20 -20 -20 -20 -20 -20 -20 -20 -20 -5 28 38 -20 12 4 -14 39 14 27 -3 22 18 5 -18 -20 -20 -20 -20 -20 -20 -20 0 -1
-20 -20 -9 3 2 -20 -8 -0 2 -20 -20 -20 -20 -20 -20 -20 -20 -20 -20 -20 -20 -20 7 33 13 13 10 -20 14 7 3 21 29 28 -6 -20 -11 -20 -20 -20 -20 -20 -20 -20 2
-20 -20 -20 -19 9 -20 -20 -11 -7 -20 -20 -20 -20 -20 -20 -20 -20 -20 -19 -20 -20 -1 23 36 27 -5 -20 -20 -18 4 5 26 33 19 14 15 11 -20 -20 -20 -20 -20 -20 -20 -11
1 -20 -20 -20 15 -20 -20 -20 -20 -20 -20 -20 -20 -20 -20 -20 -20 -4 -20 -20 -20 -20 31 32 37 -20 -20 -4 11 29 39 31 8 22 9 -5 20 -16 -20 -20 -20 -20 -20 -20 -20
1 -10 -20 -10 11 -20 -20 -20 -20 -20 -20 -20 -20 -20 -20 -20 -20 -20 -20 -20 -20 -20 -3 14 24 17 -20 -20 -20 -1 26 28 14 14 31 11 8 29 3 -20 -20 -20 -20 -20 -20
-12 -20 -20 -20 -3 -20 -20 -20 -20 -20 -20 -20 -20 -20 -20 -20 -20 -20 -20 -6 -20 -20 -20 -20 -20 -20 -20 -12 -3 -20 -10 -17 -5 7 15 27 37 -13 28 -20 -20 -20 -20 -20 -20
-18 -20 -20 -20 -20 -20 -20 -20 -20 -20 -20 -20 -20 -20 -20 -20 -20 -20 -20 -20 -20 -20 -20 -20 -20 -20 -20 -20 -20 -20 -20 22 18 14 -4 -8 -18 28 7 -20 -20 -20 -20 -20 -20
-20 -20 -20 -20 -20 -20 -20 -20 -20 -20 -20 -20 -20 -20 -20 -20 -20 -20 -20 -20 -20 -20 -20 -20 -20 -20 -20 -20 -20 -20 18 19 8 26 20 31 6 -20 -20 -20 -20 -20 -20 -20 -20
-20 -20 -20 -20 -20 -20 -20 -20 -20 -20 -20 -20 -20 -20 -20 -20 -20 -20 -20 -20 -20 -20 -20 -20 -20 -20 -20 -20 -20 -20 -4 4 -17 18 26 6 -6 4 2 -20 -20 -20 -20 -20 -20
-20 -20 -20 -20 -20 -20 -20 -20 -20 -20 -20 -20 -20 -20 -20 -20 -20 -20 -20 -20 -20 -20 -13 -20 -20 -20 -20 -20 -20 -20 -20 -20 -20 0 6 4 -11 -19 -13 -20 -20 -20 -20 -20 -20
-20 -20 -20 -20 -20 -20 -20 -20 -20 -20 -20 -20 -20 -20 -20 -20 -20 -20 -20 -20 -20 -20 -20 -20 -20 -20 -20 -14 -20 9 -20 -7 -13 -20 2 -20 -20 -20 -20 -20 -20 -20 -20 -20 -20
-20 -20 -20 -20 -20 -20 -20 -20 -20 -20 -20 -20 -20 -20 -20 -20 -20 -20 -20 -20 -20 -20 -20 -20 -20 -20 -20 -20 -20 3 -20 -20 -17 -19 -20 -20 -20 -20 -20 -20 -20 -20 -20 -20 -20
-20 -20 -20 -20 -20 -20 -20 -20 -20 -20 -20 -20 -20 -20 -20 -20 -20 -20 -20 -20 -20 -20 -20 -20 -20 -20 -20 -20 -20 -19 -3 -20 -13 4 -19 -20 -20 -20 -20 -20 -20 -20 -20 -20 -20
-20 -20 -20 -20 -20 -20 -20 -20 -20 -20 -20 -20 -20 -20 -20 -20 -20 -20 -20 -20 -20 -20 -20 -20 -20 -20 -20 -20 -20 -20 15 7 -20 -4 -20 -20 -20 -20 -20 -20 -20 -20 -20 -20 -20
-4 -20 -20 -20 -20 -20 -20 -20 -20 -20 -20 -20 -20 -20 -20 -20 -20 -20 -20 5 -20 1 -20 -20 -20 -20 -20 -20 -20 -20 7 -20 -20 -20 -20 -20 -20 -20 -20 -20 -20 -20 -20 -20 -20
1 -20 -20 -20 -20 -20 -20 -20 -20 -20 -20 -20 -20 -20 -20 -20 -20 -20 -20 -20 -20 -12 1 -20 -20 -20 -20 -20 -20 -20 -20 -20 -20 -20 -20 -20 -20 -20 -20 -20 -20 -20 -20 -20 -20
5 -11 -20 -20 -20 -20 -20 -20 -20 -20 -20 -20 -20 -20 -20 -20 -20 -20 -20 -20 -20 -20 -9 6 -20 -20 -13 -13 -20 -20 -20 5 -20 -10 -20 -20 -20 -20 -20 -20 -20 -20 -20 -20 -20
0 -1 -20 -20 -20 -20 -20 -20 -20 -20 -20 -20 -20 -20 -20 -20 -20 -20 -19 -20 -20 -20 9 7 5 -14 -1 -18 -20 -20 -20 5 -15 -19 -20 -20 -20 -20 -20 -20 -20 -20 -20 -20 -20
14 -5 -20 -20 -20 -20 -20 -20 -20 -20 -20 -20 -20 -20 -20 -20 -20 -20 -19 7 -20 -20 -9 28 27 -3 10 -14 -11 -20 -19 -3 -20 -20 -20 -20 -20 -20 -20 -20 -20 -20 -20 -20 -20
18 -14 9 -20 -7 -20 -20 -20 -20 -20 -20 -20 -20 -20 -20 -20 -20 -20 -20 -20 -20 -14 -13 9 30 -2 17 15 32 32 -13 -20 -20 -20 -20 -20 -20 -20 -20 -20 -20 -20 -20 -20 -20
13 -20 -3 -12 -20 -20 -20 -20 -20 -20 -20 -20 -20 -20 -20 -20 -20 -20 -20 -20 -20 -20 -20 5 31 23 6 21 3 11 7 -20 -7 22 -20 -20 -20 -4 -20 -20 -20 -20 -20 -20 -20
9 -1 -19 -20 -20 -20 -20 -20 -20 -20 -20 -20 -20 -20 -20 -20 -20 -20 -20 -20 -20 -20 -11 7 0 21 31 17 24 29 11 18 26 -12 -15 -13 -8 4 -20 -17 -20 -20 -20 -20 -20
7 4 -20 -20 -20 -20 -20 -20 -20 -20 -20 -20 -20 -20 -20 -20 -20 -20 -20 -20 -20 -20 -20 -20 -20 22 -19 0 7 1 -20 20 6 4 -3 -20 -20 -9 -5 -20 -20 -20 -20 -20 -20
13 -0 -16 -20 -20 -20 -20 -20 -20 -20 -20 -20 -20 -20 -20 -20 -20 -20 -20 -20 -20 -20 -20 -20 -20 -19 -20 17 7 -14 -20 -19 -20 -20 -20 -20 -19 24 -9 -20 -20 -20 -20 -20 -20

GFSSW_prec_radar_096.txt.gz
Reflectivity
-1 4 12 11 -14 -1 -20 -17 -13 -20 -11 3 -20 -15 -20 -20 -20 -20 -20 15 13 38 33 -5 -18 -20 34 38 27 28 19 -20 -20 -20 -20 -20 3 -20 -20 -20 -20 -2 -12 12 -17
-18 7 10 11 -20 -14 0 -16 -10 -20 -20 -20 -20 -20 -20 -20 -20 -20 -20 3 -8 29 21 19 21 24 17 36 33 27 24 -20 -13 -7 -20 -20 -10 -15 -20 -20 2 13 3 10 -18
-17 -6 13 5 10 -20 -20 -20 -16 -11 -20 -20 -20 -20 -20 -20 -20 -20 -20 -20 23 18 26 20 20 24 22 38 36 32 -0 -20 17 -20 -20 -20 -20 4 -11 -8 -20 -20 30 -7 3
-10 5 1 5 7 -18 -20 -9 -16 -1 -20 -20 -20 -20 -20 -20 -20 -20 -20 -20 -20 1 31 10 -8 13 10 29 39 37 21 6 14 -20 -20 -20 -20 -20 -20 -15 6 -15 -20 -1 6
-14 6 12 -10 3 6 -20 -20 -20 -2 -20 -20 -20 -20 -20 -20 -19 -19 -15 -20 3 7 33 8 -9 16 14 27 40 15 37 -18 19 -3 -20 -13 -20 -20 -20 -20 -18 -15 -20 -20 -13
-20 -2 -16 -6 6 4 -20 -20 -20 -20 -20 -20 -20 -20 -20 -20 -20 9 -12 -20 -20 -20 5 11 -20 -20 -17 10 25 33 37 12 6 3 -18 -5 -20 -20 -20 -20 -20 -20 -20 -20 1
-20 -13 -20 -20 -10 -19 -20 -20 -20 -20 -20 -20 -20 -20 -20 -20 -16 -1 -19 -20 -20 13 13 -19 -20 -20 -20 2 11 30 40 31 20 27 14 -17 -20 -20 -20 -20 -20 -20 -17 -9 -20
-20 -20 -20 -20 -20 -20 -20 -20 -20 -20 -20 -20 -20 -20 -20 -20 -3 1 -20 -20 -16 -5 4 9 9 -20 -20 -14 -5 -17 8 38 18 18 28 27 -9 -20 -20 -20 -20 -20 -20 -20 -20
-20 -20 -20 -20 -14 -20 -20 -20 -20 -20 -20 -20 -20 -20 -20 -20 -12 -20 -20 -20 -20 -20 -20 10 -17 -20 -20 7 5 13 21 30 7 21 42 8 32 -20 -20 -20 -20 -20 -20 -20 -20
-20 -20 -20 -20 -20 -20 -20 -20 -20 -20 -20 -20 -20 -20 -20 -20 -20 -20 -20 -20 -20 -20 -20 -20 -20 -11 -20 -20 -18 -20 3 0 11 21 37 18 15 16 -17 -13 -20 -20 -20 -20 -20
-20 -12 -20 -20 -20 -20 -20 -20 -20 -20 -20 -20 -20 -20 -20 -20 -20 -20 -20 -20 -20 -20 -20 -20 -20 -20 -20 -20 -20 -10 6 10 5 31 15 19 21 25 11 21 -14 -20 -20 -20 -20
-20 -20 -20 -20 -20 -20 -20 -20 -20 -20 -20 -20 -20 -20 -20 -20 -20 -20 -20 -20 -20 -20 -20 -20 -20 -20 -20 -20 -20 -20 -20 -19 -14 6 3 16 1 5 19 -15 -12 -20 -20 -20 -20
-20 -18 -16 -20 -20 -20 -20 -20 -20 -20 -20 -20 -20 -20 -20 -20 -20 -20 -20 -20 -20 -20 -20 -20 -20 -20 -20 -20 -20 -20 -20 -20 -20 -18 -20 -11 -15 15 4 8 -17 -20 -20 -20 -20
-20 -15 -4 -20 -20 -20 -20 -20 -20 -20 -20 -20 -20 -20 -20 -20 -20 -20 -20 -20 -20 -20 -20 -20 -20 -20 -20 -20 -20 -20 -20 -20 -20 -11 -20 -20 -20 -6 -10 -19 -3 -20 -20 -20 -20
-20 -16 -16 -20 -20 -20 -20 -20 -20 -20 -20 -20 -20 -20 -20 -20 -20 -20 -20 -20 -20 -20 -20 -20 -20 -20 -20 -20 -20 -20 -20 -20 -20 -15 -20 -20 -20 -20 -20 -20 -20 -20 -20 -20 -20
-20 -20 4 -4 -20 -20 -20 -20 -20 -20 -20 -20 -20 -20 -20 -20 -20 -20 -20 -20 -20 -20 -20 -20 -20 -20 -20 -20 -20 -20 -20 -20 -8 -16 -9 -20 -20 -20 -20 -20 -20 -20 -20 -20 -20
-20 -20 3 3 -20 -20 -20 -20 -20 -20 -20 -20 -20 -20 -20 -20 -20 -20 -20 -20 -20 -20 -20 -20 -20 -20 -20 -20 -20 -20 17 6 -5 23 -18 -20 -20 -20 -19 -20 -20 -20 -20 -20 -20
-20 -20 4 -6 -8 -2 -20 -20 -20 -20 -20 -20 -20 -20 -20 -20 -20 -20 -20 -20 -20 -18 -20 -20 -20 -20 -20 -20 -20 -20 -9 13 -20 -17 -18 -14 -20 -20 -12 -20 -20 -20 -20 -20 -20
-1 -20 13 -1 -4 -5 -20 -20 -20 -20 -20 -20 -20 -20 -20 -20 -20 -20 -20 -20 -20 -20 -3 -20 -20 -20 -20 -20 -20 -20 -20 -8 -7 -20 -20 -20 -20 -20 -11 -16 -20 -20 -20 -20 -20
-20 -20 -7 1 7 -7 -17 -20 -20 -20 -20 -20 -20 -20 -20 -20 -20 -20 -20 -20 -20 -20 -20 -20 -3 -20 -20 20 5 -20 -9 -0 5 10 -20 -20 -20 -20 -20 -20 -20 -20 -20 -20 -20
-0 -20 -15 -5 8 -12 -18 -20 -20 -20 -20 -20 -20 -20 -20 -20 -20 -20 -19 -20 -20 -20 -20 -18 15 -16 19 -1 -20 -18 -20 -20 -20 -0 -20 -20 -20 -20 -20 -20 -20 -20 -20 -20 -20
4 -13 -9 10 11 -2 -14 -20 -20 -20 -20 -20 -20 -20 -20 -20 -20 -20 -20 -3 -20 -20 14 12 2 12 -20 -20 12 1 15 10 2 -20 -20 -20 -20 -20 -20 -20 -20 -20 -20 -20 -20
-7 3 -1 12 7 -20 -20 -20 -20 -20 -20 -20 -20 -20 -20 -20 -20 -20 -20 -20 -20 -20 17 -19 25 24 -12 8 4 13 -18 -17 -20 -20 -20 -20 -20 -12 -20 -20 -20 -20 -20 -20 -20
-18 -11 -3 3 10 -12 -16 -20 -20 -20 -20 -20 -20 -20 -20 -20 -20 -20 -20 -20 -20 -20 -20 -3 -11 8 20 12 28 8 30 9 8 -19 -20 -20 -20 -20 -20 -20 -20 -20 -20 -20 -20
-12 -20 -11 -7 9 -20 -20 -20 -20 -20 -20 -20 -20 -20 -20 -20 -20 -20 -20 -20 -20 -20 -20 -20 -17 -20 -20 -4 32 32 26 31 25 -1 -20 -20 -20 -20 -16 -20 -20 -20 -20 -20 -20
4 -4 -14 14 -15 -13 -20 -20 -20 -20 -20 -20 -20 -20 -20 -20 -20 -20 -20 -20 -20 -20 -20 -20 3 -20 -20 -15 -20 -20 -13 -7 29 20 -20 -20 -20 -20 13 -6 -20 -20 -20 -20 -20
5 -15 -16 8 -8 -20 -20 -20 -20 -20 -20 -20 -20 -20 -20 -20 -20 -20 -20 -20 -20 -20 -20 -20 -20 -20 -20 -20 -8 5 -19 -12 -19 -18 -16 5 -16 21 20 6 -20 -20 -20 -20 -20

GFSSW_prec_radar_099.txt.gz
Reflectivity
-20 -20 0 -0 11 -20 9 7 2 5 -10 -9 -20 -20 2 -2 -20 -20 -20 -20 28 31 32 12 19 12 23 -19 33 40 32 8 -20 -20 -20 -20 -20 18 14 -20 -3 13 18 -19 35
-20 -20 -20 -1 -8 3 -20 -10 7 3 -16 -20 -20 -20 -20 -20 -20 -20 -20 17 25 6 28 22 15 28 -20 2 35 37 40 7 -20 -20 -16 -20 -20 -7 -20 11 12 7 21 7 -18
-20 -20 -13 -20 -19 11 -5 -6 8 -2 -17 -20 -20 -20 -20 -20 -20 -20 -14 -4 26 13 30 18 39 24 1 3 40 36 28 30 16 -20 -20 -20 -20 -20 2 -8 1 12 14 3 -5
-20 -20 -20 -20 -20 4 -15 -5 -3 -9 -17 -20 -20 -20 -20 -20 -20 -20 4 -20 -20 16 -0 -16 23 24 9 12 41 38 37 27 -4 -3 -20 -16 -20 -20 3 -20 7 15 34 7 -10
-20 -8 -2 -20 -20 1 -20 -20 -20 -20 -20 -20 -20 -20 -20 -20 -17 -19 -3 -19 1 16 39 25 6 -10 9 12 38 33 40 35 15 5 -20 -20 -20 -20 -20 -20 -15 4 3 16 -13
-20 -4 -13 -20 -20 -20 -20 -20 -20 -20 -20 -20 -20 -20 -20 -20 -20 -20 -18 -20 -19 -14 18 -18 -20 -7 15 25 37 37 29 28 29 -6 -20 -20 -20 -20 -20 -20 -20 3 -12 -16 4
-9 -13 -2 -20 -20 -20 -20 -20 -20 -20 -20 -20 -20 -20 -20 -20 -12 -20 -15 -16 -20 -4 25 -20 -20 -19 15 26 27 40 42 27 5 -17 2 -13 -20 -20 -20 3 -20 -17 32 -15 -4
-1 -20 -20 -20 -7 -20 -20 -20 -20 -20 -20 -20 -20 -20 -20 -20 -20 -20 -20 -20 -20 -20 -20 -20 -14 -14 -12 20 19 18 40 29 1 11 -20 -20 -20 -20 -20 -20 -20 -20 -15 -12 -1
-10 -20 -17 -20 4 -20 -20 -20 -20 -20 -20 -20 -20 -20 -20 -20 -20 -20 -20 -20 -20 -20 -20 -17 -20 -20 -20 15 8 17 21 36 32 31 -20 16 -20 -20 -20 -20 -20 -20 -20 -20 29
15 -20 -20 -20 6 -20 -20 -20 -20 -20 -20 -20 -20 -20 -20 -20 -20 -20 -20 -20 -20 -20 -20 -20 -20 -20 -20 7 -13 -19 6 23 30 29 36 7 -20 -20 -20 -20 -20 -20 -20 -20 -18
18 -5 -13 -20 10 -20 -20 -20 -20 -20 -20 -20 -20 -20 -20 -20 -20 -20 -20 -20 -20 -20 -20 -20 -20 9 -20 -20 -14 -9 4 16 16 7 9 36 25 25 -20 -20 -20 -20 -20 -20 -20
26 32 -18 -20 8 -20 -20 -20 -20 -20 -20 -20 -20 -20 -20 -20 -20 -20 -20 -20 -20 -20 -20 -20 -20 -20 -20 -20 -20 -20 -20 3 12 -5 34 2 13 42 26 -20 -20 -20 -20 -20 -20
31 16 -12 -20 9 -3 -20 -20 -20 -20 -20 -20 -20 -20 -20 -20 -20 -20 -20 -20 -20 -20 -20 -20 -20 -20 -20 -20 -20 -20 -20 -20 -14 3 17 11 0 12 15 11 -20 -20 -20 -20 -20
31 30 -11 -10 3 7 -20 -20 -20 -20 -20 -20 -20 -20 -20 -20 -20 -20 -20 -20 -20 -20 -20 -20 -20 -20 -20 -20 -20 -20 -20 -20 -20 -18 -14 2 0 -17 -12 -18 1 -20 -20 -20 -20
37 38 6 -6 8 9 -20 -20 -20 -20 -20 -20 -20 -20 -20 -20 -20 -20 -20 -20 -20 -20 -20 -20 -20 -20 -20 -20 -20 -20 -20 -20 -6 -20 -20 7 -17 -19 -20 -20 -20 -20 -20 -20 -20
34 37 -8 -4 4 12 -20 -20 -20 -20 -20 -20 -20 -20 -20 -20 -20 -20 -20 -20 -20 -20 -20 -20 -20 -20 -20 -20 -20 -20 -20 -20 -20 -20 1 -20 -20 -20 -12 -6 -19 -20 -20 -20 -20
32 41 13 -4 -15 13 -11 -20 -20 -20 -20 -20 -20 -20 -20 -20 -20 -20 -20 -20 -20 -20 -20 -20 -20 -20 -20 -20 -20 -20 -20 -20 2 13 -16 -20 -20 -20 -20 -20 -17 -20 -20 -20 -20
35 39 5 -10 -19 10 7 -20 -20 -20 -20 -20 -20 -20 -20 -20 -20 -20 -20 -20 -20 -20 -20 -20 -20 -20 -20 -20 -20 -20 14 -18 -19 -20 -15 -20 -20 -20 -20 -20 -20 -20 -20 -20 -20
37 28 -0 -20 -3 -8 10 -19 -20 -20 -20 -20 -20 -20 -20 -20 -20 -20 -20 -20 -20 -20 -20 -20 -20 -20 -20 -20 -20 -16 -20 -7 21 -16 -20 -20 -20 -20 -8 -19 -20 -20 -20 -20 -20
36 34 5 -20 2 -15 6 -15 -20 -20 -20 -20 -20 -20 -20 -20 -20 -20 -20 -20 -20 -20 -20 -20 -13 -20 -20 19 4 -20 -6 2 4 18 -7 -20 -20 -20 -20 6 -19 -20 -20 -20 -20
36 28 4 -19 -8 -20 19 -9 -20 -20 -20 -20 -20 -20 -20 -20 -20 -20 -20 -20 -20 -20 -20 -20 -14 -20 11 -6 -20 5 -20 -20 -2 -11 -20 -20 -20 -20 -20 -18 -1 -20 -18 -20 -20
35 26 14 -18 -9 -8 22 -20 -20 -20 -20 -20 -20 -20 -20 -20 -20 -20 -20 -20 -20 -20 -20 -20 -6 -16 -19 24 18 19 19 16 -2 -20 -20 -20 -20 -20 -20 -20 -20 -20 -20 -20 -20
33 22 19 -16 -10 -1 14 -4 -20 -20 -20 -20 -20 -20 -20 -20 -20 -20 -20 -20 -20 -20 4 1 11 -14 -20 -8 -8 25 10 14 -5 -14 -20 -20 -20 -20 -20 -20 -20 -20 -20 -20 -20
36 18 25 -15 -3 13 13 -14 -20 -20 -20 -20 -20 -20 -20 -20 -20 -20 -20 -20 -20 -20 -20 -20 -20 -20 -20 12 18 21 24 3 10 11 -20 -20 -20 -20 -20 -4 -20 -20 -20 -20 -20
33 -13 11 6 -4 18 14 -20 -20 -20 -20 -20 -20 -20 -20 -20 -20 -20 -20 -20 -20 -20 -20 -20 -20 -1 -20 -13 8 -20 -15 13 33 0 -18 -20 -20 -20 -5 2 -19 -20 -20 -20 -20
24 8 -0 4 8 19 11 -20 -20 -20 -20 -20 -20 -20 -20 -20 -20 -20 -20 -20 -20 -20 -20 -20 -20 -20 -20 -20 -20 -20 -20 -9 18 21 16 -20 -20 -20 2 -16 -20 -20 -20 -20 -20
24 8 15 11 6 12 13 -9 -20 -20 -20 -20 -20 -20 -20 -20 -20 -20 -20 -20 -20 -20 -20 -20 -20 -20 -19 -20 -20 -20 -20 -20 -15 -13 -6 30 -4 9 18 -20 -20 -20 -20 -20 -20

GFSSW_prec_radar_102.txt.gz
Reflectivity
-20 -13 3 -6 8 7 -20 -20 -1 -11 15 3 -20 -20 -20 -20 -20 -20 -20 -20 21 13 16 13 -14 -20 28 17 -20 -5 36 19 25 25 -20 -20 -20 -20 -20 -20 19 30 21 34 33
-20 -20 -11 4 1 10 -5 -20 -17 0 16 -20 -20 -20 -20 -20 -20 -20 -20 18 4 -4 18 17 7 29 22 -20 -20 3 38 34 14 30 11 1 -20 -20 -20 -20 24 24 31 30 41
-20 -20 -19 2 -11 2 6 -20 -17 -6 10 -20 -20 -20 -20 -20 -20 -20 -20 16 19 -20 26 -6 -3 32 -20 -20 -12 -18 23 8 27 28 28 18 -20 -19 -20 19 13 15 25 30 31
-19 9 -15 1 4 -2 6 -20 -20 -10 -1 -20 -20 -20 -20 -20 -20 -20 -20 -10 -20 -20 13 6 -0 -20 -17 -20 -20 -20 1 32 28 17 18 26 -20 -20 -20 -20 5 12 26 26 24
-15 -20 -20 -3 -5 -4 -6 -14 -20 -15 -17 -20 -20 -20 -20 -20 -20 -20 -20 -20 -20 -17 -20 4 9 -18 -17 -14 -20 31 34 32 34 16 17 12 -20 -20 -20 -18 25 12 24 21 12
13 -1 -15 -20 -20 -4 -14 2 -20 -20 -20 -20 -20 -20 -20 -20 -20 -20 -20 -20 -20 -3 -3 25 18 30 -20 -12 16 38 33 20 38 29 5 8 -20 -20 -20 -20 27 7 18 20 29
-8 15 12 -20 -20 -20 5 -2 -20 -20 -20 -20 -20 -20 -20 -20 -20 -1 2 -20 -20 -20 -20 -20 -20 17 -20 -1 14 29 27 36 39 31 4 -16 13 -20 -20 22 24 25 3 6 10
25 16 23 -17 -20 -20 10 -12 -20 -20 -20 -20 -20 -20 -20 -20 -20 -5 -20 -20 -20 -20 -20 -18 -20 -20 -20 8 19 17 25 38 35 15 17 16 -2 -20 -20 -20 -20 25 18 26 27
22 21 19 27 -20 -20 10 -6 -20 -20 -20 -20 -20 -20 -20 -20 -20 -20 -20 -20 -20 -19 -18 -13 -20 -20 -10 8 17 31 30 32 39 32 8 13 -5 -20 -20 -20 -20 3 26 29 28
25 21 18 31 -13 -6 11 4 -20 -20 -20 -20 -20 -20 -20 -20 -20 -20 -20 -20 -7 -20 -13 -18 -20 -20 -16 -17 -7 27 10 9 28 37 4 -1 -20 -20 -20 -20 -20 -20 -13 10 17
25 24 31 20 13 1 9 5 -20 -20 -20 -20 -20 -20 -20 -20 -20 -20 -20 -20 -20 -20 -20 -20 -20 -15 -20 -20 -7 7 9 17 37 29 14 16 -19 -20 -20 -20 -20 -20 -20 -20 -4
18 23 28 22 0 8 11 7 -20 -20 -20 -20 -20 -20 -20 -20 -20 -20 -20 -20 -20 -20 -20 -20 -20 -20 -20 -20 -20 -20 13 20 28 9 25 34 -18 -20 -20 -20 -20 -20 -20 -20 -9
14 24 26 33 25 3 9 14 -20 -20 -20 -20 -20 -20 -20 -20 -20 -20 -20 -20 -20 -20 -20 -20 -20 -20 -20 -20 -20 -20 3 -7 14 13 14 27 11 -20 -19 -20 -20 -20 -20 -20 -20
15 28 35 36 20 -4 6 14 -20 -20 -20 -20 -20 -20 -20 -20 -20 -20 -20 -20 -20 -20 -20 -20 -20 -20 -20 -20 -20 -20 -20 -20 -17 4 -18 -14 -1 11 -10 -20 -20 -20 -20 -20 -20
21 30 29 35 22 8 5 10 -6 -20 -20 -20 -20 -20 -20 -20 -20 -20 -20 -20 -20 -20 -20 -20 -20 -20 -20 -20 -20 -20 -20 -20 -20 -14 8 -20 -20 18 16 8 22 7 -20 -20 -20
2 27 21 34 18 9 8 10 6 -20 -20 -20 -20 -20 -20 -20 -20 -20 -20 -20 -20 -20 -20 -20 -20 -20 -20 -20 -20 -20 -20 -20 -20 -20 9 -20 -20 2 9 5 18 18 -2 -20 -20
-18 26 21 38 12 3 12 -3 15 -20 -20 -20 -20 -20 -20 -20 -20 -20 -20 -20 -20 -20 -20 -20 -20 -20 -20 -20 -20 -20 -8 3 13 -19 -20 -20 -20 -20 17 -1 1 -8 -20 -20 -20
0 24 15 37 11 5 11 -10 15 -20 -20 -20 -20 -20 -20 -20 -20 -20 -20 -20 -20 -20 -20 -20 -20 -20 -20 -20 -20 -20 -16 -20 -20 -20 -20 -20 -20 -20 2 7 -20 -20 -20 -20 -20
22 24 15 35 -2 1 5 -5 13 -20 -20 -20 -20 -20 -20 -20 -20 -20 -20 -20 -20 -20 -20 -20 -20 -20 -20 -20 -20 -19 -19 -5 -20 -20 -20 -20 -20 -20 -20 -11 -7 -20 -20 -20 -20
29 29 23 33 -8 2 3 2 13 -20 -20 -20 -20 -20 -20 -20 -20 -20 -20 -20 -20 -20 -20 -20 -15 -20 -20 -20 4 15 4 -2 1 9 4 -20 -20 -20 -20 -20 -20 -20 -12 -20 -20
25 22 26 30 -16 13 2 6 17 -20 -20 -20 -20 -20 -20 -20 -20 -20 -20 -20 -20 -20 -20 -20 3 -20 -18 18 3 23 29 17 -4 -19 -20 -20 -20 -20 -20 -18 -20 -20 -20 -20 -20
28 35 18 28 9 21 1 7 2 -20 -20 -20 -20 -20 -20 -20 -20 -20 -20 -20 -20 -20 -20 -20 -3 -20 -20 -11 19 15 27 33 17 -19 -20 -20 -20 -20 -20 -20 -20 -20 -20 -20 -20
26 32 21 29 -6 22 9 14 -16 -19 -20 -20 -20 -20 -20 -20 -20 -20 -20 -20 -20 -20 -20 -20 -3 -20 -20 -11 14 3 25 17 36 -16 -20 -20 -20 -20 -20 -20 -20 -20 -20 -20 -20
28 30 31 28 12 9 18 7 -19 -10 -20 -20 -20 -20 -20 -20 -20 -20 -20 -20 -20 -20 -20 -20 -20 -20 -20 -20 -6 -20 -12 1 33 23 -3 -20 -20 -20 -20 -20 -20 -20 -20 -20 -20
34 16 11 14 13 12 15 -17 16 -20 -20 -20 -20 -20 -20 -20 -20 -20 -20 -20 -20 -20 -20 -20 -20 -20 -20 -20 -7 -20 -20 -20 10 6 1 -20 -20 -20 -20 -20 -20 -20 -20 -20 -20
25 5 24 17 23 24 9 -1 19 -20 -20 -20 -20 -20 -20 -20 -20 -20 -20 -20 -20 -20 -20 -20 -20 -20 -20 -20 -20 -20 -20 -20 -15 -20 4 -14 -20 -20 -20 -20 -20 -20 -20 -20 -20
14 12 4 7 8 -9 4 -13 8 -20 -20 -20 -20 -20 -20 -20 -20 -20 -20 -20 -20 -20 -20 -20 -20 -20 -20 -20 -20 -20 -20 -20 -18 -16 -13 -3 -8 22 -4 -20 -20 -20 -20 -20 -20

GFSSW_prec_radar_105.txt.gz
Reflectivity
-20 -20 -20 -20 -20 -20 1 8 -1 4 5 -2 -20 -20 -15 -1 -20 -20 -20 -15 3 15 -20 7 -11 -20 -20 12 -5 23 20 35 15 37 -3 -4 11 -8 0 -20 -20 -20 19 24 47
-20 -20 -20 -20 -20 -20 -17 6 1 -3 -20 4 -20 -20 -5 -3 -20 -20 -20 2 11 -14 -19 7 -12 -20 22 -12 23 25 13 34 15 4 31 23 27 -20 8 -20 -20 -20 18 33 29
-2 -18 -20 -20 -5 -16 -3 1 4 -1 -0 -20 -20 -20 -20 -20 -20 -20 -20 -20 -16 17 30 -5 23 22 21 -20 -7 -15 18 -6 -10 13 23 20 6 7 -20 1 -19 -20 -4 33 23
27 -6 8 10 -20 -15 -2 3 -4 3 -20 -20 -20 -20 -18 -20 -20 -20 -20 -20 -12 10 -20 12 -20 23 -20 -5 -20 -20 -20 20 28 37 28 31 -17 17 24 -20 -20 -11 16 28 35
20 28 9 -17 -17 -12 -6 -3 0 11 -20 -20 -20 -20 -20 -20 -20 -20 -20 -19 8 10 -20 -18 1 8 1 -20 -20 -20 -19 20 24 28 38 19 15 8 -2 -20 -19 -6 3 24 23
11 27 28 27 3 14 3 -20 4 2 -20 -20 -20 -20 -20 -20 -20 -20 -20 -7 2 -7 -20 -12 -1 -20 -20 -20 -20 -20 -20 -20 -1 20 21 14 11 -20 8 20 -20 0 17 11 22
-13 19 9 18 22 10 -20 -13 7 -17 -20 -20 -20 -20 -20 -20 -20 -20 -20 -20 -20 -20 -20 -20 -20 -11 -20 -20 -20 -20 -11 -12 26 33 26 10 13 -20 -20 -20 35 -4 30 9 4
1 20 1 29 0 16 -11 3 0 1 -19 -20 -20 -20 -20 -20 -20 -20 -20 -20 -20 -20 -20 -20 -19 7 -15 -20 8 9 16 31 25 41 30 -2 2 -20 -20 -12 -20 29 12 11 9
12 13 22 4 15 24 -7 10 -2 9 -14 -20 -20 -20 -20 -20 -20 -20 -20 -20 -20 -20 20 -19 -17 -20 -5 10 8 -1 -1 -0 15 21 37 8 -14 -20 -20 -20 9 26 31 20 30
-19 -11 25 -0 3 19 8 2 -0 15 -12 -20 -20 -20 -20 -20 -20 -20 -20 -20 -20 -20 -18 -17 -17 3 -11 -20 -19 0 10 16 14 31 35 10 -20 -20 -20 -20 7 -1 23 28 34
-20 1 -4 15 -20 11 5 5 13 11 -19 -20 -20 -20 -20 -20 -20 -20 -20 -20 -20 -20 -20 -20 -13 17 1 -20 -20 -20 -20 7 21 30 37 16 -15 -20 -20 -20 -20 -17 8 27 29
-20 -20 2 12 -9 -4 -7 4 -2 9 -19 -20 -20 -20 -20 -20 -20 -20 -20 -20 -20 -20 -20 -20 -20 -20 -20 -20 -20 -20 -20 5 23 30 23 18 10 -20 -20 -20 -20 -20 -8 -9 12
-20 -18 8 9 -11 20 6 8 1 8 -13 -20 -20 -20 -20 -20 -20 -20 -20 -20 -20 -20 -20 -20 -20 -20 -20 -20 -20 -20 -20 -7 12 18 21 19 -12 -20 -20 -20 -20 -20 -20 -20 11
-20 4 19 15 15 6 -12 -2 9 10 -14 -20 -20 -20 -20 -20 -20 -20 -20 -20 -20 -20 -20 -20 -20 -20 -20 -20 -20 -20 -20 -20 -20 4 10 -6 2 -18 -20 -20 -20 -20 -20 -20 -20
-20 -16 19 -9 29 24 -3 -5 14 12 -11 -20 -20 -20 -20 -20 -20 -20 -20 -20 -20 -20 -20 -20 -20 -20 -20 -20 -20 -20 -20 -20 1 -20 3 11 -19 -1 -20 -20 -20 -20 -18 -20 -20
-20 -20 10 16 10 24 14 4 4 15 -13 -20 -20 -20 -20 -20 -20 -20 -20 -20 -20 -20 -20 -20 -20 -20 -20 -20 -20 -20 -20 -20 -20 -20 0 3 -19 17 9 -20 -20 0 -6 -20 -20
-20 -20 16 10 22 23 -10 8 9 14 -20 -20 -20 -20 -20 -20 -20 -20 -20 -20 -20 -20 -20 -20 -20 -20 -20 -20 -20 -20 -20 -15 16 9 -12 -20 -20 -20 13 4 -20 -20 -20 -20 -11
-20 -20 17 8 23 1 -14 -0 1 19 -18 -20 -20 -20 -20 -20 -20 -20 -20 -20 -20 -20 -20 -20 -20 -20 -20 -20 3 -15 20 -20 -20 -20 -20 -20 -20 -20 -5 -16 13 -11 -20 -19 15
31 24 17 27 -2 3 -17 -11 11 4 -18 -20 -20 -20 -20 -20 -20 -20 -20 -20 -20 -20 -20 -20 -20 -20 -20 -20 -20 -16 10 19 -20 -20 -20 -20 -20 -20 -20 -20 -20 6 -2 -10 13
30 30 23 29 10 -15 -14 3 8 16 -20 -20 -20 -20 -20 -20 -20 -20 -20 -20 -20 -20 -20 -20 -20 -20 -20 -8 20 -14 21 15 15 7 -20 -20 -20 -20 -20 -20 -20 -20 -20 -17 -12
18 20 30 19 17 -20 -5 9 15 7 -20 -20 -20 -20 -20 -20 -20 -20 -20 -20 -20 -20 -20 -20 -16 -20 -20 -1 -12 21 -9 8 20 11 -20 -20 -20 -20 -20 -20 -20 -20 -20 -20 -20
15 22 -2 23 23 -17 23 -7 7 -9 -20 -20 -20 -20 -20 -20 -20 -20 -20 -20 -20 -20 -20 -20 -20 -20 -20 -20 17 17 29 35 11 -16 -16 -20 -20 -20 -20 -20 -20 -20 -20 -20 -20
28 26 9 34 2 5 20 -15 7 -5 -20 -20 -20 -20 -20 -20 -20 -20 -20 -20 -20 -20 -20 -20 -14 -20 -20 -18 -20 -20 -20 -15 27 25 -18 -20 -20 -20 -20 -20 -20 -20 -20 -20 -20
22 25 24 32 5 5 5 -20 -7 -6 -20 -20 -20 -20 -20 -20 -20 -20 -20 -20 -20 -20 -20 -20 -20 -20 -20 -20 -20 -20 -20 -20 -20 9 24 -0 -20 -20 -20 -20 -20 -20 -20 -20 -20
35 28 -2 23 16 -13 -9 -6 -20 -20 -20 -20 -20 -20 -20 -20 -20 -20 -20 -20 -20 -20 -20 -20 -20 -20 -20 -20 -20 -20 -20 -20 -20 -20 15 6 -18 -20 -13 -20 -20 -20 -20 -20 -20
33 24 -20 -10 5 -2 -2 -7 -3 7 -20 -20 -20 -20 -20 -20 -20 -20 -20 -20 -20 -20 -20 -20 -20 -20 -20 -20 -20 -20 -20 -20 -20 -20 -18 -20 -1 -20 -6 -20 -20 -20 -20 -20 -20
4 29 6 0 -20 -18 -0 -15 -13 2 -20 -20 -20 -20 -20 -20 -20 -20 -20 -20 -20 -20 -20 -20 -20 -20 -20 -20 -20 -20 -20 -20 -20 -20 -9 -10 -18 -19 -20 -20 -20 -20 -20 -20 -20

GFSSW_prec_radar_108.txt.gz
Reflectivity
17 -18 -8 4 -20 -17 -20 -20 9 -20 -18 -18 6 -20 -20 -20 -20 -20 -20 -20 10 26 -20 -20 -9 2 0 12 -11 22 24 19 25 29 26 29 32 27 7 23 -19 -20 -20 -20 15
14 13 -16 -17 9 -13 -8 -5 -5 -20 -17 4 3 -9 -20 -20 -20 -20 -20 -20 10 7 -20 -18 12 -2 21 -7 27 24 21 0 -1 2 28 19 28 32 -7 -8 8 -20 -20 -20 -1
-16 21 15 -17 12 4 -20 -20 -16 -5 -7 -1 0 -1 -20 -20 -20 -20 -20 -14 -20 -20 -20 -19 3 -3 -12 -19 28 18 -15 14 32 35 21 23 -15 34 16 -14 -20 -20 -20 -20 -1
-18 10 7 -18 5 1 10 -18 -20 -20 -17 -6 -8 -3 -20 -20 -20 -20 -20 -20 -20 -20 -20 -14 -20 -3 24 -18 -20 24 -14 13 25 36 26 23 22 -11 21 -20 -20 -20 -20 -20 -14
6 8 11 -17 20 -1 -19 -18 0 -20 -11 -12 -8 -20 -20 -20 -20 -20 -20 -20 -20 -20 -20 22 22 19 21 -20 -20 -2 3 10 7 28 36 11 13 18 27 -15 9 -20 -16 -10 -0
11 8 20 -3 2 -19 -9 -0 1 -14 -2 -19 -11 -20 -20 -20 -20 -20 -20 -20 -20 -20 -20 -16 -2 23 -6 -12 -20 -20 -20 -4 2 18 30 24 -2 22 -20 -20 -20 -20 -12 -20 -15
-20 -14 12 21 -18 -15 -6 -10 -11 -2 -2 -20 -20 -20 -20 -20 -20 -20 -20 -20 -20 1 -1 14 4 -15 -20 -13 -20 -20 -14 5 6 7 8 21 -6 6 -20 -20 -20 29 -20 -20 -14
-20 -8 12 21 15 5 -20 -6 -20 -17 -8 -20 -14 -20 -20 -20 -20 -20 -20 -20 -20 -20 -20 -14 -8 -3 4 -20 -16 -20 -20 -13 -20 -20 33 4 7 13 -20 -20 -20 -20 -2 -9 -4
-20 -20 4 13 17 13 -20 -17 -8 -16 -10 -16 -20 -20 -20 -20 -20 -20 -20 -20 -20 -20 5 26 20 0 -18 10 -2 -20 -20 -5 -15 14 24 29 10 -1 -20 -20 10 -20 29 17 -1
-20 -20 -20 -19 10 1 -20 -20 -11 -20 -19 -3 -20 -20 -20 -20 -20 -20 -20 -20 -20 -20 -20 -20 -14 18 4 11 -10 -20 3 -2 8 3 24 23 17 9 -20 -20 -20 -4 26 6 8
-20 -20 -20 -20 -15 7 -9 -20 -20 -18 -11 -20 -20 -20 -20 -20 -20 -20 -20 -20 -20 -20 -20 -20 20 -0 -20 -20 -20 -20 -20 -20 -20 -19 -11 10 0 11 -20 -20 -20 -20 23 21 13
-20 -20 -20 -1 -10 2 0 5 -20 -13 -8 -15 -20 -20 -20 -20 -20 -20 -20 -20 -20 -20 -20 -14 8 -20 -20 -20 -20 -19 -20 -20 -20 -20 4 -10 13 22 -20 -14 -20 -20 15 2 28
-20 -20 17 15 8 1 -19 -5 -17 -20 5 -17 -20 -20 -20 -20 -20 -20 -20 -20 -20 -20 -20 -16 -20 -20 -20 -20 -20 -20 -20 -20 -20 -20 -2 -8 -16 -18 -19 -20 -20 -20 -18 5 27
-20 -20 -20 17 -1 10 -9 -20 -20 -20 -9 -10 -20 -20 -20 -20 -20 -20 -20 -20 -20 -20 -20 -20 -20 -20 -20 -20 -20 -20 -20 -20 -20 -4 9 -20 -20 4 27 11 -20 -20 -18 -14 -6
6 -20 -20 9 -2 19 9 -20 -3 -17 0 -18 -20 -20 -20 -20 -20 -20 -20 -20 -20 -20 -20 -20 -20 -20 -20 -20 -20 -20 -20 -20 -20 -20 3 -11 -20 -20 -7 -14 -20 -20 -20 -8 -9
11 -20 -20 12 -3 2 14 -20 -20 -18 13 -20 -20 -20 -20 -20 -20 -20 -20 -20 -20 -20 -20 -20 -20 -20 -20 -20 -20 -20 8 11 11 8 -3 1 -20 -20 -20 -20 10 8 -20 -13 -20
-11 -20 1 7 -0 1 -9 -20 -20 7 7 -20 -20 -20 -20 -20 -20 -20 -20 -20 -20 -20 -20 -20 -20 -20 -20 -18 -12 -20 6 13 12 12 -15 -20 -17 -20 -20 -20 4 -10 -14 -14 -18
-20 -12 -5 -16 25 28 -18 -20 -20 7 5 -20 -20 -20 -20 -20 -20 -20 -20 -20 -20 -20 -20 -20 -20 -20 -20 13 7 18 20 15 7 5 -18 -20 -19 -20 -20 -20 -20 -20 -20 -20 -20
-20 31 14 -19 27 16 -20 -20 -20 9 -3 -20 -20 -20 -20 -20 -20 -20 -20 -20 -20 -20 -20 -20 -20 -20 -20 -20 -20 26 18 6 -18 -20 -20 -10 -20 -18 -19 -20 -20 -20 -20 -20 -20
-3 30 18 2 3 -14 -14 -20 -3 -11 -15 -20 -20 -20 -20 -20 -20 -20 -20 -20 -20 -20 -20 -20 -20 -20 -20 -20 -20 4 -5 14 11 19 11 -20 -20 -12 7 -18 -20 -20 -20 -20 -20
-7 22 34 37 22 1 5 -20 -12 -20 -20 -20 -20 -20 -20 -20 -20 -20 -20 -20 -20 -20 -20 -15 -3 -20 -20 9 -10 -18 -5 22 39 22 21 -20 -20 -20 -19 0 -20 -20 -20 -20 -20
17 11 27 27 23 -12 -2 -20 -7 -20 -18 -20 -20 -20 -20 -20 -20 -20 -20 -20 -20 -20 -19 -20 -7 -8 -20 -20 -20 9 3 5 18 20 20 -12 -12 -20 -20 -20 -20 -20 -20 -20 -20
6 21 20 18 25 7 -17 -20 -20 -20 -20 -20 -20 -20 -20 -20 -20 -20 -20 -20 -20 -20 -20 -20 -20 -20 -20 -14 -18 -20 -20 2 4 16 -20 19 19 -20 -20 -20 -20 -20 -20 -20 -20
13 29 19 29 13 14 -20 -20 -20 -20 -20 -20 -20 -20 -20 -20 -20 -20 -20 -20 -20 -20 -20 -20 -20 -20 -20 -3 -20 -20 -20 -17 -20 -3 -2 2 -10 -20 -20 -20 -20 -20 -20 -20 -20
-20 18 7 13 7 -2 -20 -20 -20 -20 -20 -20 -20 -20 -20 -20 -20 -20 -20 -20 -20 -20 -20 -20 -20 -20 -20 -20 -20 -20 -20 -20 -20 -20 -16 -15 24 -20 -20 -20 -20 -20 -20 -20 -20
-0 30 2 5 8 1 -20 -9 -20 -20 -20 -20 -20 -20 -20 -20 -20 -20 -20 -20 -20 -20 -20 -20 -20 -20 -20 -20 -20 -20 -20 -20 -20 -20 -20 -20 -20 -8 -20 -20 -20 -20 -20 -20 -20
-2 -8 15 9 5 -19 -19 -20 -20 -3 -20 -20 -20 -20 -20 -20 -20 -20 -20 -20 -20 -20 -20 -20 -20 -20 -20 -20 -20 -16 -20 -20 -20 -20 -19 -17 -2 -20 -20 -20 -20 -20 -20 -20 -20

GFSSW_prec_radar_111.txt.gz
Reflectivity
2 16 14 -18 -20 -13 -13 -20 -20 6 -20 -20 -20 -8 -20 -14 -20 -20 -20 -20 -20 3 22 11 5 -7 -7 14 2 -10 17 16 -13 -20 -20 0 27 13 25 37 31 11 33 3 -17
7 2 18 11 -14 -20 -20 -20 -20 -12 -12 -20 -20 -20 -3 -20 -20 -20 -20 -20 -20 15 -20 -12 9 9 2 -20 10 18 16 -1 -9 16 26 -3 25 11 16 32 -8 18 31 -0 3
10 14 17 24 9 -20 -10 -20 -20 -16 -11 -20 -20 -20 -10 -20 -20 -20 -20 -20 -20 -10 -20 -17 13 4 1 -20 -9 14 14 -11 26 28 33 8 25 29 35 24 -20 -20 36 20 6
13 10 12 1 11 -20 -17 -20 -20 -20 -4 -20 -20 -8 -19 -20 -20 -20 -20 -20 -20 -20 -20 -2 -12 10 14 -13 -20 -20 -11 13 26 -3 -1 -2 27 28 28 16 -20 -19 33 19 5
-8 -17 -4 -7 7 10 -15 -20 -20 -20 -12 -20 -20 -5 -20 -20 -20 -20 -20 -20 -20 -20 -4 -8 -18 12 18 23 14 -8 25 3 19 -20 -19 28 32 24 -12 -16 19 40 49 9 17
-7 -20 -4 7 23 9 3 -20 -20 -20 -20 -20 -18 -18 -20 -20 -20 -20 -20 -20 -20 -20 -13 -5 11 23 21 11 11 -8 20 -6 -2 4 9 13 11 22 -14 24 34 35 36 10 -20
-20 -20 -14 10 21 12 11 13 -20 -20 -20 -20 -1 -20 -20 -20 -20 -20 -20 -20 -20 -20 -18 -20 -18 -1 23 -20 -20 12 5 -20 9 9 17 -14 9 0 -20 14 13 -6 24 -12 -20
1 -10 -20 -20 5 19 12 13 -19 -20 -20 -20 -12 -15 -20 -20 -20 -20 -20 -20 -20 -20 -20 -20 7 20 19 8 -4 10 11 12 -19 10 1 -12 -13 -10 -11 6 -3 9 -20 29 -19
-12 -20 -20 -20 -19 10 15 16 7 -7 -20 -10 -10 -20 -20 -20 -20 -20 -20 -20 -20 -20 -20 -3 7 19 -8 -12 12 1 -20 -20 -20 -6 -15 0 -6 -15 30 31 -20 -20 -12 31 -2
-18 -20 -20 -20 -20 -20 13 17 -17 -20 -20 4 -15 -20 -20 -20 -20 -20 -20 -20 -20 -20 -14 -20 -19 9 -20 24 28 10 -20 -20 -20 -20 -20 -20 -7 -15 -10 -12 -11 1 -2 -7 29
1 -20 -20 -20 -14 -20 -20 2 -20 -20 -20 -5 -20 -20 -20 -20 -20 -20 -20 -20 -20 -20 -18 -20 14 17 -18 7 6 -4 -20 -20 -20 -20 -20 -20 -20 -20 -4 -20 -20 -11 -20 -20 -14
21 -20 -20 6 21 9 -5 5 -5 -19 -3 -19 -20 -20 -20 -20 -20 -20 -20 -20 -20 -20 3 -8 -12 7 -20 2 7 2 -20 -20 -20 -20 -20 -20 -16 -20 -20 -20 6 -20 -15 -20 -15
22 3 -20 -20 11 15 -12 -13 -10 3 -5 -20 -20 -20 -20 -20 -20 -20 -20 -20 -20 -20 -9 2 9 -20 -19 -17 -20 -8 2 -20 -20 -19 -20 -20 -20 -20 -20 -20 -20 -20 -20 31 -15
-3 22 -20 -20 -16 -14 1 -20 -20 -18 -5 -20 -20 -20 -20 -20 -20 -20 -20 -20 -20 -20 -20 -19 -20 -20 -20 -15 -20 -10 -20 -20 1 -4 5 -20 16 -20 -20 -20 -20 -20 -20 14 1
-4 25 -20 -20 -15 11 8 -20 -20 -17 -20 -20 -20 -20 -20 -20 -20 -20 -20 -20 -20 -20 -20 -20 -20 -20 -20 -6 -20 7 -20 -11 1 3 -4 -20 -20 11 -20 -20 -20 -20 -20 -20 -6
12 26 -15 -20 4 -3 6 -20 -18 -3 -20 -20 -20 -20 -20 -20 -20 -20 -20 -20 -20 -20 -20 -20 -20 -20 -14 -20 -20 -20 -11 -20 -13 -9 -9 -20 -20 3 -20 -20 4 -20 -20 -20 -10
30 33 -20 -20 4 18 -5 -20 6 8 -20 -20 -15 -20 -20 -20 -20 -20 -20 -20 -20 -20 -20 -20 -20 -20 -20 -12 -20 -20 18 21 10 8 -20 -20 -20 9 -20 -19 24 -1 -18 -20 -20
29 2 -20 -8 8 15 -16 -0 2 -20 -20 -20 -20 -20 -20 -20 -20 -20 -20 -20 -20 -20 -20 -20 -13 -20 -20 7 11 16 15 21 21 11 -1 -20 -7 -13 -20 -20 -20 -8 -17 -12 -20
-1 21 17 19 -5 28 -2 13 2 -11 -20 -20 -20 -20 -20 -20 -20 -20 -20 -20 -20 -20 -20 -20 -20 -20 -20 -20 -11 2 -2 15 12 -18 -20 -9 -20 -20 -20 -20 -20 -20 10 1 -20
14 14 20 33 25 25 6 -20 -3 -19 -20 -20 -20 -20 -20 -20 -20 -20 -20 -20 -20 -20 -20 -20 -7 -20 -20 -16 -16 -7 13 22 -3 18 12 -20 -20 10 -20 -20 -20 -20 -20 -5 5
13 22 6 28 17 -2 9 1 -15 -20 -20 -20 -20 -20 -20 -20 -20 -20 -20 -20 -20 -20 -20 -20 0 0 -19 -1 -5 13 -9 -10 21 11 19 17 -2 -20 -20 -20 -20 -20 -20 -20 -11
11 28 30 27 31 4 11 -12 -20 -20 -20 -20 -20 -20 -20 -20 -20 -20 -20 -20 -20 -20 -3 -19 -12 -3 -19 -20 -20 10 -13 -20 -18 23 -18 12 16 -20 -20 -20 -20 -20 -20 -20 -19
9 27 30 16 20 6 -15 -20 -20 -20 -20 -20 -20 -20 -20 -20 -20 -20 -20 -20 -20 -20 -5 -20 -20 -17 -20 -10 -18 -9 1 -6 -13 -4 10 -15 18 -14 -20 -20 -20 -20 -20 -20 -20
-2 16 10 19 17 7 -14 -20 -20 -20 -20 -20 -20 -20 -20 -20 -20 -20 -20 -20 -20 -20 -20 -20 -20 -20 -20 -10 -20 -20 -20 -20 -9 3 -20 6 21 8 -20 -20 -20 -20 -20 -20 -20
-17 8 4 5 13 6 -1 -15 -20 -20 -20 -20 -20 -20 -20 -20 -20 -20 -20 -20 -20 -20 -20 -20 -20 -20 -20 -20 -20 -20 -20 -20 -20 -20 -18 -20 -20 -20 -20 -20 -20 -20 -20 -20 -20
0 20 -20 10 2 1 -20 -20 -20 -20 -20 -20 -20 -20 -20 -20 -20 -20 -20 -20 -20 -20 -20 -20 -20 -20 -20 -20 -20 -20 -20 -20 -20 -20 -20 -20 -20 -20 -20 -20 -20 -20 -20 -20 -20
-2 -15 -14 10 8 -18 -17 -20 -20 -20 -20 -20 -20 -20 -20 -20 -20 -20 -20 -20 -20 -20 -20 -20 -20 -20 -20 -20 -20 -16 -20 -13 0 -15 -15 -17 -20 -20 -20 -20 -20 -20 -20 -5 -16

GFSSW_prec_radar_114.txt.gz
Reflectivity
4 10 -0 16 25 -3 -13 -20 -20 -20 3 -20 -11 -7 -20 -20 -20 -9 -10 -20 -20 -20 -20 -20 -20 -8 9 -5 -1 21 30 -1 -20 -20 -20 -20 -7 -20 -20 -20 -20 -3 17 14 40
8 9 -15 15 2 21 8 2 -9 -20 -8 -20 -20 -20 -20 -20 -16 -9 -20 -20 -20 -7 -20 -20 -13 -1 -0 -15 7 15 -0 -20 -20 -20 -20 -19 25 21 -2 4 5 29 3 34 -8
-4 13 -14 7 3 24 8 -19 -17 -20 -20 -7 -1 -20 -20 -20 -15 -20 -20 -20 -20 -20 -20 -20 -3 11 -18 -10 -12 -17 -20 -20 -20 8 -8 7 16 11 19 -4 -3 25 2 28 34
12 15 -16 16 0 20 12 12 -15 -3 -5 -1 -11 -20 -20 -20 -9 -20 -20 -20 -20 -20 -20 -16 8 -16 -19 8 -20 2 -20 -20 -20 24 21 -10 23 15 19 -14 7 24 35 -8 12
-20 15 -20 -20 2 10 18 13 21 14 -10 3 -20 -20 -20 -19 -18 -20 -20 -20 -20 -20 -20 4 15 10 -9 4 27 26 -20 -20 -13 -18 -20 -20 -16 -17 -17 -2 15 30 1 2 36
-6 -20 -18 -20 -15 4 20 24 -1 5 5 4 -20 -20 -0 -20 -20 -20 -20 -20 -20 -20 -20 -20 12 -6 -20 15 21 2 13 -4 -0 -9 -20 -20 -0 -4 8 14 -13 -5 -1 -18 -6
5 -10 -13 -20 -20 7 24 6 18 8 3 7 -5 -20 -20 -20 -20 -20 -20 -20 -20 -20 -20 -20 -20 -20 5 -4 -20 -20 21 -19 5 -9 -20 -6 -12 -20 -15 -20 -12 -20 -20 -20 22
-9 -4 -20 -20 -20 -20 4 24 21 6 12 6 -11 -14 -14 -20 -20 -20 -20 -20 -20 -20 -20 -20 -20 -20 -20 11 -3 -20 4 11 -1 -20 -20 -13 6 0 -20 -20 9 -20 -17 3 23
6 -8 -12 -20 -20 7 -18 -14 12 -1 2 3 -14 1 -20 -20 -20 -20 -20 -20 -20 -20 -20 -20 -20 -20 2 3 -1 -18 -5 -7 -17 1 -20 -20 -20 -20 -20 -20 -15 5 -16 8 38
1 -5 -20 -20 -18 -20 -20 -5 -10 -7 -16 -20 -20 -19 -20 -20 -20 -20 -20 -20 -20 -20 -20 -20 -20 4 -13 -15 20 23 29 -1 -18 -18 4 -20 -20 -20 -20 -20 -17 4 25 31 33
-19 -2 22 -20 -19 20 -20 -20 -20 -20 -20 -20 -20 -20 -20 -20 -20 -20 -20 -20 -20 -20 -20 -20 -8 14 32 10 -20 -19 -20 -20 -20 -20 -20 -20 -20 -20 -16 -20 -6 -20 -20 29 33
-18 -19 21 -20 -20 7 6 -20 -20 -20 -20 -20 -20 -20 -20 -20 -20 -20 -20 -20 -20 1 -13 4 -5 10 -20 -20 -20 -2 -14 7 11 -20 -20 -20 -20 -20 -20 -20 -17 -20 -3 -12 20
-0 27 23 -17 -20 -20 8 -10 -16 11 -20 -20 -20 -20 -20 -20 -20 -20 -20 -20 -20 -20 -10 -16 -15 -20 3 -20 -16 -17 9 4 17 -19 -20 -20 -20 -20 -20 -20 -20 -20 -20 19 22
-7 26 24 -12 -20 -18 -10 -20 1 -17 21 -8 -20 -20 -20 -20 -20 -20 -20 -20 -20 -20 -20 -20 -20 -20 -20 -18 2 -17 -17 -20 -20 -4 19 -20 -20 -20 -20 -20 22 -20 -6 -20 -16
-14 22 16 21 -20 -2 16 3 -20 -20 -0 -20 -20 -20 -20 -20 -20 -20 -20 -20 -20 -20 -20 -20 -20 -20 -20 8 -20 -20 -20 -20 -20 -18 -20 -20 -19 9 -20 -20 -12 -20 -20 30 -13
-6 21 28 -8 -7 -9 26 -6 -10 -4 -11 -19 -11 -20 -20 -20 -20 -20 -20 -20 -20 -20 -20 -20 -20 -20 -20 -20 -20 -20 -20 -20 -14 -2 -18 -20 -20 28 23 21 7 -20 -20 6 24
18 22 15 -11 12 5 -19 -20 9 10 -20 -20 -20 -20 -20 -20 -20 -20 -20 -20 -20 -20 -20 -20 -20 -20 -20 -20 -20 13 11 -3 1 -8 -20 -20 -20 -14 -20 -2 20 18 11 -20 24
10 -20 -20 -20 -20 26 -16 17 16 -20 -20 -20 -20 -20 -20 -20 -20 -20 -20 -20 -20 -20 -20 -20 -20 -20 -20 -19 4 -20 11 19 27 16 18 -20 17 -20 -20 -20 -1 37 34 -6 -20
11 22 20 10 -1 -14 -15 15 4 -20 -20 -20 -20 -20 -20 -20 -20 -20 -20 -20 -20 -20 -20 -20 -20 -20 -20 -20 -20 -19 12 0 4 -1 -12 0 -17 -20 -20 -20 -20 30 20 12 -18
-15 -20 23 3 7 6 1 22 -16 -20 -20 -20 -20 -20 -20 -20 -20 -20 -20 -20 -20 -20 -20 -14 -20 -20 -20 -20 -20 13 -20 -0 -1 -14 -18 7 -20 -20 -20 -20 -20 -20 -16 -5 21
13 2 29 21 4 -20 33 -20 -20 -20 -20 -20 -20 -20 -20 -20 -20 -20 -20 -20 -20 -20 -20 -20 -13 -20 -20 -20 -20 -17 -20 -18 -17 -17 20 23 13 -20 -20 -20 -20 -20 -20 -20 -15
-2 19 4 30 -14 -19 6 -20 -20 -20 -20 -20 -20 -20 -20 -20 -20 -20 -20 -20 -20 -20 -20 -20 -20 -20 -20 -20 -19 -20 -19 -20 -20 -20 11 19 21 -16 -20 -20 -20 -20 -20 -20 -20
-0 23 8 3 11 -2 -17 -20 -20 -20 -20 -20 -20 -20 -20 -20 -20 -20 -20 -20 -20 -20 -20 -20 -20 -20 -20 -20 -20 -18 -20 -20 -20 -20 -20 -5 25 -20 -20 -20 -20 -20 -20 -20 -20
-3 -6 -18 -20 -20 -16 -14 -20 -20 -20 -20 -20 -20 -20 -20 -20 -20 -20 -20 -20 -20 -20 -20 -20 -20 -20 -20 -20 -20 -20 -20 -20 -20 -20 -20 -16 -1 32 -20 -20 -20 -20 -20 -20 -20
-20 -19 -12 -9 -20 -1 -20 -20 -20 -20 -20 -20 -20 -20 -20 -20 -20 -20 -20 -20 -20 -20 -20 -20 -20 -20 -20 -20 -20 -20 -20 -20 -20 -20 -20 -20 -20 0 -20 -20 -20 -20 -20 -20 -20
-20 -20 -20 -20 -20 -20 -20 -20 -20 -20 -20 -20 -20 -20 -20 -20 -20 -20 -20 -20 -20 -20 -20 -20 -20 -20 -20 -20 -20 -20 -20 -20 -20 -20 -20 -20 -20 -20 -20 -20 -20 -20 -20 -20 -20
-20 -20 -20 -20 -20 -20 -20 -20 -20 -20 -20 -20 -20 -20 -20 -20 -20 -20 -20 -20 -20 -20 -20 -20 -20 -20 -20 -20 -20 -20 -20 -20 -20 -20 -20 -20 -20 -20 -20 -20 -20 -20 -20 -20 -20

GFSSW_prec_radar_117.txt.gz
Reflectivity
16 17 14 -15 11 11 18 23 -9 13 -20 -4 -2 -1 2 -0 -3 -20 -20 -20 -20 -20 -20 -20 -20 -20 15 10 -9 12 18 -14 -20 -20 -20 -20 -20 -20 -20 -20 -20 -20 -20 -20 -20
-3 10 16 -7 -8 18 5 22 12 -2 -14 -7 -4 -3 -3 -20 -20 -20 -20 -20 -20 -20 -20 -20 -20 10 14 -15 11 7 0 -5 -20 -20 -20 -20 -20 -20 -20 -20 -20 -20 -20 -20 -20
2 -15 -4 -17 -17 -5 -3 27 8 -1 11 -18 -13 -18 -20 -20 -5 -20 -20 -20 -20 -20 -20 -20 -20 -20 9 1 -9 -20 -20 -20 -20 -20 -20 -20 -20 -20 13 -20 -20 -20 -20 -20 -20
16 -17 -19 -20 -20 -20 -3 27 5 21 -4 4 12 -20 -20 -20 -20 -20 -20 -20 -20 -20 -20 -20 -18 14 2 -13 -20 -3 -20 -20 -20 -20 -20 -20 -20 -20 -20 -20 -20 -20 -20 -15 -20
6 7 -0 -20 -20 -20 7 33 14 2 9 -1 -7 -20 -20 -4 -20 -20 -9 -20 -20 -20 -20 -18 10 4 4 -20 -20 -20 -20 -20 -20 -20 -20 -15 -20 -20 -20 -19 15 -20 -20 22 -17
13 10 8 -20 -20 -20 -18 -19 17 17 5 9 4 -20 -20 -20 -20 -20 -20 -20 -20 -20 -20 -17 -1 2 0 -20 -20 -20 -20 -20 -20 -20 -4 8 -20 7 -7 -2 18 4 -20 -11 27
-4 6 10 -5 -20 -20 -20 11 16 -0 -16 1 -19 -13 5 -20 -20 -20 -20 -20 -20 -20 -20 -20 -20 -20 7 -20 -20 -20 -20 -20 -20 -16 1 16 -12 -2 1 -12 -15 14 -20 18 -5
2 8 11 11 -2 -4 -1 -20 -2 14 16 -20 -18 -5 -18 -20 -20 -20 -20 -20 -20 -20 -20 -20 -20 -20 -5 -20 -20 -20 -20 -4 -10 -19 -20 6 7 -20 -20 -14 -20 -19 -5 28 -11
6 8 6 20 15 15 3 -20 -15 -20 17 -20 -14 -20 -20 -20 -20 -20 -20 -20 -20 -20 -20 -20 -20 -20 -6 -5 -13 -15 -18 -19 -7 -19 -20 -11 -20 -20 -20 -20 -20 -19 1 4 -19
-2 0 20 22 -20 -20 -19 10 -17 -20 -14 -20 -20 -12 -20 -20 -20 -20 -20 -20 -20 -20 -20 -20 -20 -20 -13 15 -18 13 3 1 -18 -20 -20 -20 -20 -20 -20 -20 -20 -20 1 9 9
16 -16 24 -20 -20 -20 4 -20 -20 -20 -20 -20 -20 -20 -20 -20 -20 -20 -20 -20 -20 -20 -20 -20 -7 -20 -20 8 -20 -20 2 -20 -20 -20 -20 -20 -20 -20 -20 -20 -20 -16 -20 27 9
-6 -1 25 13 -20 -20 -20 -20 -20 -20 -20 -20 -20 -20 -20 -20 -20 -20 -20 -20 -20 -20 -20 -12 -20 -20 -14 11 8 2 -8 -8 17 15 -20 -20 -20 -20 -20 -20 -20 -20 -20 -15 24
28 -14 24 -14 22 -20 6 -2 -4 -20 -20 -20 -20 -20 -20 -20 -20 -20 -20 -20 -20 -20 -20 -15 -20 -20 -20 -20 -20 -20 4 -4 -12 -11 -20 -20 -20 -20 -20 -20 -20 -20 -20 4 5
22 -20 19 20 4 -20 24 11 10 -18 -16 -20 -20 -20 -20 -20 -20 -20 -20 -20 -20 -20 -20 -20 -20 -20 -20 -13 11 -18 -20 -20 -20 -20 -20 -19 -16 -20 -20 -9 -11 -11 19 16 3
23 22 20 22 -20 14 -0 -20 -20 -20 -19 -9 -20 -20 -20 -20 -20 -20 -20 -20 -20 -20 -20 -20 -20 -20 -20 -20 -20 -20 -20 -20 -20 -20 -20 -19 5 29 34 33 28 2 -1 -9 -10
4 19 21 13 0 -2 4 -14 -20 -11 -20 -20 -20 -20 -20 -20 -20 -20 -20 -20 -20 -20 -20 -20 -20 -20 -20 -20 -20 -20 -20 -20 -20 -20 -20 -20 5 -5 -16 12 1 -18 21 26 28
-4 12 -20 -19 -7 -20 -20 -20 -6 -20 -20 -8 -20 -20 -20 -20 -20 -20 -20 -20 -20 -20 -20 -20 -20 -20 -20 -20 -20 -17 -20 -20 -20 -20 -20 -20 -20 13 -20 15 29 22 14 10 36
10 -20 13 -7 -20 -20 16 8 -20 -18 -20 -20 -20 -20 -20 -20 -20 -20 -20 -20 -20 -20 -20 -20 -20 -20 -20 -20 -15 -19 1 22 22 17 5 -20 -19 11 -20 -20 -4 25 4 29 17
-4 -12 -13 -11 6 25 10 -20 -3 -20 -20 -20 -20 -20 -20 -20 -20 -20 -20 -20 -20 -20 -20 -20 -20 -20 -20 -19 -20 -20 -20 -20 13 22 -18 -14 -20 -20 -20 -20 -20 25 29 -7 -9
-20 -10 -12 -19 -7 -6 -20 2 -20 -20 -20 -20 -20 -20 -20 -20 -20 -20 -20 -20 -20 -20 -20 -20 -20 -20 -20 -20 -20 -20 -20 -20 -6 -20 18 -4 -18 -5 -20 -20 -20 -19 30 30 -3
-20 -19 -20 -20 -7 -20 -20 -12 -20 -20 -20 -20 -20 -20 -20 -20 -20 -20 -20 -20 -20 -20 -20 -20 -20 -20 -20 -18 -20 -20 -20 -20 -20 -20 15 -13 16 -15 -20 -20 -20 -20 2 17 -2
-20 -20 -20 -20 -20 -20 -20 -20 -20 -20 -20 -20 -20 -20 -20 -20 -20 -20 -20 -20 -20 -20 -20 -20 -20 -20 -20 -20 -20 -20 -20 -20 -20 -20 -19 -19 17 -20 -20 -20 -20 -20 -20 11 -18
-20 -20 -20 -20 -20 -20 -20 -20 -20 -20 -20 -20 -20 -20 -20 -20 -20 -20 -20 -20 -20 -20 -20 -20 -20 -20 -20 -20 -20 -20 -20 -20 -20 -20 -19 11 8 -20 -20 -20 -20 -20 -20 -20 -20
-20 -20 -20 -20 -20 -20 -20 -20 -20 -20 -20 -20 -20 -20 -20 -20 -20 -20 -20 -20 -20 -20 -20 -20 -20 -20 -20 -20 -20 -20 -20 -20 -20 -20 -20 -20 -20 -20 -20 -20 -20 -20 -20 -20 -20
-20 -20 -20 -20 -20 -20 -20 -20 -20 -20 -20 -20 -20 -20 -20 -20 -20 -20 -20 -20 -20 -20 -20 -20 -20 -20 -20 -20 -20 -20 -20 -20 -20 -20 -20 -20 -11 -20 -20 -20 -20 -20 -20 -20 -20
-20 -20 -20 -20 -20 -20 -20 -20 -20 -20 -20 -20 -20 -20 -20 -20 -20 -20 -20 -20 -20 -20 -20 -20 -20 -20 -20 -20 -20 -20 -20 -20 -20 -20 -20 -20 -20 -20 -20 -20 -20 -20 -20 -20 -20
-20 -20 -20 -20 -20 -20 -20 -20 -20 -20 -20 -20 -20 -20 -20 -20 -20 -20 -20 -20 -20 -20 -20 -20 -20 -20 -20 -20 -20 -20 -20 -20 -20 -20 -20 -20 -20 -20 -20 -20 -20 -20 -20 -20 -20